[[{"header":{"parameterUnit":"m.s-1","parameterCategory":1,"la1":30.6,"la2":28.766,"lo1":-90.7593,"lo2":-88.6598,"dy":0.0162,"dx":0.0183,"nx":116,"ny":114,"refTime":"2023-05-15T12:00:00:Z","depth":0,"parameterNumber":2,"parameterNumberName":"U-component_of_WINDS"},"data":[0.0,0.0,0.0,0.0,0.0,0.0,0.0,0.0,0.0,0.0,0.0,0.0,0.0,0.0,0.0,0.0,0.0,0.0,0.0,0.0,0.0,0.0,0.0,0.0,0.0,0.0,0.0,0.0,0.0,0.0,0.0,0.0,0.0,0.0,0.0,0.0,0.0,0.0,0.0,0.0,0.0,0.0,0.0,0.0,0.0,0.0,0.0,0.0,0.0,0.0,0.0,0.0,0.0,0.0,0.0,0.0,0.0,0.0,0.0,0.0,0.0,0.0,0.0,0.0,0.0,0.0,0.0,0.0,0.0,0.0,0.0,0.0,0.0,0.0,0.0,0.0,0.0,0.0,0.0,0.0,0.0,0.0,0.0,0.0,0.0,0.0,0.0,0.0,0.0,0.0,0.0,0.0,0.0,0.0,0.0,0.0,0.0,0.0,0.0,0.0,0.0,0.0,0.0,0.0,0.0,0.0,0.0,0.0,0.0,0.0,0.0,0.0,0.0,0.0,0.0,0.0,0.0,0.0,0.0,0.0,0.0,0.0,0.0,0.0,0.0,0.0,0.0,0.0,0.0,0.0,0.0,0.0,0.0,0.0,0.0,0.0,0.0,0.0,0.0,0.0,0.0,0.0,0.0,0.0,0.0,0.0,0.0,0.0,0.0,0.0,0.0,0.0,0.0,0.0,0.0,0.0,0.0,0.0,0.0,0.0,0.0,0.0,0.0,0.0,0.0,0.0,0.0,0.0,0.0,0.0,0.0,0.0,0.0,0.0,0.0,0.0,0.0,0.0,0.0,0.0,0.0,0.0,0.0,0.0,0.0,0.0,0.0,0.0,0.0,0.0,0.0,0.0,0.0,0.0,0.0,0.0,0.0,0.0,0.0,0.0,0.0,0.0,0.0,0.0,0.0,0.0,0.0,0.0,0.0,0.0,0.0,0.0,0.0,0.0,0.0,0.0,0.0,0.0,0.0,0.0,0.0,0.0,0.0,0.0,0.0,0.0,0.0,0.0,0.0,0.0,0.0,0.0,0.0,0.0,0.0,0.0,0.0,0.0,0.0,0.0,0.0,0.0,0.0,0.0,0.0,0.0,0.0,0.0,0.0,0.0,0.0,0.0,0.0,0.0,0.0,0.0,0.0,0.0,0.0,0.0,0.0,0.0,0.0,0.0,0.0,0.0,0.0,0.0,0.0,0.0,0.0,0.0,0.0,0.0,0.0,0.0,0.0,0.0,0.0,0.0,0.0,0.0,0.0,0.0,0.0,0.0,0.0,0.0,0.0,0.0,0.0,0.0,0.0,0.0,0.0,0.0,0.0,0.0,0.0,0.0,0.0,0.0,0.0,0.0,0.0,0.0,0.0,0.0,0.0,0.0,0.0,0.0,0.0,0.0,0.0,0.0,0.0,0.0,0.0,0.0,0.0,0.0,0.0,0.0,0.0,0.0,0.0,0.0,0.0,0.0,0.0,0.0,0.0,0.0,0.0,0.0,0.0,0.0,0.0,0.0,0.0,0.0,0.0,0.0,0.0,0.0,0.0,0.0,0.0,0.0,0.0,0.0,0.0,0.0,0.0,0.0,0.0,0.0,0.0,0.0,0.0,0.0,0.0,0.0,0.0,0.0,0.0,0.0,0.0,0.0,0.0,0.0,0.0,0.0,0.0,0.0,0.0,0.0,0.0,0.0,0.0,0.0,0.0,0.0,0.0,0.0,0.0,0.0,0.0,0.0,0.0,0.0,0.0,0.0,0.0,0.0,0.0,0.0,0.0,0.0,0.0,0.0,0.0,0.0,0.0,0.0,0.0,0.0,0.0,0.0,0.0,0.0,0.0,0.0,0.0,0.0,0.0,0.0,0.0,0.0,0.0,0.0,0.0,0.0,0.0,0.0,0.0,0.0,0.0,0.0,0.0,0.0,0.0,0.0,0.0,0.0,0.0,0.0,0.0,0.0,0.0,0.0,0.0,0.0,0.0,0.0,0.0,0.0,0.0,0.0,0.0,0.0,0.0,0.0,0.0,0.0,0.0,0.0,0.0,0.0,0.0,0.0,0.0,0.0,0.0,0.0,0.0,0.0,0.0,0.0,0.0,0.0,0.0,0.0,0.0,0.0,0.0,0.0,0.0,0.0,0.0,0.0,0.0,0.0,0.0,0.0,0.0,0.0,0.0,0.0,0.0,0.0,0.0,0.0,0.0,0.0,0.0,0.0,0.0,0.0,0.0,0.0,0.0,0.0,0.0,0.0,0.0,0.0,0.0,0.0,0.0,0.0,0.0,0.0,0.0,0.0,0.0,0.0,0.0,0.0,0.0,0.0,0.0,0.0,0.0,0.0,0.0,0.0,0.0,0.0,0.0,0.0,0.0,0.0,0.0,0.0,0.0,0.0,0.0,0.0,0.0,0.0,0.0,0.0,0.0,0.0,0.0,0.0,0.0,0.0,0.0,0.0,0.0,0.0,0.0,0.0,0.0,0.0,0.0,0.0,0.0,0.0,0.0,0.0,0.0,0.0,0.0,0.0,0.0,0.0,0.0,0.0,0.0,0.0,0.0,0.0,0.0,0.0,0.0,0.0,0.0,0.0,0.0,0.0,0.0,0.0,0.0,0.0,0.0,0.0,0.0,0.0,0.0,0.0,0.0,0.0,0.0,0.0,0.0,0.0,0.0,0.0,0.0,0.0,0.0,0.0,0.0,0.0,0.0,0.0,0.0,0.0,0.0,0.0,0.0,0.0,0.0,0.0,0.0,0.0,0.0,0.0,0.0,0.0,0.0,0.0,0.0,0.0,0.0,0.0,0.0,0.0,0.0,0.0,0.0,0.0,0.0,0.0,0.0,0.0,0.0,0.0,0.0,0.0,0.0,0.0,0.0,0.0,0.0,0.0,0.0,0.0,0.0,0.0,0.0,0.0,0.0,0.0,0.0,0.0,0.0,0.0,0.0,0.0,0.0,0.0,0.0,0.0,0.0,0.0,0.0,0.0,0.0,0.0,0.0,0.0,0.0,0.0,0.0,0.0,0.0,0.0,0.0,0.0,0.0,0.0,0.0,0.0,0.0,0.0,0.0,0.0,0.0,0.0,0.0,0.0,0.0,0.0,0.0,0.0,0.0,0.0,0.0,0.0,0.0,0.0,0.0,0.0,0.0,0.0,0.0,0.0,0.0,0.0,0.0,0.0,0.0,0.0,0.0,0.0,0.0,0.0,0.0,0.0,0.0,0.0,0.0,0.0,0.0,0.0,0.0,0.0,0.0,0.0,0.0,0.0,0.0,0.0,0.0,0.0,0.0,0.0,0.0,0.0,0.0,0.0,0.0,0.0,0.0,0.0,0.0,0.0,0.0,0.0,0.0,0.0,0.0,0.0,0.0,0.0,0.0,0.0,0.0,0.0,0.0,0.0,0.0,0.0,0.0,0.0,0.0,0.0,0.0,0.0,0.0,0.0,0.0,0.0,0.0,0.0,0.0,0.0,0.0,0.0,0.0,0.0,0.0,0.0,0.0,0.0,0.0,0.0,0.0,0.0,0.0,0.0,0.0,0.0,0.0,0.0,0.0,0.0,0.0,0.0,0.0,0.0,0.0,0.0,0.0,0.0,0.0,0.0,0.0,0.0,0.0,0.0,0.0,0.0,0.0,0.0,0.0,0.0,0.0,0.0,0.0,0.0,0.0,0.0,0.0,0.0,0.0,0.0,0.0,0.0,0.0,0.0,0.0,0.0,0.0,0.0,0.0,0.0,0.0,0.0,0.0,0.0,0.0,0.0,0.0,0.0,0.0,0.0,0.0,0.0,0.0,0.0,0.0,0.0,0.0,0.0,0.0,0.0,0.0,0.0,0.0,0.0,0.0,0.0,0.0,0.0,0.0,0.0,0.0,0.0,0.0,0.0,0.0,0.0,0.0,0.0,0.0,0.0,0.0,0.0,0.0,0.0,0.0,0.0,0.0,0.0,0.0,0.0,0.0,0.0,0.0,0.0,0.0,0.0,0.0,0.0,0.0,0.0,0.0,0.0,0.0,0.0,0.0,0.0,0.0,0.0,0.0,0.0,0.0,0.0,0.0,0.0,0.0,0.0,0.0,0.0,0.0,0.0,0.0,0.0,0.0,0.0,0.0,0.0,0.0,0.0,0.0,0.0,0.0,0.0,0.0,0.0,0.0,0.0,0.0,0.0,0.0,0.0,0.0,0.0,0.0,0.0,0.0,0.0,0.0,0.0,0.0,0.0,0.0,0.0,0.0,0.0,0.0,0.0,0.0,0.0,0.0,0.0,0.0,0.0,0.0,0.0,0.0,0.0,0.0,0.0,0.0,0.0,0.0,0.0,0.0,0.0,0.0,0.0,0.0,0.0,0.0,0.0,0.0,0.0,0.0,0.0,0.0,0.0,0.0,0.0,0.0,0.0,0.0,0.0,0.0,0.0,0.0,0.0,0.0,0.0,0.0,0.0,0.0,0.0,0.0,0.0,0.0,0.0,0.0,0.0,0.0,0.0,0.0,0.0,0.0,0.0,0.0,0.0,0.0,0.0,0.0,0.0,0.0,0.0,0.0,0.0,0.0,0.0,0.0,0.0,0.0,0.0,0.0,0.0,0.0,0.0,0.0,0.0,0.0,0.0,0.0,0.0,0.0,0.0,0.0,0.0,0.0,0.0,0.0,0.0,0.0,0.0,0.0,0.0,0.0,0.0,0.0,0.0,0.0,0.0,0.0,0.0,0.0,0.0,0.0,0.0,0.0,0.0,0.0,0.0,0.0,0.0,0.0,0.0,0.0,0.0,0.0,0.0,0.0,0.0,0.0,0.0,0.0,0.0,0.0,0.0,0.0,0.0,0.0,0.0,0.0,0.0,0.0,0.0,0.0,0.0,0.0,0.0,0.0,0.0,0.0,0.0,0.0,0.0,0.0,0.0,0.0,0.0,0.0,0.0,0.0,0.0,0.0,0.0,0.0,0.0,0.0,0.0,0.0,0.0,0.0,0.0,0.0,0.0,0.0,0.0,0.0,0.0,0.0,0.0,0.0,0.0,0.0,0.0,0.0,0.0,0.0,0.0,0.0,0.0,0.0,0.0,0.0,0.0,0.0,0.0,0.0,0.0,0.0,0.0,0.0,0.0,0.0,0.0,0.0,0.0,0.0,0.0,0.0,0.0,0.0,0.0,0.0,0.0,0.0,0.0,0.0,0.0,0.0,0.0,0.0,0.0,0.0,0.0,0.0,0.0,0.0,0.0,0.0,0.0,0.0,0.0,0.0,0.0,0.0,0.0,0.0,0.0,0.0,0.0,0.0,0.0,0.0,0.0,0.0,0.0,0.0,0.0,0.0,0.0,0.0,0.0,0.0,0.0,0.0,0.0,0.0,0.0,0.0,0.0,0.0,0.0,0.0,0.0,0.0,0.0,0.0,0.0,0.0,0.0,0.0,0.0,0.0,0.0,0.0,0.0,0.0,0.0,0.0,0.0,0.0,0.0,0.0,0.0,0.0,0.0,0.0,0.0,0.0,0.0,0.0,0.0,0.0,0.0,0.0,0.0,0.0,0.0,0.0,0.0,0.0,0.0,0.0,0.0,0.0,0.0,0.0,0.0,0.0,0.0,0.0,0.0,0.0,0.0,0.0,0.0,0.0,0.0,0.0,0.0,0.0,0.0,0.0,0.0,0.0,0.0,0.0,0.0,0.0,0.0,0.0,0.0,0.0,0.0,0.0,0.0,0.0,0.0,0.0,0.0,0.0,0.0,0.0,0.0,0.0,0.0,0.0,0.0,0.0,0.0,0.0,0.0,0.0,0.0,0.0,0.0,0.0,0.0,0.0,0.0,0.0,0.0,0.0,0.0,0.0,0.0,0.0,0.0,0.0,0.0,0.0,0.0,0.0,0.0,0.0,0.0,0.0,0.0,0.0,0.0,0.0,0.0,0.0,0.0,0.0,0.0,0.0,0.0,0.0,0.0,0.0,0.0,0.0,0.0,0.0,0.0,0.0,0.0,0.0,0.0,0.0,0.0,0.0,0.0,0.0,0.0,0.0,0.0,0.0,0.0,0.0,0.0,0.0,0.0,0.0,0.0,0.0,0.0,0.0,0.0,0.0,0.0,0.0,0.0,0.0,0.0,0.0,0.0,0.0,0.0,1.9601,0.0,0.0,0.0,0.0,0.0,0.0,0.0,0.0,0.0,0.0,0.0,0.0,0.0,0.0,0.0,0.0,0.0,0.0,0.0,0.0,0.0,0.0,0.0,0.0,0.0,0.0,0.0,0.0,0.0,0.0,0.0,0.0,0.0,0.0,0.0,0.0,0.0,0.0,0.0,0.0,0.0,0.0,0.0,0.0,0.0,0.0,0.0,0.0,0.0,0.0,0.0,0.0,0.0,0.0,0.0,0.0,0.0,0.0,0.0,0.0,0.0,0.0,0.0,0.0,0.0,0.0,0.0,0.0,0.0,0.0,0.0,0.0,0.0,0.0,0.0,0.0,0.0,0.0,0.0,0.0,0.0,0.0,0.0,0.0,0.0,0.0,0.0,0.0,0.0,0.0,0.0,0.0,0.0,0.0,0.0,0.0,0.0,0.0,0.0,0.0,0.0,0.0,0.0,0.0,0.0,0.0,0.0,0.0,0.0,0.0,0.0,0.0,0.0,0.0,0.0,0.0,2.362,0.0,0.0,0.0,0.0,0.0,0.0,0.0,0.0,0.0,0.0,0.0,0.0,0.0,0.0,0.0,0.0,0.0,0.0,0.0,0.0,0.0,0.0,0.0,0.0,0.0,0.0,0.0,0.0,0.0,0.0,0.0,0.0,0.0,0.0,0.0,0.0,0.0,0.0,0.0,0.0,0.0,0.0,0.0,0.0,0.0,0.0,0.0,0.0,0.0,0.0,0.0,0.0,0.0,0.0,0.0,0.0,0.0,0.0,0.0,0.0,0.0,0.0,0.0,0.0,0.0,0.0,0.0,0.0,0.0,0.0,0.0,0.0,0.0,0.0,0.0,0.0,0.0,0.0,0.0,0.0,0.0,0.0,0.0,0.0,0.0,0.0,0.0,0.0,0.0,0.0,0.0,0.0,0.0,0.0,0.0,0.0,0.0,0.0,0.0,0.0,0.0,0.0,0.0,0.0,0.0,0.0,0.0,0.0,0.0,0.0,2.9949,2.9949,3.1991,3.5277,3.1557,3.16,3.4372,0.0,0.0,0.0,0.0,0.0,0.0,0.0,0.0,0.0,0.0,0.0,0.0,0.0,0.0,0.0,0.0,0.0,0.0,0.0,0.0,0.0,0.0,0.0,0.0,0.0,0.0,0.0,0.0,0.0,0.0,0.0,0.0,0.0,0.0,0.0,0.0,0.0,0.0,0.0,3.7297,3.6379,3.5883,3.521,2.1026,0.0,0.0,0.0,0.0,0.0,0.0,0.0,0.0,0.0,0.0,0.0,0.0,0.0,0.0,0.0,0.0,0.0,0.0,0.0,0.0,0.0,0.0,0.0,0.0,0.0,0.0,0.0,0.0,0.0,0.0,0.0,0.0,0.0,0.0,0.0,0.0,0.0,0.0,0.0,0.0,0.0,0.0,0.0,3.4641,3.974,0.0,0.0,0.0,0.0,0.0,0.0,0.0,0.0,0.0,0.0,0.0,0.0,0.0,0.0,3.6202,3.7315,3.7825,3.7825,3.8838,3.933,3.9325,3.9318,3.9637,4.0174,3.9572,0.0,3.4604,3.8581,0.0,0.0,0.0,0.0,0.0,0.0,0.0,0.0,0.0,0.0,0.0,0.0,0.0,0.0,0.0,0.0,0.0,0.0,0.0,0.0,0.0,0.0,0.0,0.0,0.0,0.0,0.0,0.0,0.0,0.0,0.0,0.0,0.0,0.0,0.0,0.0,2.3407,3.5055,4.0656,4.0333,4.0284,4.0123,3.2748,3.1269,3.3878,2.6216,0.0,0.0,0.0,0.0,0.0,0.0,0.0,0.0,0.0,0.0,0.0,0.0,0.0,0.0,0.0,0.0,0.0,0.0,0.0,0.0,0.0,0.0,0.0,0.0,0.0,0.0,0.0,0.0,0.0,0.0,0.0,0.0,0.0,0.0,0.0,0.0,0.0,0.0,0.0,2.0032,3.0905,3.7264,3.7995,3.6593,0.0,0.0,0.0,0.0,0.0,0.0,0.0,0.0,0.0,3.2781,3.3165,3.5717,4.1043,4.1099,4.1103,4.1108,4.1105,4.1362,4.1836,4.1832,4.2104,4.2554,4.2554,4.1432,3.9655,4.0688,3.9945,3.8363,0.0,0.0,0.0,0.0,0.0,0.0,0.0,0.0,0.0,0.0,0.0,0.0,0.0,0.0,0.0,0.0,0.0,0.0,0.0,0.0,0.0,3.8326,0.0,0.0,0.0,0.0,0.0,0.0,0.0,0.0,0.0,0.0,0.0,2.6565,3.6112,4.1047,4.1532,4.1661,4.1759,4.1807,4.1279,3.9978,3.7533,2.7329,2.6183,0.0,0.0,0.0,0.0,0.0,0.0,0.0,0.0,0.0,0.0,0.0,0.0,0.0,0.0,0.0,0.0,0.0,0.0,0.0,0.0,0.0,0.0,0.0,0.0,0.0,0.0,0.0,0.0,0.0,0.0,0.0,0.0,0.0,0.0,0.0,0.0,0.0,0.0,1.8958,2.7559,3.6072,3.6993,3.6154,0.0,0.0,0.0,0.0,0.0,0.0,2.7123,2.7618,3.1768,4.0801,4.1328,4.1425,4.142,4.1654,4.1771,4.1771,4.1771,4.2092,4.2729,4.2734,4.3086,4.3691,4.3691,4.3691,4.3608,4.2304,4.1775,4.1767,4.1772,4.164,0.0,4.1425,4.1289,4.1074,0.0,0.0,0.0,0.0,0.0,0.0,0.0,0.0,0.0,0.0,0.0,0.0,0.0,0.0,3.8416,3.8483,3.977,3.8491,0.0,0.0,0.0,0.0,0.0,0.0,0.0,0.0,0.0,4.029,4.1895,4.2678,4.2717,4.2471,4.249,4.2713,4.2155,4.113,3.9643,3.758,3.3279,2.76,0.0,0.0,0.0,0.0,0.0,0.0,0.0,0.0,0.0,0.0,0.0,0.0,0.0,0.0,0.0,0.0,0.0,0.0,0.0,0.0,0.0,0.0,0.0,0.0,0.0,0.0,0.0,0.0,0.0,0.0,0.0,0.0,0.0,0.0,0.0,0.0,0.0,0.0,0.0,3.9847,4.0666,0.0,0.0,0.0,0.0,2.8915,3.5069,3.9447,4.0054,4.0153,4.0467,4.1084,4.1904,4.2329,4.2337,4.3157,4.3567,4.3567,4.3567,4.3587,4.3629,4.3629,4.3668,4.3707,4.3707,4.3707,4.3687,4.3608,4.3567,4.357,4.3567,4.3065,4.2324,4.2331,4.181,4.1113,0.0,0.0,0.0,0.0,0.0,0.0,0.0,0.0,0.0,0.0,0.0,0.0,0.0,3.8788,4.0045,4.0045,4.0535,3.9988,3.801,0.0,0.0,0.0,0.0,0.0,0.0,0.0,3.8202,4.2256,4.2621,4.298,4.3327,4.3395,4.3574,4.3806,4.3265,4.2655,4.1952,4.0903,3.8438,3.487,3.1272,2.5674,0.0,0.0,0.0,0.0,0.0,0.0,0.0,0.0,0.0,0.0,0.0,0.0,0.0,0.0,0.0,0.0,0.0,0.0,0.0,0.0,0.0,0.0,0.0,0.0,0.0,0.0,0.0,0.0,0.0,0.0,0.0,0.0,0.0,0.0,0.0,0.0,0.0,3.6536,3.9511,0.0,0.0,3.9295,3.9715,3.6779,3.9321,4.1231,4.1746,4.1746,4.2041,4.2683,4.2971,4.3141,4.3232,4.3548,4.3704,4.3704,4.3704,4.3997,4.4543,4.4543,4.4836,4.5363,4.5363,4.5363,4.5363,4.5372,4.4708,4.3707,4.3693,4.3503,4.3232,4.3238,4.3044,4.2789,0.0,0.0,0.0,0.0,0.0,0.0,0.0,0.0,0.0,0.0,0.0,3.4032,3.8118,3.9966,4.0889,4.0889,4.089,4.0871,4.0818,0.0,0.0,0.0,0.0,0.0,0.0,4.3366,4.3476,4.3195,4.3501,4.3819,4.4182,4.4357,4.4538,4.4701,4.4322,4.4071,4.3876,4.3347,4.2033,3.9965,3.6515,3.2352,2.7641,0.0,0.0,0.0,0.0,0.0,0.0,0.0,0.0,0.0,0.0,0.0,0.0,0.0,0.0,0.0,0.0,0.0,0.0,0.0,0.0,0.0,0.0,0.0,0.0,0.0,0.0,0.0,0.0,0.0,0.0,0.0,0.0,0.0,0.0,0.0,2.7723,3.6347,3.9444,4.0882,4.0952,4.1179,4.1295,4.1208,4.1565,4.2004,4.2539,4.2549,4.2841,4.35,4.3695,4.3802,4.3902,4.4221,4.4312,4.4203,4.4456,4.482,4.5234,4.5391,4.5753,4.63,4.63,4.63,4.63,4.63,4.5617,4.4582,4.4582,4.4406,4.4136,4.4145,4.3958,4.3708,0.0,0.0,0.0,0.0,0.0,0.0,0.0,0.0,0.0,0.0,3.0994,3.7185,3.9477,4.043,4.0907,4.0907,4.0907,4.0921,4.0984,3.9682,0.0,0.0,0.0,0.0,4.3001,4.4307,4.4684,4.4055,4.4895,4.5297,4.5297,4.5297,4.5297,4.5297,4.5297,4.5297,4.5297,4.5297,4.4069,4.2031,4.1353,3.8041,3.3353,0.0,0.0,0.0,0.0,0.0,0.0,0.0,0.0,0.0,0.0,0.0,0.0,0.0,0.0,0.0,0.0,0.0,0.0,0.0,0.0,0.0,0.0,0.0,0.0,0.0,0.0,0.0,0.0,0.0,0.0,0.0,0.0,0.0,2.8603,2.9113,3.1863,3.9987,4.0869,4.0889,4.0974,4.1637,4.2063,4.2047,4.2821,4.3305,4.3344,4.34,4.3458,4.3471,4.4047,4.4344,4.4341,4.5262,4.5551,4.5201,4.5924,4.6066,4.5705,4.6098,4.6296,4.63,4.63,4.63,4.63,4.63,4.63,4.63,4.63,4.5773,4.5034,4.5037,4.4512,4.3789,0.0,0.0,0.0,0.0,0.0,0.0,0.0,0.0,0.0,0.0,2.9037,3.4315,3.9637,4.0629,4.0907,4.0907,4.0907,4.0894,4.0857,0.0,0.0,0.0,0.0,0.0,4.4839,4.5073,4.514,4.4934,4.5182,4.5297,4.5297,4.5297,4.5297,4.5297,4.5297,4.5297,4.5297,4.5297,4.4808,4.3979,4.3196,4.1166,3.8175,0.0,0.0,0.0,0.0,0.0,0.0,0.0,0.0,0.0,0.0,0.0,0.0,0.0,0.0,0.0,0.0,0.0,0.0,0.0,0.0,0.0,0.0,0.0,0.0,0.0,0.0,0.0,0.0,0.0,0.0,0.0,0.0,2.918,3.6417,3.7262,3.8289,4.1388,4.1795,4.208,4.2727,4.3003,4.3099,4.295,4.3221,4.3627,4.4207,4.4181,4.4485,4.5257,4.5396,4.5402,4.5228,4.5794,4.5772,4.5201,4.5662,4.5765,4.5557,4.5775,4.5959,4.615,4.6269,4.63,4.63,4.63,4.63,4.63,4.63,4.615,4.5946,4.5944,4.5795,4.5586,0.0,0.0,0.0,0.0,0.0,0.0,0.0,0.0,0.0,0.0,2.9495,3.4636,4.0057,4.0808,4.0907,4.0907,4.0932,4.0928,4.0886,0.0,0.0,0.0,0.0,4.4615,4.553,4.538,4.5297,4.5297,4.5173,4.5173,4.5297,4.5148,4.5167,4.5297,4.5297,4.5297,4.5297,4.5297,4.513,4.4768,4.445,4.341,4.1687,3.8645,3.6139,3.3778,3.0169,2.714,2.442,2.1146,0.0,0.0,0.0,0.0,0.0,0.0,0.0,0.0,0.0,0.0,0.0,0.0,0.0,0.0,0.0,0.0,0.0,0.0,0.0,0.0,0.0,0.0,0.0,0.0,2.6156,3.6245,4.0866,4.1485,4.1716,4.2466,4.2694,4.2952,4.3412,4.386,4.4029,4.3834,4.4194,4.4653,4.5067,4.5046,4.5452,4.6429,4.6288,4.631,4.6549,4.6876,4.6758,4.6205,4.6732,4.6804,4.6426,4.6824,4.6984,0.0,4.7245,4.7354,4.7354,4.7354,4.7159,0.0,0.0,0.0,0.0,0.0,4.6248,4.6173,0.0,0.0,0.0,0.0,0.0,0.0,0.0,0.0,0.0,0.0,0.0,3.6844,4.0583,4.0942,4.0917,4.0907,4.0967,4.1042,0.0,0.0,0.0,4.1665,4.413,4.5543,4.5512,4.538,4.5297,4.5297,4.4981,4.4981,4.5235,4.4986,4.4991,4.5239,4.5277,4.5297,4.5297,4.5275,4.5038,4.4795,4.509,4.4726,4.397,4.3558,4.125,3.8081,3.7337,3.5226,3.1995,2.6868,0.0,0.0,0.0,0.0,0.0,0.0,0.0,0.0,0.0,0.0,0.0,0.0,0.0,0.0,0.0,0.0,0.0,0.0,0.0,0.0,0.0,0.0,0.0,0.0,3.4107,4.2553,4.2981,4.3139,4.3236,4.3332,4.3553,4.3721,4.3703,4.4462,4.4918,4.4843,4.5607,4.6066,4.6104,0.0,0.0,0.0,0.0,4.7165,4.7934,4.8156,4.8044,4.7625,4.8379,4.8388,4.7776,4.8437,4.8572,4.8269,4.8658,4.8818,4.8818,4.8818,4.8388,4.7647,4.6671,4.6297,4.6269,4.6261,4.6127,0.0,0.0,0.0,0.0,0.0,0.0,0.0,0.0,0.0,0.0,2.4973,3.2345,3.7887,4.0681,4.0983,4.0964,4.0897,4.0953,4.1306,0.0,0.0,4.2954,4.4059,4.4469,4.4978,4.5648,4.5419,4.5297,4.5297,4.5235,4.5109,4.4891,4.5106,4.508,4.4894,4.5182,4.5297,4.5297,4.501,4.4734,4.4483,4.456,4.4341,4.4021,4.4153,4.343,4.2232,4.1451,4.0356,3.8912,3.6474,3.293,2.9102,2.616,0.0,0.0,0.0,0.0,0.0,0.0,0.0,0.0,0.0,0.0,0.0,0.0,0.0,0.0,0.0,0.0,0.0,0.0,0.0,0.0,2.8535,3.7244,4.3347,4.4275,4.4844,4.4944,4.433,4.4333,4.4715,4.551,4.5783,4.6203,4.6872,4.6984,4.7327,4.8015,4.7902,0.0,4.8217,4.8168,4.8137,4.8141,4.8493,4.835,4.7681,0.0,0.0,4.8026,4.8281,4.8462,4.8612,4.8794,4.8876,4.8876,4.8876,4.8798,4.849,4.6905,4.6195,4.6052,4.6052,4.5911,4.5677,0.0,0.0,0.0,0.0,0.0,0.0,0.0,0.0,0.0,0.0,3.0177,3.5156,3.9663,4.0309,4.0383,4.035,4.0565,0.0,0.0,4.226,4.3187,4.4059,4.4737,4.5332,4.5791,4.5549,4.54,4.54,4.5151,4.5038,4.5045,4.5043,4.5057,4.5067,4.522,4.5213,4.5045,4.5038,4.4712,4.4251,4.4655,4.4393,4.3784,4.4067,4.3905,4.3442,4.3039,4.2647,4.2047,4.0415,3.8146,3.5794,3.4297,2.9221,2.1829,0.0,0.0,0.0,0.0,0.0,0.0,0.0,0.0,0.0,0.0,0.0,0.0,0.0,0.0,0.4303,0.0,0.0,2.7711,3.638,4.1172,4.4022,4.4694,4.5264,4.5478,4.5143,4.5629,4.6197,4.6671,4.7164,4.76,4.7965,4.7979,4.8138,4.8535,4.8496,4.8667,4.918,4.9193,4.9349,4.9707,4.992,4.9858,4.9498,4.975,4.9708,4.9459,4.9741,4.9798,4.9769,5.0043,5.0158,5.0103,4.9648,4.933,4.9031,4.781,4.7307,4.7226,4.7106,4.6889,4.6646,0.0,0.0,0.0,0.0,0.0,0.0,0.0,0.0,0.0,0.0,2.742,3.1803,3.7919,3.8853,3.9179,0.0,0.0,0.0,4.0418,4.2284,4.3412,4.3402,4.4938,4.5827,4.5893,4.5651,4.5495,4.5495,4.5106,4.501,4.5213,4.4978,4.5003,4.5213,4.5256,4.5151,4.491,4.5065,4.4714,4.4121,4.4714,4.4374,4.3513,4.3814,4.3749,4.3497,4.3497,4.341,4.3032,4.1761,4.1207,4.0736,3.9066,3.754,3.3632,1.9708,1.5516,0.0,0.0,0.0,0.0,0.0,0.0,0.0,0.0,0.0,-0.1822,0.2808,0.7985,1.4014,2.165,2.7901,3.4579,4.2687,4.4221,4.4549,4.4978,4.5472,4.5873,4.6163,4.6883,4.7405,4.7563,4.8263,4.8723,4.881,4.8837,4.8914,4.9039,4.9077,4.9417,5.0162,5.017,5.0504,5.1226,5.1284,5.1323,5.1323,5.1366,5.1226,5.0933,5.1242,5.121,5.0875,5.1146,5.1267,5.1206,5.0451,4.9955,4.9593,4.8987,4.8794,4.8764,4.823,4.7863,4.7519,0.0,0.0,0.0,0.0,0.0,0.0,0.0,0.0,0.0,0.0,0.0,0.0,0.0,0.0,0.0,0.0,0.0,3.9986,4.0455,4.2312,4.3404,4.3391,4.4938,4.5827,4.5893,4.5651,4.5495,4.5495,4.5339,4.5109,4.4868,4.5106,4.5106,4.4868,4.5173,4.5297,4.5213,4.4695,4.4438,4.4318,4.3886,4.3631,4.3532,4.3615,4.3582,4.3497,4.3497,4.2995,4.232,4.2149,4.1542,4.0949,4.1021,4.1253,3.8597,2.4455,0.0,1.2286,-1.4117,-1.5857,-0.5293,1.527,1.9049,2.0421,0.0,0.0,2.4591,2.9766,3.2432,3.4439,3.6423,3.886,4.1341,4.3615,4.4221,4.4756,4.5799,4.6416,4.7034,4.7822,4.7453,4.7505,4.844,4.8649,4.9034,4.9869,4.9867,5.0186,5.0959,5.0889,5.0914,5.1154,5.1083,5.1166,5.1385,5.1385,5.1385,5.1385,5.1406,5.1386,5.1328,5.138,5.1266,5.1056,5.0855,5.0783,5.0778,5.0656,5.06,5.0527,5.0212,5.0081,4.9925,4.8401,4.7483,4.6985,0.0,0.0,0.0,0.0,0.0,0.0,0.0,0.0,0.0,0.0,0.0,0.0,0.0,0.0,0.0,0.0,3.8467,3.9614,4.013,4.1724,4.2877,4.3388,4.4536,4.5415,4.5956,4.5805,4.568,4.5618,4.5477,4.5335,4.5201,4.5258,4.5258,4.5201,4.5258,4.5194,4.5,4.4953,4.4636,4.4162,4.4213,4.3962,4.3513,4.3795,4.3612,4.316,4.2701,4.2318,0.0,4.142,4.1198,4.1171,4.1569,4.0804,3.6814,2.2074,1.7062,0.0,0.4106,0.0917,0.5254,0.0,2.8125,2.7695,3.3631,3.1556,2.9914,3.5075,3.6961,3.8091,3.9478,4.0711,4.1984,0.0,4.4662,4.5413,4.5851,4.6887,4.794,4.8851,4.8748,4.8826,4.934,4.9892,5.0335,5.0664,5.0686,5.1076,5.1943,5.1986,5.2232,5.2796,5.283,5.2861,5.291,5.291,5.291,5.291,5.291,5.2916,5.2893,5.2749,5.2257,5.1532,5.0941,5.0596,5.0478,5.0579,5.0387,4.9944,4.9909,4.9711,4.9352,4.8897,4.8352,4.7774,0.0,0.0,0.0,0.0,0.0,0.0,0.0,0.0,0.0,0.0,0.0,0.0,0.0,0.0,0.0,0.0,3.686,3.8524,3.9011,4.0947,4.2479,4.3346,4.423,4.5115,4.5972,4.5932,4.5819,4.57,4.5572,4.5495,4.5438,4.5359,4.5339,4.5438,4.5339,4.5173,4.4957,4.5109,4.4764,4.4151,4.4457,4.4143,4.3532,4.3744,4.3353,4.24,4.0493,3.8099,3.5819,3.6025,3.2998,2.9614,3.2529,3.0525,2.4487,1.1308,0.5694,0.5228,1.2205,1.1077,0.0,3.0499,3.3397,3.2359,3.4283,3.3071,3.2591,3.6275,3.7716,3.8706,4.0065,4.1016,4.2154,4.4007,4.5209,4.612,4.6613,4.778,4.8908,4.9823,5.0063,5.0274,5.0607,5.1269,5.1625,5.1554,5.1815,5.2245,5.2882,5.2932,5.326,5.391,5.396,5.3984,5.4004,5.4004,5.4008,5.4009,5.3931,5.3894,5.3875,5.3554,5.2949,5.2123,5.1451,5.1063,5.0854,5.0684,5.0166,4.9495,4.9401,4.8954,4.8402,4.876,4.8635,4.8182,0.0,0.0,0.0,0.0,0.0,0.0,0.0,0.0,0.0,0.0,0.0,0.0,0.0,0.0,0.0,3.1605,3.4356,3.631,3.6863,4.0102,4.2415,4.3358,4.4234,4.5118,4.5972,4.5932,4.5819,4.57,4.5566,4.5419,4.5317,4.5297,4.5297,4.5317,4.5297,4.5297,4.5256,4.4957,4.465,4.4374,4.4121,4.3795,4.3479,4.3304,4.2641,4.1184,3.6348,2.8592,2.1077,0.0,1.3189,0.0306,0.93,0.6508,0.0,-0.984,-1.7814,-1.9983,-0.1697,0.0,1.0081,2.8889,3.5377,3.7219,3.7251,3.7322,3.7408,3.7515,3.8488,3.948,4.0279,4.1695,4.336,4.5245,4.5808,4.6666,4.8642,4.94,5.0064,5.094,5.1171,5.16,0.0,5.2534,5.2596,5.2654,5.3437,5.3926,5.394,5.3886,5.3906,5.3994,5.3945,5.3921,5.4004,5.4004,5.3993,5.3983,5.3736,5.3602,5.3581,5.3061,5.2807,5.275,5.2475,5.2343,5.2257,5.1073,5.0287,4.9724,4.9092,4.82,4.7288,4.7469,4.7542,4.7542,0.0,0.0,0.0,0.0,0.0,0.0,0.0,0.0,0.0,0.0,0.0,0.0,0.0,0.0,0.0,0.0,0.0,3.4497,3.64,3.7996,3.9895,4.2178,4.3276,4.4242,4.5118,4.5689,4.5932,4.5819,4.5791,4.5746,4.57,4.5618,4.5566,4.5566,4.5476,4.538,4.5297,4.5173,4.4862,4.4383,4.4289,4.3949,4.3391,4.2497,3.6255,2.715,0.0,1.8372,1.7133,0.0,0.0,0.0,0.1892,-0.0167,-0.6478,-1.8992,-2.3257,-2.0438,-0.4346,0.0,1.8138,3.4376,3.8335,3.839,3.881,3.8613,3.8486,3.892,3.1318,2.5114,2.6817,2.7336,2.8347,3.1025,4.0402,4.7742,4.8968,4.994,5.0669,5.1057,5.1652,0.0,0.0,0.0,0.0,5.3455,5.3806,5.4215,5.4705,5.4784,5.5072,5.564,5.5677,5.5692,5.5726,5.5736,5.5726,5.5715,5.5171,5.4568,5.3907,5.3181,5.2731,5.2498,5.1881,5.16,5.1548,5.0731,5.0359,5.0188,4.8707,4.7991,4.768,4.686,4.6336,4.6046,0.0,0.0,0.0,0.0,0.0,0.0,0.0,0.0,0.0,0.0,0.0,0.0,0.0,0.0,0.0,0.0,0.0,0.0,3.1568,3.4157,3.6612,3.8857,4.1258,4.2945,4.3823,4.4817,4.5366,4.5436,4.5577,4.5705,4.5835,4.5723,4.5665,4.568,4.5566,4.5438,4.536,4.5338,4.4976,4.4392,4.3901,4.3351,4.2372,3.8442,2.9789,0.0,0.5992,0.1983,0.1253,0.0,-1.317,-1.7451,-1.356,-1.5716,-2.0474,-2.4438,-2.2929,-1.6121,0.1506,1.3854,2.4747,3.7032,3.9441,3.8641,3.8035,3.7818,3.7919,3.864,2.6848,1.7332,2.0364,2.0891,2.1701,2.4335,3.8086,4.8736,4.9577,5.0457,5.1055,5.1166,5.1945,0.0,0.0,0.0,0.0,5.4354,5.4735,5.5143,5.5604,5.5712,5.5993,5.6518,5.6579,5.6606,5.6606,5.6598,5.6407,5.5976,5.5592,5.4904,5.3872,5.3394,5.3047,5.2847,5.2308,5.2085,5.2011,5.1198,5.0725,5.0312,4.8872,4.8006,4.7541,4.688,4.6117,4.5449,0.0,0.0,0.0,0.0,0.0,0.0,0.0,0.0,0.0,0.0,0.0,0.0,0.0,0.0,0.0,0.0,0.0,0.0,2.3147,2.8769,3.2559,3.3534,3.8026,4.0936,4.1807,4.3137,4.4021,4.4436,4.4901,4.5314,4.5647,4.5631,4.5661,4.5692,4.5565,4.5513,4.5495,4.536,4.4877,4.4121,4.2776,4.1659,3.987,3.1453,2.3188,1.3499,-0.6646,-1.8739,0.0,0.0,0.0,-4.2341,-3.3746,-3.6562,-4.0162,-2.5406,-1.6875,-0.7525,1.4202,2.3956,2.9728,3.6942,3.8891,3.8307,3.5522,3.5508,3.6052,3.6096,2.4324,1.5164,0.0,0.0,2.2372,2.4206,3.8424,4.9553,5.0485,5.0947,5.123,0.0,0.0,0.0,0.0,0.0,0.0,5.5357,0.0,5.6606,5.6606,5.6606,5.6606,5.6606,5.6606,5.6606,5.6606,5.6606,5.6025,5.4876,5.5007,5.4478,5.3431,5.3549,5.3587,5.3587,5.3549,5.3473,5.3302,5.222,5.1049,4.9919,4.9284,4.8084,4.6727,4.7164,4.655,4.5486,0.0,0.0,0.0,0.0,0.0,0.0,0.0,0.0,0.0,0.0,0.0,0.0,0.0,0.0,0.0,0.0,0.0,0.0,2.2285,2.4259,2.6169,2.7955,3.1841,3.4393,3.5346,3.8471,4.0756,4.2129,4.3438,4.441,4.5034,4.5683,4.5924,4.5852,4.5751,4.5669,4.5558,4.5281,4.3437,4.0653,4.0068,3.5889,2.9549,2.6291,1.2482,-0.6027,-1.2525,-2.1443,0.0,0.0,0.0,0.0,0.0,-0.9765,-1.057,-0.6945,0.2397,1.2765,1.8306,2.8549,3.8003,3.9377,4.0283,3.9912,3.6616,3.635,3.3873,2.3427,0.9351,-0.3012,0.0,0.0,0.0,0.9285,3.2146,0.0,5.0772,5.1074,0.0,0.0,0.0,5.3908,5.4787,5.5665,0.0,0.0,5.6445,5.6606,5.6606,5.6606,5.6606,5.6606,5.6606,5.6606,5.6606,5.6606,5.5882,5.4471,5.45,5.385,5.2608,5.2054,5.1838,5.1898,5.1337,5.04,4.9249,4.9806,4.8867,4.6974,4.6645,4.5958,4.508,4.4163,4.3456,4.2926,0.0,0.0,0.0,0.0,0.0,0.0,0.0,0.0,0.0,0.0,0.0,0.0,0.0,0.0,0.0,0.0,0.0,0.0,0.0,1.9599,2.1279,2.2561,2.6476,2.8967,2.9587,3.3658,3.6319,3.7537,4.029,4.2213,4.3313,4.3923,4.445,4.4885,4.4787,4.4621,4.4399,4.4145,4.1989,0.0,0.0,3.2573,2.465,2.0107,0.496,-1.4389,-1.8326,-2.0216,0.0,0.0,0.0,-0.3097,-0.1129,-0.0335,0.1135,0.7553,0.0,2.1434,2.787,3.531,4.1024,4.0353,4.1103,3.9232,2.8752,2.7018,2.3584,0.9239,-0.5585,0.0,0.0,0.0,0.0,0.0,0.0,0.0,4.9679,4.9913,5.06,0.0,5.3302,0.0,5.5116,5.5981,5.6503,0.0,5.6523,5.6572,5.6606,5.6563,5.6563,5.6606,5.6606,5.6606,5.6606,5.6606,5.5663,5.3841,5.4497,5.3578,5.1312,5.1658,5.1446,5.0823,0.0,4.9729,4.8865,4.9526,4.8388,4.6303,4.6139,4.5314,4.3972,4.3256,4.2582,4.2071,0.0,0.0,0.0,0.0,0.0,0.0,0.0,0.0,0.0,0.0,0.0,0.0,0.0,0.0,0.0,0.0,0.0,0.0,0.0,0.0,0.0,1.6809,2.0889,2.3502,2.4195,2.8393,3.1121,3.2257,3.6103,3.9034,4.1011,4.1517,4.2337,4.3379,4.3395,4.3248,4.2979,4.2794,4.0603,3.7095,3.5803,2.9967,2.11,0.0,0.0,0.0,-2.3953,0.0,0.0,0.0,0.7235,0.4484,0.4932,0.5068,0.7641,2.0859,2.3702,2.5413,3.8564,4.1626,4.0932,4.0423,4.1436,3.7548,1.8221,1.4812,1.1074,-0.537,0.0,-2.6855,-2.4221,-1.1766,-0.1358,0.0217,0.0,4.3755,4.6648,4.7695,4.9213,5.2,5.306,5.405,5.5266,5.6051,5.6488,5.6496,5.651,5.653,5.6582,5.6504,5.6508,5.6606,5.6606,5.6606,5.6606,5.6606,5.5553,5.349,5.4824,5.3746,5.0611,5.1835,5.1665,5.036,0.0,0.0,4.9608,4.9792,4.85,4.6413,4.6647,4.5389,4.3533,4.3533,4.2939,4.2121,0.0,0.0,0.0,0.0,0.0,0.0,0.0,0.0,0.0,0.0,0.0178,-0.0444,0.0,0.0,0.0,0.0,0.0,0.0,0.0,0.0,0.0,0.0,1.202,1.5139,1.8352,0.0,0.0,0.0,0.0,3.4941,3.8958,4.0737,4.1788,4.2218,4.3097,4.3447,4.3362,4.3015,3.9245,3.3494,3.3031,2.3963,1.053,0.0,0.0,0.0,0.0,0.0,0.0,0.7794,2.0327,3.1655,3.5248,3.6029,3.617,3.8792,3.8581,3.8051,4.0657,4.0948,4.0429,4.0261,4.107,3.7051,1.8329,1.5569,0.0,0.0,-2.5132,-2.9042,-3.7655,-2.6503,-1.3609,-0.6217,0.0,0.0,0.0,0.0,4.8138,0.0,0.0,0.0,0.0,0.0,0.0,0.0,0.0,0.0,5.6528,5.6403,5.6424,5.6586,5.6606,5.6606,5.6606,5.6606,5.6037,5.4939,5.5214,5.4722,5.3497,5.2018,5.1284,5.1,0.0,0.0,4.6415,4.7835,4.6686,4.4291,4.573,4.5388,4.4173,4.4173,4.2925,4.1324,0.0,0.0,0.0,0.0,0.0,0.0,0.0,-0.5919,-0.5027,-0.3229,-0.2147,-0.2231,-0.4011,-0.053,0.0,0.0,0.0,0.0,0.0,0.0,0.0,0.0,0.0,0.0,0.0,0.0,0.0,0.0,0.0,0.0,0.0,0.0,0.0,0.0,0.0,0.0,0.0,4.1726,3.8842,0.0,0.0,0.0,0.0,0.0,0.0,0.0,0.0,0.0,0.0,-0.0175,1.4914,3.0274,4.0904,4.3804,4.3259,4.2957,4.1859,4.0718,4.0718,4.0302,3.9935,4.0234,4.1273,3.5611,1.0196,0.0,0.0,0.0,-3.704,-3.7985,-4.2752,-3.1492,0.0,0.0,0.0,0.0,0.0,0.0,0.0,0.0,0.0,0.0,0.0,0.0,0.0,0.0,0.0,0.0,5.6484,5.6445,5.6451,5.6606,5.6606,5.6606,5.6606,5.6606,5.6007,5.4838,5.5605,5.5028,5.3232,5.3063,5.2557,5.1768,0.0,0.0,4.903,4.9111,4.7754,4.5664,4.5805,4.495,4.3593,4.3593,4.2877,4.2107,0.0,0.0,0.0,0.0,0.0,0.0,0.0,-0.6088,-0.5657,-0.5668,-0.4397,-0.3489,-0.3479,-0.2843,-0.1591,0.0,0.0,0.0,0.0,0.0,0.0,0.0,0.0,0.0,0.0,0.0,0.0,0.0,0.0,0.0,0.0,0.0,0.0,0.0,0.0,0.0,0.0,0.0,0.0,0.0,0.0,0.0,0.0,0.0,0.0,0.0,0.0,0.0,0.0,0.0,0.2246,1.6878,3.0567,3.8435,4.2408,4.1395,4.0513,3.9898,4.0014,3.9514,3.9212,4.0144,4.1238,3.3898,0.2698,-0.2981,0.0,0.0,-4.6354,-4.5578,-4.435,0.0,-2.6938,0.0,-0.5065,1.294,0.0,0.0,0.0,0.0,0.0,0.0,0.0,0.0,0.0,0.0,0.0,0.0,0.0,5.645,5.6533,5.6606,5.6606,5.6606,5.6606,5.6606,5.6024,5.4885,5.6043,5.5417,5.3243,5.4194,5.3939,5.2749,0.0,0.0,0.0,5.1053,4.9791,4.8522,4.7389,4.6093,4.4862,4.4566,4.4226,4.3874,0.0,0.0,0.0,0.0,0.0,0.0,0.0,-0.5733,-0.5738,-0.5657,-0.556,-0.5471,-0.5484,-0.5387,-0.5458,0.0,0.0,0.0,0.0,0.0,0.0,0.0,0.0,0.0,0.0,0.0,0.0,0.0,0.0,0.0,0.0,0.0,0.0,0.0,0.0,0.0,0.0,0.0,0.0,0.0,0.0,0.0,0.0,0.0,0.0,0.0,0.0,0.0,0.0,0.0,0.0,-0.2197,0.2785,2.0943,3.9887,3.742,0.0,0.0,3.9156,3.843,3.8025,3.9844,4.0123,3.2232,0.2673,0.0,0.0,-4.0228,-4.578,-4.5001,-4.4253,0.0,0.0,0.0,0.0,-1.0263,1.221,0.0,0.0,0.0,0.0,0.0,0.0,0.0,0.0,0.0,0.0,0.0,0.0,5.6249,5.6533,5.6606,5.6606,5.6606,5.6606,5.6606,5.6538,5.6405,5.6538,5.645,5.6164,5.4975,5.4341,5.4139,0.0,0.0,0.0,5.2156,5.201,5.1862,5.1712,5.1599,5.125,4.9937,4.847,4.6978,0.0,0.0,0.0,0.0,0.0,0.0,-0.6432,-0.5994,-0.5735,-0.5657,-0.5744,-0.6014,-0.6831,-0.5563,-0.5018,-0.6088,0.0,0.0,0.0,0.0,0.0,0.0,0.0,0.0,0.0,0.0,0.0,0.0,0.0,0.0,0.0,0.0,0.0,0.0,0.0,0.0,0.0,0.0,0.0,0.0,0.0,0.0,0.0,0.0,0.0,0.0,0.0,0.0,0.0,0.0,0.0,0.0,-1.1358,0.1292,0.0,0.0,2.9264,3.4125,3.7261,3.7519,3.7341,3.9277,3.7247,2.8046,0.2202,0.0,-1.4516,-4.1229,-4.6178,-4.5511,-4.4964,-4.4502,0.0,0.0,0.0,0.0,-0.7694,0.3281,1.7293,0.0,0.0,0.0,0.0,0.0,0.0,0.0,0.0,0.0,0.0,5.4699,5.5148,5.4918,5.4089,5.4081,5.4975,5.4982,5.3818,5.1587,5.4977,5.3054,4.6716,5.29,5.3281,0.0,0.0,0.0,0.0,5.2302,5.2588,5.3379,5.1448,5.1329,5.2228,5.1627,5.0994,5.0369,0.0,0.0,0.0,0.0,0.0,-0.6782,-0.6517,-0.5994,-0.5735,-0.5741,-0.5744,-0.5922,-0.6548,-0.5285,-0.4748,-0.566,-0.6352,0.0,0.0,0.0,0.0,0.0,0.0,0.0,0.0,0.0,0.0,0.0,0.0,0.0,0.0,0.0,0.0,0.0,0.0,0.0,0.0,0.0,0.0,0.0,0.0,0.0,0.0,0.0,0.0,0.0,0.0,0.0,0.0,0.0,0.0,0.0,0.0,-1.8215,-0.7541,0.0,1.8233,2.7081,3.0443,3.3848,3.694,3.8669,3.2989,2.1632,0.0,0.0,-2.0664,-4.2082,-4.5894,-4.5257,-4.4975,-4.4548,-4.4299,-4.439,-3.5904,-2.7055,-2.0675,-1.1072,0.4053,0.0,0.0,0.0,0.0,0.0,0.0,0.0,0.0,0.0,0.0,0.0,5.3261,5.3031,5.0953,5.0378,5.1415,5.0291,4.839,4.5768,4.974,4.7475,4.0087,4.8017,4.877,0.0,0.0,0.0,0.0,4.8606,4.8923,4.9971,4.8838,4.9173,5.0435,5.1674,5.2125,5.2139,0.0,0.0,0.0,0.0,0.0,0.0,-0.5822,-0.5733,-0.5733,-0.5733,-0.5733,-0.5196,-0.3937,-0.4924,-0.5652,-0.567,-0.6355,0.0,0.0,0.0,0.0,0.0,0.0,0.0,0.0,0.0,0.0,0.0,0.0,0.0,0.0,0.0,0.0,0.0,0.0,0.0,0.0,0.0,0.0,0.0,0.0,0.0,0.0,0.0,0.0,0.0,0.0,0.0,0.0,0.0,0.0,0.0,0.0,-3.7091,-2.7027,-1.1342,0.4602,1.7107,1.705,2.6542,3.6832,3.8103,2.7229,1.2624,0.0,0.0,-2.8316,-4.2583,-4.4425,-4.3666,-4.4044,-4.371,-4.3673,-4.4451,-4.3939,-3.789,-2.2106,-1.9271,0.0,0.0,0.0,0.0,0.0,0.0,0.0,0.0,0.0,0.0,0.0,0.0,5.1029,5.123,4.7543,4.5596,4.5579,4.1835,3.9943,3.9873,3.9927,3.9927,3.9802,3.9927,0.0,0.0,0.0,0.0,0.0,3.991,3.9931,4.033,4.4078,4.5541,4.6085,5.0199,5.1718,5.1765,0.0,0.0,0.0,0.0,0.0,0.0,0.0,-0.5819,-0.5908,-0.5733,-0.5744,-0.557,-0.5121,-0.5481,-0.5668,-0.5679,-0.6358,0.0,0.0,0.0,0.0,0.0,0.0,0.0,0.0,0.0,0.0,0.0,0.0,0.0,0.0,0.0,0.0,0.0,0.0,0.0,0.0,0.0,0.0,0.0,0.0,0.0,0.0,0.0,0.0,0.0,0.0,0.0,0.0,0.0,0.0,0.0,0.0,0.0,0.0,-3.318,-1.7761,0.0,0.1781,0.5439,0.8554,0.9521,0.3756,-0.4802,-1.4931,-2.3237,-3.1799,-4.2476,-4.4322,-4.3921,-4.3736,-4.3666,-4.3668,-4.3647,-4.382,-4.2328,0.0,0.0,0.0,0.0,0.0,0.0,0.0,0.0,0.0,0.0,0.0,0.0,0.0,0.0,4.9115,4.9292,4.4632,4.2652,4.3638,3.9864,3.6634,3.4117,3.796,3.5756,2.8592,0.0,0.0,0.0,0.0,0.0,0.0,3.797,4.0243,4.3707,4.3677,4.6028,4.9546,5.0859,5.214,5.3223,0.0,0.0,0.0,0.0,0.0,0.0,0.0,-0.5908,-0.5994,-0.5733,-0.5744,-0.566,-0.566,-0.566,-0.5665,-0.5673,-0.6097,0.0,0.0,0.0,0.0,0.0,0.0,0.0,0.0,0.0,0.0,0.0,0.0,0.0,0.0,0.0,0.0,0.0,0.0,0.0,0.0,0.0,0.0,0.0,0.0,0.0,-2.667,0.0,0.0,0.0,0.0,0.0,0.0,0.0,0.0,0.0,0.0,0.0,0.0,0.0,-3.3732,-2.159,-1.3607,-0.787,-0.4004,-0.3518,-0.9697,0.0,0.0,-2.987,-3.7392,-4.2972,-4.3518,-4.3061,-4.3267,-4.3235,-4.3206,-4.3331,-4.3669,-4.1972,-3.6338,0.0,0.0,0.0,0.0,0.0,0.0,0.0,0.0,0.0,0.0,0.0,0.0,0.0,4.7121,4.5306,4.0705,3.8048,3.7501,3.3705,3.0557,2.8252,3.177,2.9811,2.3247,0.0,0.0,0.0,0.0,0.0,0.0,3.1773,3.3815,3.7161,3.89,4.1736,4.5282,4.8875,5.133,5.2984,0.0,0.0,0.0,0.0,0.0,0.0,0.0,-0.5908,-0.5994,-0.5733,-0.5733,-0.5735,-0.5735,-0.5735,-0.5649,-0.5387,0.0,0.0,0.0,0.0,0.0,0.0,0.0,0.0,0.0,0.0,0.0,-0.776,-0.4498,-0.3246,-0.3762,0.0,0.0,0.0,0.0,0.0,0.0,0.0,0.0,0.0,0.0,0.0,0.0,0.0,0.0,0.0,0.0,0.0,0.0,0.0,0.0,0.0,0.0,0.0,0.0,0.0,0.0,0.0,0.0,-1.5897,-0.6128,-0.6134,0.0,0.0,0.0,-3.5026,0.0,-4.3764,-4.2343,-4.1562,-4.2749,-4.2543,-4.254,-4.341,-4.3293,-3.7642,-2.2016,0.0,0.0,0.0,0.0,0.0,0.0,0.0,0.0,0.0,0.0,0.0,0.0,0.0,0.0,0.0,3.6263,3.2553,2.8716,2.4876,2.3014,2.3014,2.3014,2.3014,2.3014,0.0,0.0,0.0,0.0,0.0,0.0,2.3311,2.3718,2.4876,3.2008,3.4969,3.6283,4.5062,4.9446,5.1264,0.0,0.0,0.0,0.0,0.0,0.0,0.0,0.0,0.0,0.0,-0.5738,-0.5657,-0.5665,-0.5665,-0.4851,0.0,0.0,0.0,0.0,0.0,0.0,0.0,0.0,0.0,0.0,0.0,0.0,-0.7058,-0.4754,-0.3674,-0.3498,0.2686,0.0,0.0,0.0,0.0,0.0,0.0,0.0,0.0,0.0,0.0,0.0,0.0,0.0,0.0,-4.4708,-4.4922,0.0,0.0,0.0,0.0,0.0,0.0,0.0,0.0,-4.316,-4.2573,-3.9448,0.0,-3.4713,-3.4658,-3.6832,-3.8941,0.0,0.0,0.0,0.0,0.0,-4.2855,-4.2793,-4.3214,-4.3435,-4.3124,-4.0039,-3.412,-2.3806,0.0,0.0,0.0,0.0,0.0,0.0,0.0,0.0,0.0,0.0,0.0,0.0,0.0,0.0,0.0,3.4877,3.2553,2.8716,2.4876,2.3014,2.3014,2.3014,2.3014,2.3014,0.0,0.0,0.0,0.0,0.0,0.0,2.6899,3.0389,3.6186,3.7584,4.0108,4.338,4.5633,4.7581,4.937,0.0,0.0,0.0,0.0,0.0,0.0,0.0,0.0,0.0,0.0,0.0,0.0,0.0,0.0,0.0,0.0,0.0,0.0,0.0,0.0,0.0,0.0,0.0,0.0,0.0,0.0,0.0,0.0,0.0,-0.624,0.0,0.0,0.0,0.0,0.0,0.0,0.0,0.0,0.0,0.0,0.0,0.0,0.0,0.0,0.0,0.0,-4.5014,-4.5197,0.0,-4.4224,-4.409,-4.409,0.0,0.0,0.0,0.0,-4.3338,-4.3123,-4.3104,-4.3416,-4.3701,-4.3661,-4.3424,-4.3167,-4.3122,-4.3538,0.0,0.0,0.0,-4.3738,-4.3882,-3.8267,-3.4924,-3.8933,-2.8125,-1.6416,0.0,0.0,0.0,0.0,0.0,0.0,0.0,0.0,0.0,0.0,0.0,0.0,0.0,0.0,0.0,0.0,3.4404,3.1716,2.6142,2.4003,2.3014,2.3014,2.3014,2.3014,2.3014,0.0,0.0,0.0,0.0,0.0,2.8415,2.9465,3.2591,3.6739,3.8209,4.0416,4.2977,4.4719,4.6667,4.8766,0.0,0.0,0.0,0.0,0.0,0.0,0.0,0.0,0.0,0.0,0.0,0.0,0.0,0.0,0.0,0.0,0.0,0.0,0.0,0.0,0.0,0.0,0.0,0.0,0.0,0.0,0.0,0.0,0.0,0.0,0.0,0.0,-0.5767,0.0,0.0,0.0,0.0,0.0,0.0,0.0,0.0,0.0,0.0,0.0,0.0,0.0,0.0,0.0,0.0,-4.4196,-4.4205,-4.444,-4.3504,0.0,0.0,0.0,0.0,0.0,-4.3214,-4.1844,-4.0836,-4.2523,-4.2995,-4.3087,-4.3158,-4.3774,-4.4315,0.0,0.0,0.0,-4.2195,-3.1253,0.0,0.0,0.0,0.0,0.0,0.0,0.0,0.0,0.0,0.0,0.0,0.0,0.0,0.0,0.0,0.0,0.0,0.0,0.0,0.0,3.4404,3.0679,2.3119,2.3014,2.3014,2.3014,2.3014,2.3014,2.3014,2.3014,0.0,0.0,0.0,0.0,2.8879,3.1935,3.3672,3.4503,3.7714,3.9421,4.0416,4.3638,4.622,4.8358,0.0,0.0,0.0,0.0,0.0,0.0,0.0,0.0,0.0,0.0,0.0,0.0,0.0,0.0,0.0,0.0,0.0,0.0,0.0,0.0,0.0,0.0,0.0,-0.3223,-0.3314,-0.4289,0.0,0.0,0.0,0.0,-0.9744,-0.6814,-0.8795,-1.5137,0.0,0.0,0.0,0.0,0.0,0.0,0.0,0.0,0.0,0.0,0.0,0.0,0.0,0.0,0.0,-4.4267,-4.4168,-4.4307,-4.3175,0.0,0.0,0.0,0.0,0.0,-4.3675,-3.6597,-3.1359,-4.0716,-4.3408,-4.3859,-4.4235,0.0,-4.5534,0.0,0.0,0.0,0.0,-2.6968,0.0,0.0,0.0,0.0,0.0,0.0,0.0,0.0,0.0,0.0,0.0,0.0,0.0,0.0,0.0,0.0,0.0,0.0,0.0,0.0,0.0,3.0679,2.3119,2.3014,2.3014,2.3014,2.3014,2.3014,2.3014,2.3014,2.3014,0.0,0.0,0.0,3.2835,3.5499,3.8755,4.2188,4.2225,4.2947,4.4037,4.4615,4.5441,4.6716,0.0,0.0,0.0,0.0,0.0,0.0,0.0,0.0,0.0,0.0,0.0,0.0,0.0,0.0,0.0,0.0,0.0,0.0,0.0,0.0,0.0,0.0,-0.1883,-0.2597,-0.3667,-0.4559,0.0,0.0,0.0,-0.9492,-1.0,-1.3226,-1.6621,-2.0308,0.0,-3.079,-3.3403,0.0,0.0,0.0,0.0,0.0,0.0,0.0,0.0,0.0,0.0,0.0,0.0,0.0,-4.4702,-4.4805,-4.4017,0.0,0.0,0.0,0.0,0.0,-4.366,-3.6411,-2.9203,-3.1035,-2.7268,-2.3147,-2.3143,0.0,0.0,0.0,0.0,0.0,0.0,0.0,0.0,0.0,0.0,0.0,0.0,0.0,0.0,0.0,0.0,0.0,0.0,0.0,0.0,0.0,0.0,0.0,0.0,0.0,0.0,0.0,0.0,0.0,2.3119,2.3014,2.3014,2.3014,2.3014,2.3014,2.3014,2.3014,2.3014,0.0,0.0,3.1886,3.3861,3.8847,4.2041,4.3849,4.3615,4.3989,4.4927,4.6306,4.7605,4.9092,0.0,0.0,0.0,0.0,0.0,0.0,0.0,0.0,0.0,0.0,0.0,0.0,0.0,0.0,0.0,0.0,0.0,0.0,0.0,0.0,-0.1436,-0.1436,-0.1436,-0.2239,-0.3933,-0.4914,-0.598,-0.7132,-0.8794,-1.0,-1.0919,-1.8561,-2.2711,-2.3706,0.0,-3.1492,-3.8003,-3.4452,-3.599,-4.0441,0.0,0.0,0.0,0.0,0.0,0.0,0.0,0.0,0.0,0.0,0.0,0.0,0.0,0.0,0.0,-4.405,-4.367,-4.341,-4.39,-3.7187,-2.9037,-2.4641,-1.5376,0.0,0.0,0.0,0.0,0.0,0.0,0.0,0.0,0.0,0.0,0.0,0.0,0.0,0.0,0.0,0.0,0.0,0.0,0.0,0.0,0.0,0.0,0.0,0.0,0.0,0.0,0.0,0.0,0.0,0.0,0.0,2.7003,2.6904,2.5561,2.3014,2.3014,2.3014,2.3014,2.3014,2.3014,2.3311,2.9484,3.263,3.3944,4.0097,4.3056,4.3927,4.3927,4.4464,4.554,4.8043,5.0094,5.1824,0.0,0.0,0.0,0.0,0.0,0.0,0.0,0.0,0.0,0.0,0.0,0.0,0.0,0.0,0.0,0.0,0.0,0.0,0.0,0.0,-0.1436,-0.1436,-0.1436,-0.1883,-0.2956,-0.3935,-0.526,-0.7109,-0.8093,-1.024,-1.3426,-1.8089,-2.2368,-2.6239,-2.9622,-3.407,-3.9042,-3.9192,-3.7511,-3.4763,-3.506,0.0,0.0,0.0,0.0,0.0,0.0,0.0,0.0,0.0,0.0,0.0,0.0,0.0,-4.3942,-4.3502,-4.332,-4.3589,-4.4904,-3.7089,-2.8671,-2.918,-2.1004,0.0,-0.3127,-0.272,0.0,-0.345,0.0,0.0,0.0,0.0,0.0,0.0,0.0,0.0,0.0,0.0,0.0,0.0,0.0,0.0,0.0,0.0,0.0,0.0,0.0,0.0,0.0,0.0,0.0,0.0,0.0,0.0,3.8584,3.8611,3.3369,2.3014,2.3014,2.3014,2.3014,2.3014,2.3014,2.3223,2.6723,3.0184,3.3767,3.7177,4.0727,4.3927,4.3927,4.5013,4.6881,4.9309,5.1303,5.2851,0.0,0.0,0.0,0.0,0.0,0.0,0.0,0.0,0.0,0.0,0.0,0.0,0.0,0.0,0.0,0.0,0.0,0.0,0.0,0.0,-0.1436,-0.1436,-0.1436,-0.1883,-0.2867,-0.4372,-0.5783,-0.7105,-1.0206,-1.2602,-1.4636,-2.1002,-2.4765,-2.6544,-3.1657,-3.6018,-3.9593,-3.9823,-4.0079,-4.0423,-4.093,-4.1112,0.0,0.0,0.0,0.0,0.0,0.0,0.0,0.0,-4.532,-4.4941,-4.4649,-4.4307,-4.4042,-4.4202,-4.4398,-4.4854,-4.5926,-3.1974,-1.68,-1.5378,-0.1739,0.0,0.0,1.0263,1.1233,1.2624,1.6853,0.0,0.0,0.0,0.0,0.0,0.0,0.0,0.0,0.0,0.0,0.0,0.0,0.0,0.0,0.0,0.0,0.0,0.0,0.0,0.0,0.0,0.0,0.0,0.0,0.0,0.0,3.9259,3.6863,3.2598,2.9685,2.8179,2.8137,2.4631,2.3014,2.3215,2.6746,3.0567,3.4303,3.79,4.1609,4.5227,4.634,4.7211,4.8178,5.1367,5.2958,5.3616,0.0,0.0,0.0,0.0,0.0,0.0,0.0,0.0,0.0,0.0,0.0,0.0,0.0,0.0,0.0,0.0,0.0,0.0,0.0,0.0,-0.1076,-0.1346,-0.1436,-0.1704,-0.2419,-0.4893,-0.6653,-0.7544,-1.2145,-1.4936,-1.6208,-2.2001,-2.5732,-2.7851,-3.1942,-3.6104,0.0,-4.0045,-4.1507,-4.3775,-4.4392,-4.4572,0.0,0.0,0.0,0.0,0.0,0.0,0.0,0.0,-4.534,-4.4848,-4.4773,-4.4685,-4.4591,-4.4813,-4.1864,-3.8635,-3.9139,-2.3784,-0.7081,-0.4835,0.0,0.0,1.8601,2.2286,2.6226,2.8619,3.3421,0.0,0.0,0.0,0.0,0.0,0.0,0.0,0.0,0.0,0.0,0.0,0.0,0.0,0.0,0.0,0.0,0.0,0.0,0.0,0.0,0.0,0.0,0.0,0.0,0.0,0.0,4.3852,4.3396,4.3342,3.8277,3.4961,3.3118,2.9244,2.6573,2.5237,2.7878,3.0899,3.4094,3.6944,4.1395,4.6544,4.8158,4.9135,5.0027,5.3102,5.4168,5.4164,0.0,0.0,0.0,0.0,0.0,0.0,0.0,0.0,0.0,0.0,0.0,0.0,0.0,0.0,0.0,0.0,0.0,0.0,0.0,-0.0,-0.0448,-0.1345,-0.1346,-0.1436,-0.1436,-0.5318,-0.7778,-0.8591,-1.3544,-1.6799,-1.8377,-2.0347,-2.4659,-3.0688,-3.0411,-3.3967,-4.0113,-4.0393,-4.1339,-4.2796,-4.4007,-4.4331,-4.421,0.0,0.0,0.0,0.0,0.0,0.0,0.0,-4.5276,-4.4954,-4.4616,-4.5086,-4.5708,-4.5233,-3.5018,-2.3752,-2.3334,-1.2748,-0.1567,0.0,0.0,0.0,2.0691,3.1366,3.8952,4.402,0.0,0.0,0.0,0.0,0.0,0.0,0.0,0.0,0.0,0.0,0.0,0.0,0.0,0.0,0.0,0.0,0.0,0.0,0.0,0.0,0.0,0.0,0.0,0.0,0.0,0.0,0.0,5.4318,5.3865,5.3752,4.8164,4.2626,3.7254,3.7237,3.446,2.9682,2.9614,3.0891,3.2906,3.3653,3.9367,4.7733,4.8992,5.0588,5.24,5.425,5.4751,5.447,0.0,0.0,0.0,0.0,0.0,0.0,0.0,0.0,0.0,0.0,0.0,0.0,0.0,0.0,0.0,0.0,0.0,0.0,0.0,0.0896,0.0179,-0.0628,-0.0538,-0.1165,-0.2599,-0.6656,-0.9916,-1.2249,-1.597,-1.8179,-1.8946,-2.4108,-2.8002,-3.0771,0.0,-3.61,-3.9782,-4.0375,-4.1435,-4.2755,-4.3509,-4.3844,-4.3972,0.0,0.0,0.0,0.0,0.0,0.0,0.0,0.0,0.0,-4.5162,-4.5487,-4.6052,-4.65,-4.3998,-3.8689,-2.7892,-1.3868,0.0,0.0,0.0,0.0,0.0,3.2171,0.0,0.0,0.0,0.0,0.0,0.0,0.0,0.0,0.0,0.0,0.0,0.0,0.0,0.0,0.0,0.0,0.0,0.0,0.0,0.0,0.0,0.0,0.0,0.0,0.0,0.0,0.0,0.0,0.0,0.0,4.4226,4.1149,3.8876,3.966,4.2968,3.9013,3.6368,3.4748,3.1169,3.2911,3.8332,4.0055,4.2667,4.5859,4.8752,5.0563,5.186,5.4955,5.5657,5.4904,0.0,0.0,0.0,0.0,0.0,0.0,0.0,0.0,0.0,0.0,0.0,0.0,0.0,0.0,0.0,0.0,0.0,0.0,0.0,0.0,0.0448,-0.0628,-0.0896,-0.2331,-0.523,-0.823,-1.1091,-1.3764,-1.7454,-1.9525,-2.0144,-2.5394,-2.8863,-3.0949,-3.3403,-3.6014,-3.864,-4.0027,-4.1101,-4.1913,-4.2941,-4.3361,-4.3391,0.0,0.0,0.0,0.0,0.0,0.0,0.0,0.0,0.0,-4.5663,-4.612,-4.5589,-4.0095,-3.4453,-2.6583,-1.0853,0.4899,0.0,0.0,0.0,0.0,0.0,0.0,0.0,0.0,0.0,0.0,0.0,0.0,0.0,0.0,0.0,0.0,0.0,0.0,0.0,0.0,0.0,0.0,0.0,0.0,0.0,0.0,0.0,0.0,0.0,0.0,0.0,0.0,0.0,0.0,0.0,0.0,0.0,3.5307,3.4738,3.6832,4.1156,4.0031,3.9629,3.9598,3.5849,3.6906,4.1456,4.4164,4.5952,4.7178,4.9362,5.1139,5.2696,5.4557,5.508,5.4619,0.0,0.0,0.0,0.0,0.0,0.0,0.0,0.0,0.0,0.0,0.0,0.0,0.0,0.0,0.0,0.0,0.0,0.0,0.0,0.0,0.0538,-0.1075,-0.2329,-0.4595,-0.8242,-0.9971,-1.1749,-1.3683,-1.8063,-2.0598,-2.1504,-2.5027,-2.8195,-3.1022,-3.2346,-3.4389,-3.7026,-3.9291,-4.0331,-4.0676,-4.2336,-4.285,-4.2723,-4.3713,0.0,0.0,0.0,0.0,0.0,0.0,0.0,0.0,-4.6139,-4.6799,-4.4915,-3.1248,-1.623,-0.0523,1.578,0.0,0.0,0.0,0.0,0.0,0.0,0.0,0.0,0.0,0.0,0.0,0.0,0.0,0.0,0.0,0.0,0.0,0.0,0.0,0.0,0.0,0.0,0.0,0.0,0.0,0.0,0.0,0.0,0.0,0.0,0.0,0.0,0.0,0.0,0.0,0.0,0.0,0.0,0.0,3.3154,3.3046,3.3393,3.9451,4.2518,4.2959,4.173,4.1627,4.2555,4.6061,4.8521,5.0144,5.026,5.1812,5.393,5.3305,5.3371,5.36,0.0,0.0,0.0,0.0,0.0,0.0,0.0,0.0,0.0,0.0,0.0,0.0,0.0,0.0,0.0,0.0,0.0,0.0,0.0,0.0,-0.0357,-0.1338,-0.4523,-0.6816,-0.7791,-1.0664,-1.2406,-1.3122,-1.7951,-2.0907,-2.2025,-2.5738,-2.8748,-3.1035,-3.1996,-3.4103,-3.6967,-3.7866,-3.9292,-4.1001,-4.1464,-4.2032,-4.2639,-4.3133,-4.3763,0.0,0.0,0.0,0.0,0.0,0.0,0.0,-4.6382,-4.6566,-4.6326,-4.4114,-3.1907,-1.5798,-0.0577,1.5927,0.0,0.0,0.0,0.0,0.0,0.0,0.0,0.0,0.0,0.0,0.0,0.0,0.0,0.0,0.0,0.0,0.0,0.0,0.0,0.0,0.0,0.0,0.0,0.0,0.0,0.0,0.0,0.0,0.0,0.0,0.0,0.0,0.0,0.0,3.5726,3.3171,2.9724,0.0,2.2797,2.2174,2.3682,3.2391,3.662,3.7265,3.9648,4.1012,4.1797,4.5315,4.7324,4.8281,4.9074,5.0095,5.1171,5.1843,5.1859,5.1411,0.0,0.0,0.0,0.0,0.0,0.0,0.0,0.0,0.0,0.0,0.0,0.0,0.0,0.0,0.0,0.0,0.0,0.0,0.0,0.0,0.0,-0.4055,-0.6593,-0.8258,-0.8725,-1.1467,-1.2925,-1.283,-1.7219,0.0,0.0,0.0,-2.7829,-3.0202,-3.2541,-3.4442,-3.606,-3.7802,-3.9254,-4.0397,-4.0897,-4.1622,-4.2488,-4.3262,-4.4088,-4.4831,-4.5204,0.0,0.0,0.0,0.0,0.0,0.0,0.0,-4.5329,-3.8409,-3.0498,-1.8913,0.443,0.0,0.0,4.5332,0.0,0.0,0.0,0.0,0.0,0.0,0.0,0.0,0.0,0.0,0.0,0.0,0.0,0.0,0.0,0.0,0.0,0.0,0.0,0.0,0.0,0.0,0.0,0.0,0.0,0.0,0.0,0.0,0.0,0.0,0.0,0.0,3.382,3.0918,2.728,2.2832,1.9743,1.8571,1.9567,2.7893,3.2949,3.5358,3.9924,4.0501,3.8736,4.5254,4.656,4.4703,4.7317,4.8974,4.9892,4.9825,4.9973,5.0167,0.0,0.0,0.0,0.0,0.0,0.0,0.0,0.0,0.0,0.0,0.0,0.0,0.0,0.0,0.0,0.0,0.0,0.0,0.0,0.0,0.0,0.0,-0.8506,-0.9256,-0.9883,-1.225,-1.3221,-1.2727,-1.6216,0.0,0.0,0.0,0.0,-2.9459,-3.2723,-3.4353,-3.4936,-3.755,-3.8999,-3.9594,-4.0563,-4.1499,-4.2369,-4.3626,-4.4664,-4.545,-4.5548,-4.6037,-4.6672,-4.6986,0.0,0.0,0.0,0.0,-4.3837,-3.0871,-2.535,-1.7045,1.2331,0.0,3.253,4.7099,5.0678,0.0,0.0,0.0,0.0,0.0,0.0,0.0,0.0,0.0,0.0,0.0,0.0,0.0,0.0,0.0,0.0,0.0,0.0,0.0,0.0,0.0,0.0,0.0,0.0,0.0,0.0,0.0,0.0,0.0,0.0,3.9518,3.3414,3.0555,2.7062,2.3028,1.8949,1.7199,1.7609,2.1389,2.6417,3.2402,3.8052,3.8355,3.5517,4.3597,4.4568,4.1311,4.454,4.7117,4.8883,4.7368,4.7716,4.8812,0.0,0.0,0.0,0.0,0.0,0.0,0.0,0.0,0.0,0.0,0.0,0.0,0.0,0.0,0.0,0.0,0.0,0.0,-0.2318,0.0,0.0,-0.963,-1.0088,-1.0298,-1.0369,-1.2431,-1.3318,-1.3022,0.0,0.0,0.0,0.0,0.0,-3.0279,0.0,-3.2256,-3.4391,-3.4771,-3.6506,-3.9185,-4.0354,-4.142,-4.2531,-4.3713,-4.4953,-4.5996,-4.5996,-4.5971,-4.6094,-4.7104,-4.65,0.0,0.0,0.0,0.0,-4.3033,-3.2139,-1.6786,0.0,0.0,4.7517,0.0,5.0945,5.1059,0.0,0.0,0.0,0.0,0.0,0.0,0.0,0.0,0.0,0.0,0.0,0.0,0.0,0.0,0.0,0.0,0.0,0.0,0.0,0.0,0.0,0.0,0.0,0.0,0.0,0.0,4.3519,4.1351,3.9213,0.0,3.1552,2.8632,2.5963,2.3544,1.5407,1.2656,1.4348,0.4928,0.8049,2.1161,2.6476,3.1096,3.4956,3.6053,3.8265,4.0867,3.947,4.2169,4.6566,4.4422,4.4677,4.5908,0.0,0.0,0.0,0.0,0.0,0.0,0.0,0.0,0.0,0.0,0.0,0.0,0.0,0.0,0.0,-0.0447,-0.0894,-0.2152,-0.4523,-0.6901,-0.8891,-1.0496,-1.0614,-1.0617,-1.0408,-1.2446,-1.3318,-1.2926,0.0,0.0,0.0,-2.2051,-2.5163,0.0,0.0,0.0,0.0,-3.4981,-3.6662,-3.8704,-3.6286,-3.3418,-3.0861,-3.3216,-3.4318,-3.5161,-3.9373,0.0,0.0,-4.6753,-4.6178,-4.5407,-4.5597,0.0,0.0,0.0,-3.9261,-2.8566,-0.4524,1.9354,3.9665,0.0,5.1086,5.1141,0.0,0.0,0.0,0.0,0.0,0.0,0.0,0.0,0.0,0.0,0.0,0.0,0.0,0.0,0.0,0.0,0.0,0.0,0.0,0.0,0.0,0.0,0.0,0.0,0.0,4.4729,4.2534,4.0177,3.8426,0.0,3.1267,2.8254,2.4371,1.9411,1.3677,1.0967,1.0988,0.5509,0.8682,1.8514,2.1042,2.3421,2.5869,3.1212,3.3601,3.4005,3.5481,3.8807,4.2699,4.2215,4.2233,4.2446,0.0,0.0,0.0,0.0,0.0,0.0,0.0,0.0,0.0,0.0,0.0,0.0,0.0,0.0,0.0,0.0,-0.2513,-0.3908,-0.6602,-0.8244,-0.9761,-1.0875,-1.1021,-1.09,-1.0413,-1.2549,-1.3414,0.0,0.0,0.0,-1.8878,-2.0099,-2.2755,0.0,-2.9428,-3.168,0.0,0.0,0.0,0.0,-3.0782,-2.5333,-2.1175,-2.0404,-1.9985,-2.0822,-2.8485,0.0,0.0,0.0,0.0,-4.5003,-4.4949,-4.4378,0.0,0.0,0.0,0.0,0.0,0.0,3.0419,4.2343,4.8287,5.1213,0.0,0.0,0.0,0.0,0.0,0.0,0.0,0.0,0.0,0.0,0.0,0.0,0.0,0.0,0.0,0.0,0.0,0.0,0.0,0.0,0.0,0.0,0.0,0.0,4.5852,4.3917,4.1613,3.8952,3.7293,3.4133,2.9387,2.6212,2.167,1.5907,1.3083,1.0574,0.8436,0.8121,1.0206,1.4073,1.5464,1.5852,1.6149,2.4251,2.6907,2.6425,3.0819,3.5071,3.8712,3.9742,3.9941,3.9772,0.0,0.0,0.0,0.0,0.0,0.0,0.0,0.0,0.0,0.0,0.0,0.0,0.0358,-0.1609,-0.304,-0.3129,-0.3919,-0.5334,-0.7657,-0.8948,-1.0101,-1.117,-1.1678,0.0,-1.0408,-1.2937,-1.3709,0.0,0.0,0.0,-1.808,-1.8255,-2.0384,-2.3927,-2.5557,-2.7866,-3.0699,0.0,0.0,0.0,0.0,-2.0475,-1.9895,-0.7988,0.0,0.0,0.0,0.0,0.0,0.0,0.0,-4.3262,-4.3366,-4.3323,0.0,0.0,0.0,0.0,0.0,0.4856,0.0,2.9093,4.0427,0.0,0.0,0.0,0.0,0.0,0.0,0.0,0.0,0.0,0.0,0.0,0.0,0.0,0.0,0.0,0.0,0.0,0.0,0.0,0.0,0.0,0.0,0.0,0.0,0.0,4.5918,4.3089,4.0259,3.7597,3.4634,3.0318,2.444,2.0476,1.7298,1.5062,1.3764,1.1034,0.7252,0.7296,0.5584,0.2866,0.7064,0.88,0.9071,1.2341,1.6087,2.021,2.474,3.0024,3.5239,3.6459,3.7854,3.8847,0.0,0.0,0.0,0.0,0.0,0.0,0.0,0.0,0.0,0.0,0.0,0.0,0.0,-0.268,-0.3864,-0.4466,-0.4897,-0.5883,-0.7504,-0.8575,-0.9547,-1.0408,-1.1096,-1.1194,-1.0703,-1.2068,-1.284,0.0,0.0,-1.6142,-1.6177,-1.7316,-1.8926,-2.1087,-2.3795,-2.6771,-2.9771,-3.215,0.0,0.0,0.0,0.0,0.0,0.0,0.0,0.0,0.0,0.0,0.0,0.0,-3.161,-3.8205,-4.1849,-4.2834,0.0,0.0,0.0,0.0,0.0,0.0,0.0,2.5666,3.4698,0.0,0.0,0.0,0.0,0.0,0.0,0.0,0.0,0.0,0.0,0.0,0.0,0.0,0.0,0.0,0.0,0.0,0.0,0.0,0.0,0.0,0.0,0.0,0.0,0.0,4.4841,4.2385,3.9535,3.6372,3.4065,2.9759,2.3242,1.8483,1.5423,1.3975,1.19,0.8784,0.4837,0.4852,0.4296,0.3293,0.3317,0.563,0.9331,1.172,1.4706,1.8173,2.1872,2.6774,3.1953,3.2995,3.4202,3.5385,0.0,0.0,0.0,0.0,0.0,0.0,0.0,0.0,0.0,0.0,0.0,0.0,0.0,0.0,-0.484,-0.5543,-0.5696,-0.6282,-0.7485,-0.8072,-0.8924,-0.992,-1.0699,-1.0993,-1.0801,-1.1996,-1.2764,0.0,0.0,0.0,0.0,-1.6257,-1.7424,-1.8867,-2.1024,-2.4251,0.0,0.0,0.0,-3.3263,0.0,0.0,0.3453,0.0,0.0,0.0,0.0,0.0,0.0,0.0,-1.5163,-2.3033,-3.1858,0.0,0.0,0.0,0.0,0.0,-2.3641,0.0,0.0,0.0,0.0,0.0,0.0,0.0,0.0,0.0,0.0,0.0,0.0,0.0,0.0,0.0,0.0,0.0,0.0,0.0,0.0,0.0,0.0,0.0,0.0,0.0,0.0,0.0,0.0,0.0,4.3063,4.1117,3.7983,3.3317,3.0443,2.6608,2.1486,1.7367,1.4645,1.3331,1.0174,0.7327,0.464,0.3894,0.3684,0.3795,0.1754,0.2753,0.6065,0.8896,1.1189,1.3378,1.8687,2.3019,2.6682,2.9593,3.1279,3.2191,0.0,0.0,0.0,0.0,0.0,0.0,0.0,0.0,0.0,0.0,0.0,0.0,0.0,0.0,0.0,-0.6246,-0.6271,-0.6712,-0.7521,-0.763,-0.8326,-0.9821,-1.0498,-1.0788,-1.0801,-1.2808,-1.3561,0.0,0.0,0.0,0.0,0.0,-1.5704,-1.7546,-1.7066,-2.0193,-2.5757,0.0,-3.0811,-3.1209,0.0,0.5079,0.4477,0.0,0.0,0.0,3.6226,2.9624,0.0,1.6015,0.9654,0.176,0.0,0.0,0.0,0.0,0.0,0.0,0.0,0.0,0.0,0.0,0.0,0.0,0.0,0.0,0.0,0.0,0.0,0.0,0.0,0.0,0.0,0.0,0.0,0.0,0.0,0.0,0.0,0.0,0.0,0.0,0.0,0.0,0.0,0.0,0.0,4.2078,4.0638,3.9202,3.5309,2.846,2.3794,2.049,1.8822,1.676,1.4957,1.3125,0.9139,0.7058,0.6653,0.4563,0.351,0.319,0.1807,0.0108,-0.1455,0.2994,0.4759,0.5733,1.4908,1.8571,1.9567,2.6319,2.8945,2.9342,0.0,0.0,0.0,0.0,0.0,0.0,0.0,0.0,0.0,0.0,0.0,0.0,0.0,-0.481,-0.6195,-0.6263,-0.6342,-0.6504,-0.6731,-0.7232,-0.7829,-0.8226,-0.9517,-1.0212,-1.0216,-1.0942,-1.1716,-1.2262,0.0,0.0,0.0,0.0,0.0,0.0,-1.6926,-1.8785,-2.1717,-2.5776,0.0,0.0,-0.2311,0.679,0.0,0.0,0.0,0.0,0.0,3.8312,0.0,0.0,1.6754,0.645,0.0,0.0,0.0,0.0,0.0,0.0,-3.0685,0.0,0.0,0.0,0.0,0.0,0.0,0.0,0.0,0.0,0.0,0.0,0.0,0.0,0.0,0.0,0.0,0.0,0.0,0.0,0.0,0.0,0.0,0.0,0.0,0.0,0.0,0.0,0.0,4.118,3.9927,3.5437,3.0943,2.6671,2.261,1.9684,1.7831,1.5236,1.3141,1.1638,1.017,0.6769,0.1977,0.4501,0.3665,0.0314,-0.0424,-0.1179,-0.1405,0.206,0.4051,0.5306,1.0262,1.4873,1.8883,2.0348,2.3073,2.6408,0.0,0.0,0.0,0.0,0.0,0.0,0.0,0.0,0.0,0.0,0.0,0.0,0.0,0.0,-0.6293,-0.6333,-0.6399,-0.6437,-0.6437,-0.6833,-0.7232,-0.763,-0.8825,-0.962,-1.0019,-1.0622,-1.14,-1.2175,0.0,0.0,0.0,0.0,0.0,0.0,0.0,0.0,0.0,0.0,0.0,0.0,0.0843,0.0,0.0,3.8726,4.8524,0.0,0.0,0.0,4.0152,3.7118,2.813,0.0,0.0,0.0,0.0,0.0,0.0,0.0,-2.8767,-2.7673,0.0,0.0,0.0,0.0,0.0,3.1161,0.0,0.0,0.0,0.0,0.0,0.0,0.0,0.0,0.0,0.0,0.0,0.0,0.0,0.0,0.0,0.0,0.0,0.0,0.0,0.0,4.0562,3.9039,3.6736,3.1135,2.6785,2.4135,2.0821,1.789,1.5373,1.3706,1.1846,1.0071,1.001,0.6966,0.1433,0.2979,0.2671,0.0821,-0.0831,-0.1571,-0.1477,0.032,0.2058,0.3851,0.716,1.1371,1.5829,1.7191,2.0076,2.3502,0.0,0.0,0.0,0.0,0.0,0.0,0.0,0.0,0.0,0.0,0.0,0.0,0.0,0.0,0.0,-0.6129,-0.6334,-0.6437,-0.6439,-0.6437,-0.6736,-0.7431,-0.8226,-0.9023,-0.9821,-1.1009,-1.1778,-1.2175,0.0,0.0,0.0,0.0,0.0,0.0,0.0,0.0,0.0,0.0,0.0,-1.8216,0.5532,1.3938,0.0,0.0,4.8899,0.0,4.9496,4.9343,4.8117,4.9506,3.9878,0.0,0.0,0.0,0.0,0.0,-2.9125,0.0,0.0,-2.7158,0.0,0.0,0.0,0.0,1.2457,2.5836,0.0,0.0,0.0,0.0,0.0,0.0,0.0,0.0,0.0,0.0,0.0,0.0,0.0,0.0,0.0,0.0,0.0,0.0,4.0834,3.9458,3.8212,3.5892,3.2151,2.6988,2.3232,2.124,1.872,1.5833,1.2313,1.2119,1.0872,0.8556,0.8781,0.7059,0.3428,0.111,0.101,0.2725,-0.0303,-0.1633,-0.1763,-0.1688,-0.0215,0.2293,0.5078,0.8446,1.2142,1.5816,1.8527,2.0721,0.1436,0.0,0.0,0.0,0.0,0.0,0.0,0.0,0.0,0.0,0.0,0.0,0.0,0.0,-0.4614,-0.4331,-0.5634,-0.6442,-0.6356,-0.6445,-0.6437,-0.6634,-0.7431,-0.8226,-0.9023,-0.9481,-1.007,-1.0801,0.0,0.0,0.0,0.0,0.0,0.0,0.0,0.0,0.0,0.0,0.0,-0.0183,1.1359,0.0,2.7285,4.4336,5.0298,4.965,5.05,5.0371,4.9647,0.0,3.8897,2.6695,0.0,0.0,0.0,0.0,0.0,0.0,0.0,0.0,0.0,0.0,0.0,0.0,0.3032,1.0854,0.0,0.0,0.0,0.0,0.0,0.0,0.0,0.0,0.0,0.0,0.0,0.0,0.0,0.0,0.0,0.0,0.0,0.0,4.0659,3.8476,3.5379,3.2124,2.8709,2.5765,2.2409,1.8485,1.7331,1.5266,1.2313,1.0867,0.9612,0.8453,0.5737,0.4945,0.567,0.1716,0.0202,0.0505,-0.0909,-0.2126,-0.2846,-0.1968,0.0212,0.2935,0.3549,0.7407,1.2682,1.3449,1.5648,1.8611,0.1076,0.0,0.0,0.0,0.0,0.0,0.0,0.0,0.0,0.0,0.0,0.0,0.0,0.0,0.0,-0.1502,-0.23,-0.3003,0.0,-0.3814,-0.391,-0.3609,-0.5819,-0.7018,-0.6982,-0.9118,-1.0336,-1.0609,0.0,0.0,0.0,0.0,0.0,0.0,0.0,0.0,0.0,0.0,0.4714,1.105,1.7461,0.0,3.2396,4.4942,4.9589,4.9418,4.9522,4.9475,4.92,4.8318,4.371,0.0,0.0,2.3275,1.3552,0.0,-0.6603,-1.1759,0.0,0.0,0.0,-2.0937,0.0,0.0,0.0,0.686,1.3581,0.0,0.0,0.0,0.0,0.0,0.0,0.0,0.0,0.0,0.0,0.0,0.0,0.0,0.0,0.0,0.0,0.0,3.909,3.552,3.2041,2.8874,2.6057,2.2783,1.9726,1.7159,1.536,1.3262,1.096,0.9501,0.8329,0.7459,0.4933,0.3527,0.313,0.1009,-0.0,-0.0,-0.0606,-0.1717,-0.3137,-0.1861,0.0313,0.2838,0.3046,0.7119,1.2798,1.2835,1.4798,1.7925,0.0538,0.0,0.0,0.0,0.0,0.0,0.0,0.0,0.0,0.1768,0.0,0.0,0.0,0.0,0.0,0.0,0.2939,0.2359,0.0,0.0,0.0,-0.05,-0.3404,-0.4999,-0.4771,-0.7902,-1.0044,-1.0838,0.0,0.0,0.0,0.0,0.0,0.0,0.0,0.0,0.0,0.0,0.0,1.9512,0.0,2.9296,3.6522,4.507,4.8457,4.8584,4.8347,4.8159,4.8015,4.7881,0.0,4.5217,3.5898,3.0456,0.0,0.0,0.0,0.0,0.0,0.0,0.0,0.0,0.0,-0.5366,0.0,0.0,0.0,1.9961,0.0,0.0,0.0,0.0,0.0,0.0,0.0,0.0,0.0,0.0,0.0,0.0,0.0,0.0,0.0,0.0,3.6303,3.279,2.8836,2.5769,2.3839,1.9915,1.708,1.5745,1.3454,1.1346,0.9308,0.8418,0.7437,0.6364,0.524,0.3524,0.1209,0.0403,-0.0,-0.0,-0.0,-0.101,-0.2429,-0.0928,0.0721,0.2348,0.3322,0.7393,1.2717,1.2989,1.486,1.7463,0.009,0.009,0.0,0.0,0.0,0.0,0.0,0.0,0.1768,0.2906,0.8645,0.0,0.0,0.0,0.0,0.0,0.0,0.0,0.8806,0.0,0.0,0.0797,0.02,-0.1097,-0.3393,-0.3598,-0.6119,-1.116,0.0,0.0,0.0,0.0,0.0,0.0,0.5844,0.0,0.0,0.0,2.059,0.0,2.9133,3.5816,0.0,4.6949,4.8386,4.9303,4.868,4.7706,4.6845,0.0,4.2236,3.6345,0.0,3.8772,0.0,0.0,0.0,0.0,0.0,0.0,0.0,0.0,-0.922,0.0,0.0,0.0,0.9226,1.5979,0.0,0.0,0.0,0.0,0.0,0.0,0.0,0.0,0.0,0.0,0.0,0.0,0.0,0.0,0.0,0.0,0.0,3.2458,2.661,2.2648,2.1929,1.9266,1.6216,1.2887,1.2501,1.0951,0.8219,0.8021,0.7437,0.6364,0.6261,0.5959,0.556,0.1713,-0.0,-0.0,-0.0,-0.0101,-0.0202,0.1821,0.2247,0.1767,0.4613,0.851,1.2517,1.3571,1.4907,1.6516,-0.0,-0.0,0.0,0.0,0.0,0.3985,0.2897,0.2851,0.3091,0.3615,0.0,0.0,0.0,0.0,0.0,0.0,0.0,1.3866,0.0,0.0,0.0,0.0,0.0,0.0,0.0,-0.1495,-0.4232,-0.7253,-0.6564,0.0,0.0,0.0,0.0,0.0,1.1839,0.0,1.8704,0.0,0.0,0.0,0.0,0.0,0.0,4.6748,4.7579,4.7972,4.7386,4.6892,4.6539,0.0,4.416,0.0,0.0,0.0,0.0,0.0,0.0,0.0,0.0,0.0,0.0,0.0,0.0,0.0,0.0,0.0,0.6352,0.0,0.0,0.0,0.0,0.0,0.0,0.0,0.0,0.0,0.0,0.0,0.0,0.0,0.0,0.0,0.0,0.0,0.0,0.0,0.0,1.9809,1.9323,1.6937,1.453,1.241,1.1249,0.9887,0.8021,0.7428,0.6836,0.6448,0.6358,0.6369,0.6377,0.4543,0.2319,-0.0,-0.0,-0.0,0.0202,0.2457,0.3901,0.4732,0.6593,0.9089,1.1827,1.3537,1.4854,1.628,0.0995,0.0,0.0,0.0,0.0,0.0,0.5623,0.5291,0.0,0.0,0.0,0.0,1.1945,1.4502,0.0,0.0,0.0,1.9132,0.0,0.0,1.1278,0.0,0.0,0.0,0.0,0.0,-0.1513,-0.2679,0.0,0.0,0.0,0.0,0.0,0.0,0.0,2.0735,2.3821,0.0,0.0,3.3831,3.3846,3.822,4.4864,4.6178,4.6537,4.6266,4.607,4.5778,4.5449,4.5399,4.3715,0.0,4.3684,0.0,0.0,0.0,0.0,0.0,0.7602,0.0,0.0,0.0,0.0,0.0,0.0,0.0,0.0,0.0,0.0,0.0,0.0,0.0,0.0,0.0,0.0,0.0,0.0,0.0,0.0,0.0,0.0,0.0,0.0,0.0,0.0,0.0,0.0,0.0,1.7235,1.488,1.2882,1.1448,0.996,0.8616,0.7528,0.6833,0.6439,0.6445,0.6356,0.6062,0.5557,0.6173,0.475,0.1716,0.1715,0.1113,0.0204,0.3192,0.5366,0.7021,0.7645,0.892,1.0692,1.3128,1.465,1.5804,0.3505,0.4811,0.0,0.0,0.0,0.0,0.0,0.0,0.0,0.0,0.0,0.0,0.0,0.0,0.0,0.0,0.0,2.6723,2.3328,0.0,2.0228,0.0,0.0,1.0236,0.0,0.0,0.0,0.0,0.0,0.0,0.0,0.0,0.0,0.0,0.0,2.0359,2.5209,2.7953,3.2935,3.8825,3.6775,3.9754,4.5338,0.0,4.5286,4.4652,4.5161,0.0,0.0,4.3888,3.7562,0.0,0.0,0.0,0.0,0.0,0.0,0.0,0.0,0.0,0.0,0.0,0.0,0.0,0.0,0.0,2.005,0.0,0.0,0.0,0.0,0.0,2.5355,2.3013,0.0,0.0,0.0,0.0,0.0,0.0,0.0,0.0,0.0,0.0,0.0,0.0,0.0,0.0,1.6183,1.3803,1.1438,0.934,0.8532,0.7528,0.6437,0.6437,0.6445,0.6361,0.6364,0.5347,0.3325,0.5464,0.6282,0.6173,0.6181,0.3878,0.031,0.4575,0.6611,0.712,0.6972,0.7565,0.8986,1.2774,1.4067,1.465,0.0,0.0,0.0,0.0,0.0,0.0,0.0,0.9698,0.0,0.0,0.0,0.0,0.0,0.0,2.4217,0.0,0.0,2.7452,2.5727,2.3574,0.0,0.0,0.0,1.2884,0.0,0.0,0.0,0.0,0.0,0.0,0.0,0.0,0.0,0.0,0.0,1.9805,0.0,0.0,0.0,0.0,0.0,4.2446,4.4801,0.0,0.0,4.5001,4.4947,4.4427,0.0,4.3323,4.0684,3.8062,4.0488,3.9113,3.612,3.3697,3.224,0.0,0.0,0.0,2.7799,2.4804,0.0,0.0,0.0,0.0,0.0,0.0,0.0,0.0,0.0,0.0,2.449,2.2611,2.1033,0.0,0.0,0.0,0.0,0.0,0.0,0.0,0.0,0.0,0.0,0.0,0.0,0.0,0.0,1.2005,1.0306,0.8368,0.8035,0.7429,0.6434,0.6437,0.6445,0.6364,0.4941,0.4642,0.526,0.3128,0.3737,0.6385,0.6382,0.5722,0.4663,0.6107,0.6928,0.7189,0.7553,0.8333,0.9732,1.2564,1.383,1.4656,0.6435,0.0,0.0,0.0,0.0,0.0,0.0,0.0,0.0,0.0,1.7355,0.0,2.0404,0.0,2.4745,0.0,2.7462,2.8676,2.8563,2.615,0.0,2.7174,2.1093,0.0,0.0,0.0,0.0,0.0,0.0,0.3945,0.0,0.0,0.0,0.0,0.0,0.0,0.0,0.0,3.5388,0.0,0.0,4.2955,0.0,0.0,4.4232,0.0,0.0,4.4181,4.3662,4.2824,4.227,4.1732,4.0738,4.0625,4.0037,3.5926,3.5033,3.4714,3.1402,3.2482,0.0,0.0,3.2811,0.0,0.0,0.0,0.0,0.0,0.0,0.0,0.0,0.0,2.5678,2.3737,2.1165,1.831,0.0,1.2534,0.0,0.0,0.0,0.0,0.0,0.0,0.0,0.0,0.0,0.0,0.0,0.0,0.9129,0.7716,0.7392,0.7006,0.6445,0.6445,0.6356,0.6372,0.505,0.4243,0.4045,0.1211,0.1917,0.5262,0.6215,0.6589,0.6777,0.6826,0.7057,0.7231,0.7564,0.8291,0.9425,1.1766,1.3593,1.5235,0.0,0.0,0.0,0.0,1.0113,0.0,0.0,0.0,1.5332,0.0,1.8979,2.1056,2.2061,2.4892,2.677,2.677,2.8839,0.0,3.1821,2.9761,0.0,0.0,2.8195,2.5278,2.3351,0.0,0.0,0.0,0.0,0.0,0.0,0.0,0.0,0.0,1.0039,0.0,2.358,2.7171,3.2787,3.9393,4.0182,4.1326,4.2506,4.1933,0.0,4.4333,4.3981,4.3315,4.251,4.2451,4.2014,4.1342,4.0624,4.0393,4.0155,3.8795,3.8286,3.8173,3.8173,3.8351,3.7584,3.3758,0.0,0.0,0.0,0.0,3.4486,0.0,0.0,0.0,0.0,0.0,0.0,2.6086,2.2522,1.83,1.3363,0.0,0.0,0.0,0.0,0.0,0.0,0.0,0.0,0.0,0.0,0.0,0.0,0.0,0.0,0.7392,0.6684,0.6435,0.6361,0.6364,0.6372,0.6287,0.639,0.4147,-0.0,-0.0,0.111,0.3232,0.5665,0.678,0.6722,0.6887,0.697,0.7214,0.7171,0.7607,0.8396,1.061,1.3367,1.6274,0.92,1.0343,1.1458,0.0,1.137,1.1648,0.0,0.0,0.0,0.0,2.4447,2.6786,2.7338,2.901,3.0163,3.0163,3.2032,0.0,0.0,0.0,0.0,3.2867,2.9844,2.7873,2.7418,2.3431,0.0,1.5725,0.0,0.0,0.7223,0.0,0.0,0.0,0.0,0.0,2.2064,2.6395,3.2707,3.9877,4.0195,4.1215,0.0,0.0,4.2204,4.2933,4.3031,4.3164,4.3152,4.2106,4.1947,4.2014,4.0756,4.0713,4.0955,3.9916,3.9591,3.942,3.877,3.8678,3.8657,3.8204,3.8237,3.7891,0.0,0.0,0.0,0.0,0.0,0.0,0.0,0.0,0.0,2.5554,1.9465,1.4254,0.0,0.0,0.0,0.0,0.0,0.0,0.0,0.0,0.0,0.0,0.0,0.0,0.0,0.0,0.0,0.5025,0.5834,0.6341,0.6442,0.6356,0.5553,0.4036,0.567,0.4147,-0.0,-0.0,0.0305,0.1029,0.4874,0.6658,0.6808,0.6836,0.7058,0.7171,0.716,0.8063,0.9539,1.0953,1.3599,1.6628,1.0368,0.0,0.0,1.3968,0.0,0.0,1.5866,0.0,0.0,2.411,2.7653,0.0,3.018,3.1631,3.2528,3.2686,3.3711,0.0,0.0,0.0,0.0,3.4599,3.2535,3.1153,3.0722,2.7352,0.0,2.0064,0.0,0.0,0.9646,0.0,0.0,0.0,0.0,1.4533,0.0,2.6696,3.3172,3.9,3.9241,0.0,0.0,4.0878,4.1264,4.1965,4.1885,4.2364,4.3035,4.2253,4.2434,4.2756,4.1335,4.1346,4.1683,4.0557,4.0381,4.0434,3.9947,3.9545,3.9437,3.9952,3.968,3.9212,3.8864,3.8471,3.8147,0.0,0.0,0.0,0.0,0.0,0.0,0.0,0.0,0.0,0.0,0.0,0.0,0.0,0.0,0.0,0.0,0.0,0.0,0.0,0.0,0.0,0.0,0.0,0.0,0.4933,0.5716,0.6217,0.635,0.6369,0.4847,0.1815,0.303,0.2324,-0.0,-0.0,-0.0,0.0207,0.3906,0.569,0.5875,0.674,0.7144,0.7265,0.7721,0.9203,1.0921,1.1126,1.3181,1.6065,0.0,0.0,0.0,0.0,0.0,0.0,0.0,2.2269,0.0,2.6291,0.0,3.1762,3.1681,3.3198,3.4276,3.4506,0.0,3.5498,3.6902,3.5812,3.555,3.6564,3.538,3.4223,3.3315,3.0748,0.0,0.0,0.0,0.0,0.0,0.0,0.0,0.0,0.0,0.0,0.0,2.8092,3.3924,0.0,3.7771,3.871,3.9849,3.9394,3.999,4.0977,4.0531,4.1276,4.2459,4.2459,4.2912,4.3257,4.204,4.2087,4.2385,4.1086,4.0972,4.1302,4.1253,4.073,4.0155,4.0256,4.0171,4.0136,4.0349,4.0366,4.0334,4.03,4.0103,0.0,0.0,0.0,0.0,0.0,0.0,0.0,0.0,0.0,0.0,0.0,0.0,0.0,0.0,0.0,0.0,0.0,0.0,0.0,0.0,0.0,0.0,0.0,0.6102,0.0,0.6372,0.0,0.4552,0.0808,0.0505,0.0404,0.0507,0.0515,0.052,0.0627,0.3234,0.458,0.5004,0.6546,0.7157,0.7265,0.8494,1.0204,1.2036,1.1155,1.254,1.4965,0.0,0.0,0.0,0.0,0.0,2.2443,2.5403,2.6819,2.8152,2.9922,3.2429,0.0,3.3219,3.4473,3.5516,3.5661,3.6409,0.0,0.0,0.0,0.0,3.775,3.6375,3.5423,3.5057,3.3213,3.0354,0.0,0.0,0.0,0.0,0.0,0.0,0.0,0.0,0.0,2.4,3.0827,0.0,3.5956,3.6603,3.7459,3.8323,3.8352,3.856,3.8841,3.9394,4.0478,4.1722,4.1722,4.219,4.2756,4.2502,4.2855,4.3221,4.236,4.2162,4.2216,4.2112,4.1508,4.1036,4.1538,4.1171,4.0642,4.0689,4.04,4.0053,4.0036,3.9747,3.9276,3.8707,0.0,0.0,0.0,0.0,0.0,0.0,0.0,0.0,0.0,0.0,0.0,0.0,0.0,0.0,0.0,0.0,0.0,0.0,0.0,0.0,0.0,0.0,0.0,0.0,0.0,0.0,0.5258,0.353,0.2741,0.2986,0.2996,0.2944,0.3027,0.3482,0.4839,0.6803,0.7062,0.7176,0.7368,0.8487,0.9783,1.1025,1.1328,1.2659,1.4369,0.0,0.0,0.0,0.0,0.0,0.0,0.0,3.121,0.0,3.2265,3.3993,3.517,3.5142,3.6116,3.709,3.7585,3.8173,3.8566,3.8879,3.833,3.8026,3.8033,3.7317,0.0,3.6165,3.5321,3.2887,2.8778,0.0,0.0,0.0,0.0,0.0,0.0,0.0,1.9788,0.0,0.0,0.0,3.578,3.6248,3.6991,3.781,3.8052,3.8202,3.8277,3.9119,3.9809,4.0478,4.0873,4.1459,4.2061,4.2061,4.2506,4.3031,4.2687,4.2725,4.297,4.318,4.2481,4.1766,4.2267,4.1856,4.1302,4.0905,4.0784,4.0625,4.0103,3.9817,3.9053,3.7042,3.3422,0.0,0.0,0.0,0.0,0.0,0.0,0.0,0.0,0.0,0.0,0.0,0.0,0.0,0.0,0.0,0.0,0.0,0.0,0.0,0.0,0.0,0.0,0.0,0.0,0.0,0.6377,0.5354,0.4993,0.5287,0.5441,0.5439,0.5469,0.5518,0.6121,0.7182,0.7176,0.7507,0.8171,0.9343,1.0502,1.1657,1.2229,1.296,1.3702,0.0,2.0195,0.0,0.0,2.7086,0.0,0.0,3.4753,3.5312,3.4553,3.5466,3.6414,3.7017,3.7685,3.8394,3.9159,3.9335,3.9347,3.9208,3.917,3.8895,3.8359,3.8194,3.7784,3.6957,3.6809,3.4812,0.0,0.0,0.0,0.0,0.0,0.0,0.0,0.0,0.0,0.0,0.0,3.2375,3.5606,3.5902,3.6466,3.7183,3.7567,3.7796,3.8023,3.8885,3.9265,3.9481,4.0285,4.094,4.1525,4.1852,4.2317,4.2834,4.2834,4.3089,4.3495,4.4057,4.3316,4.2549,4.3044,4.2596,4.1929,4.1464,4.137,4.1111,4.0351,3.963,3.8417,3.5813,3.2695,0.0,0.0,0.0,0.0,0.0,0.0,0.0,0.0,0.0,0.0,0.0,0.0,0.0,0.0,0.0,0.0,0.0,0.0,0.0,0.0,0.0,0.0,0.5962,0.0,0.638,0.0,0.6396,0.657,0.6791,0.7023,0.7149,0.716,0.7146,0.7184,0.7176,0.716,0.7721,0.8634,1.0124,1.127,1.2116,1.3146,1.3378,1.3161,0.0,0.0,0.0,0.0,0.0,0.0,0.0,3.6521,3.7564,3.747,3.7606,3.798,3.8611,3.8777,3.8887,3.9201,3.9201,3.9547,4.0393,3.9479,3.9208,3.9787,3.8735,3.804,3.7767,3.7224,3.5751,0.0,0.0,0.0,0.0,0.0,0.0,0.0,0.0,0.0,0.0,3.1738,3.3511,3.414,3.4874,3.5291,3.5629,3.583,3.636,3.7127,3.8023,3.8811,3.9481,4.0285,4.094,4.1722,4.2974,4.3432,4.3492,4.3492,4.3519,4.3689,4.4288,4.3842,4.3467,4.4509,4.3664,4.2658,4.3162,4.2016,4.0849,4.0754,3.851,3.6627,3.6927,3.3768,3.0742,0.0,0.0,0.0,0.0,0.0,0.0,0.0,0.0,0.0,0.0,0.0,0.0,0.0,0.0,0.0,0.0,0.0,0.0,0.0,0.0,0.4365,0.4529,0.5754,0.0,0.6366,0.6562,0.6671,0.6793,0.6915,0.7035,0.7252,0.7154,0.7157,0.7157,0.7157,0.7265,0.7607,0.978,1.081,1.1091,1.3264,1.3383,1.2459,0.0,0.0,0.0,0.0,0.0,0.0,0.0,3.8732,3.9384,3.9757,3.9017,3.8802,3.9518,3.9589,3.9813,4.0444,4.0624,4.0713,4.0728,4.0896,4.0551,3.9572,3.9921,3.9519,3.8142,3.8149,3.7149,0.0,0.0,0.0,0.0,0.0,0.0,0.0,0.0,2.8533,3.0543,3.2064,3.3307,3.4235,3.421,3.4634,3.5209,3.5588,3.6201,3.7035,3.7872,3.9002,4.0146,4.0873,4.0992,4.1142,4.2585,4.2974,4.3096,4.3492,4.3848,4.4179,4.4446,4.4282,4.4092,4.4405,4.3967,4.3322,4.269,4.2236,4.162,4.0534,3.7794,3.5244,3.4325,3.2455,3.0112,0.0,0.0,0.0,0.0,0.0,0.0,0.0,0.0,0.0,0.0,0.0,0.0,0.0,0.0,0.0,0.0,0.0,0.0,0.1898,0.0,0.3531,0.4636,0.555,0.6152,0.6448,0.6564,0.6684,0.6806,0.6929,0.7048,0.7154,0.7154,0.7154,0.7154,0.7154,0.7154,0.7379,0.8974,0.9896,1.0405,1.1999,1.2567,1.2356,3.2529,0.0,3.5138,0.0,3.7969,3.9151,3.9944,4.0503,4.092,4.1069,4.0654,4.0345,4.0516,4.0696,4.0965,4.1353,4.1619,4.1515,4.1029,4.1774,4.1632,4.0081,4.0738,0.0,3.8913,3.8767,3.7972,3.6429,3.3582,0.0,0.0,0.0,0.0,0.0,2.9165,3.0482,3.2224,3.2381,3.3115,3.4063,3.3797,3.4134,3.4799,3.5426,3.6201,3.7035,3.7872,3.906,4.027,4.1194,4.1194,4.1075,4.2443,4.2912,4.3035,4.3654,4.4179,4.4558,4.4708,4.4763,4.4681,4.4491,4.4268,4.3786,4.2511,4.2223,4.1664,3.9592,3.6682,3.4022,3.2386,3.0738,2.8675,0.0,0.0,0.0,0.0,0.0,0.0,0.0,0.0,0.4552,0.2763,0.0,0.0,0.0,0.0,0.0,0.0,0.0,0.0,0.0,0.0,0.0,0.0,0.0,0.6062,0.6393,0.6513,0.6738,0.6861,0.698,0.7078,0.7154,0.7154,0.7154,0.7154,0.7154,0.7154,0.7379,0.8624,0.9457,0.9911,1.1372,1.1946,1.2073,3.5353,3.687,3.8417,3.956,4.0347,4.0775,4.079,4.1617,4.2019,4.1193,4.2648,4.3115,4.1535,4.2044,4.2275,4.148,4.1619,4.1619,4.1381,4.193,4.2175,0.0,0.0,4.0366,4.0366,3.8943,3.8127,3.7839,0.0,0.0,3.1837,0.0,0.0,3.1859,3.1829,3.2274,3.3068,3.3068,3.3227,3.3398,3.3641,3.3894,3.4243,3.5264,3.6201,3.7035,3.7872,3.8738,3.9625,4.0992,4.1525,4.1722,4.3157,4.3568,4.373,4.4333,4.4502,4.4614,4.5161,4.5303,4.5303,4.5303,4.4664,4.3906,4.3182,4.204,4.0378,3.7748,3.512,3.3002,3.2258,2.926,2.656,2.5547,0.0,0.0,0.0,0.0,0.0,0.0,0.5435,0.3933,0.2956,0.0,0.0,0.0,0.0,0.0,0.0,0.0,0.0,0.1076,0.2542,0.0,0.2415,0.483,0.6098,0.6213,0.6639,0.6864,0.6986,0.71,0.7154,0.7154,0.7154,0.7154,0.7154,0.7154,0.7154,0.7379,0.9064,0.9846,1.0056,1.1744,1.2073,1.1612,3.9624,4.0457,4.1294,4.165,4.1897,4.2304,4.298,4.2707,4.2509,4.297,4.376,4.3881,4.2805,0.0,4.3367,0.0,4.2725,4.2725,0.0,4.3374,4.3594,4.3031,4.2679,4.1876,4.0396,3.9906,3.915,3.8142,0.0,0.0,0.0,3.2777,3.2599,3.3341,3.2937,3.2819,3.3081,3.3081,3.3154,3.324,3.3556,3.3713,3.3894,3.4551,3.5642,3.6972,3.7204,3.8576,4.0285,4.1194,4.1852,4.238,4.3295,4.3628,4.373,4.4333,4.4746,4.5108,4.525,4.5303,4.5197,4.4855,4.4575,4.4092,4.2891,4.1255,3.8998,3.5837,3.4132,3.2583,3.0465,2.8287,2.6063,2.3819,0.0,0.0,0.0,0.0,0.0,0.0,0.0,0.4105,0.0,0.0746,0.0,0.0,0.0,0.0,0.0,0.0,0.0,0.0,0.2678,0.0,0.3224,0.4796,0.5665,0.5904,0.6401,0.6766,0.7103,0.7138,0.7154,0.7154,0.7154,0.7154,0.7154,0.7154,0.7706,0.8371,0.8484,0.9382,1.0394,1.059,1.0806,1.1034,4.1986,4.2509,4.3044,4.3174,4.342,4.385,4.4679,4.4037,4.3521,4.3849,4.422,4.4205,4.3364,4.3866,0.0,4.3364,4.2981,0.0,4.2835,4.3912,4.431,4.3864,4.3602,4.2794,4.1271,0.0,0.0,3.8202,3.7634,3.6838,3.5722,3.4664,3.4178,3.4108,3.3386,3.3081,3.3081,3.3081,3.3154,3.324,3.3556,3.3797,3.3894,3.462,3.5722,3.6958,3.7295,3.8576,4.0216,4.0873,4.1591,4.2317,4.3035,4.3432,4.373,4.4333,4.491,4.5355,4.558,4.5784,4.5784,4.5018,4.4801,4.4321,4.2518,4.0291,3.7839,3.5156,3.3241,3.1349,2.9008,2.7116,2.5104,2.265,0.0,0.0,0.0,0.0,0.0,0.0,0.0,0.0,0.0,0.1047,0.0,0.0,0.0,0.0,0.0,0.0,0.0,0.0893,0.2907,0.0,0.3564,0.4739,0.5527,0.581,0.6197,0.6646,0.7046,0.7046,0.7043,0.7154,0.7154,0.7154,0.7265,0.7706,0.8149,0.8592,0.8916,0.9592,1.0382,1.0241,1.0351,1.0692,4.2736,4.326,0.0,0.0,4.4736,0.0,4.5687,4.5274,4.4662,4.3927,4.422,4.4128,4.3364,4.3974,4.4128,4.3364,0.0,0.0,0.0,4.3615,4.4434,4.451,4.3879,0.0,4.2613,4.0441,3.899,3.8277,3.7323,3.6936,3.6858,3.5196,3.4397,3.4397,3.3496,3.3081,3.3081,3.3081,3.3154,3.3313,3.3641,3.381,3.416,3.5182,3.6122,3.6972,3.7796,3.8649,3.9481,4.0285,4.0992,4.1656,4.2443,4.3113,4.373,4.4333,4.491,4.5407,4.597,4.6477,4.6619,4.5511,4.5197,4.4545,4.1994,3.9345,3.6957,3.5414,3.2404,2.9591,2.7956,2.587,2.378,2.171,1.839,1.5277,1.3252,0.0,0.0,0.0,0.0,0.0,0.0,0.1532,0.1447,0.0,0.0,0.0,0.0,0.0,-0.0396,0.1515,0.3131,0.3769,0.3418,0.4673,0.5501,0.5687,0.6114,0.6383,0.6715,0.6715,0.6824,0.7154,0.7154,0.7265,0.7376,0.8371,0.8592,0.8374,1.0029,1.0363,1.0036,1.0472,1.0692,1.0692,0.0,0.0,4.5305,4.5362,4.4644,4.4282,4.511,4.3711,4.271,4.3364,4.3506,4.3521,4.3284,4.3442,4.3521,4.3284,4.314,4.2996,4.2996,4.3364,4.3819,4.4434,4.3745,4.3027,4.241,4.1308,4.0189,3.903,3.7601,3.6936,3.6858,3.5196,3.4397,3.4397,3.3496,3.3081,3.3081,3.3081,3.2909,3.2736,3.3386,3.3543,3.3373,3.4384,3.5264,3.6122,3.6894,3.7782,3.8782,4.0653,4.1393,4.1722,4.2974,4.3492,4.373,4.4333,4.491,4.5303,4.5459,4.5631,4.5528,4.4855,4.4316,4.3405,4.1243,3.9391,3.7309,3.4341,3.1254,2.8729,2.7256,2.5041,2.2416,1.9529,1.687,1.4145,1.1163,0.0,0.0,0.0,0.4072,0.2984,0.1695,0.1595,0.1198,0.0,0.0,0.0,0.0,0.0,-0.0,0.1516,0.2455,0.2993,0.3418,0.415,0.5013,0.5786,0.5922,0.6047,0.6386,0.6386,0.6606,0.6824,0.6824,0.7487,0.8481,0.8263,0.9251,1.0672,1.0249,1.0472,1.1131,1.0802,1.0692,1.0692,4.5175,4.5563,4.576,4.551,4.4812,4.4419,4.4812,4.3491,4.2644,4.3205,4.2996,4.2769,4.2769,4.2769,4.2769,4.2769,4.2769,4.2769,4.2769,4.3061,4.3521,4.3897,4.3506,4.297,4.2344,4.124,4.005,3.8826,3.7127,3.6281,3.6281,3.4607,3.3556,3.3104,3.2612,3.2164,3.1801,3.1989,3.2164,3.2438,3.3116,3.3458,3.3713,3.423,3.5182,3.6281,3.6724,3.7691,3.9017,4.0516,4.126,4.1722,4.2772,4.3372,4.3671,4.4006,4.4485,4.4947,4.4947,4.5108,4.5074,4.4232,4.3588,4.258,4.0415,3.8561,3.6412,3.3219,3.0244,2.7499,2.5314,2.3537,2.1239,1.7535,1.5376,1.3211,1.0378,0.7922,0.0,0.4924,0.3823,0.2822,0.1718,0.1617,0.1313,0.0605,0.0,0.0,0.0511,0.052,0.0937,0.1639,0.2185,0.2635,0.3081,0.3924,0.4772,0.5603,0.5603,0.5826,0.6049,0.6049,0.6272,0.6495,0.6935,0.7703,0.8696,0.9144,1.0025,1.1118,1.0798,1.0802,1.1131,1.0802,1.0692,1.0692,4.5977,4.5977,4.5817,4.5258,4.511,4.4887,4.4358,4.3678,4.314,4.314,4.2541,4.2092,4.2092,4.2092,4.2092,4.2092,4.2092,4.2092,4.2092,4.2769,4.314,4.314,4.314,4.2857,4.2276,4.0689,3.9232,3.7796,3.6188,3.5386,3.5386,3.3797,3.2624,3.1813,3.1625,3.1169,3.0543,3.0902,3.1524,3.2314,3.2945,3.3628,3.423,3.4397,3.5251,3.6582,3.6802,3.7829,3.9177,4.0377,4.1153,4.1672,4.2636,4.3256,4.3628,4.3628,4.3948,4.4333,4.4333,4.4618,4.4606,4.3531,4.2876,4.1885,3.9698,3.758,3.5245,3.2158,2.9367,2.6409,2.3115,2.1756,1.9844,1.5732,1.4005,1.2271,0.9792,0.0,0.5729,0.4724,0.3624,0.2622,0.1718,0.1621,0.1624,0.1624,0.1652,0.0,0.0,0.1695,0.17,0.1676,0.2124,0.2481,0.2635,0.3784,0.4706,0.5268,0.5268,0.538,0.5712,0.5712,0.5935,0.6272,0.7043,0.7811,0.8689,0.9915,1.0578,1.0911,1.135,1.1131,1.0692,1.0692,1.0692,1.0582,4.6668,4.6738,4.6512,4.5769,4.502,4.4358,4.3585,4.2769,4.2325,4.2325,4.2175,4.2092,4.2092,4.2092,4.2092,4.2092,4.2092,4.2092,4.2092,4.2242,4.2325,4.2325,4.2325,4.2281,4.2164,4.0149,3.8092,3.6015,3.5006,3.4551,3.4551,3.3569,3.2982,3.281,3.1989,3.1725,3.2025,3.1901,3.1889,3.2152,3.3386,3.3823,3.3641,3.4147,3.4551,3.4937,3.6425,3.7035,3.7796,4.1156,4.1933,4.1817,4.3801,4.4048,4.3628,4.3628,4.3687,4.373,4.373,4.3383,4.2986,4.2802,4.2173,4.1229,3.9571,3.758,3.519,3.1997,2.897,2.5857,2.2616,2.0508,1.8044,1.4017,1.2453,1.0617,0.0,0.0,0.4626,0.3624,0.2521,0.1818,0.1617,0.164,0.1655,0.1655,0.1682,0.1697,0.1697,0.1726,0.174,0.1736,0.1849,0.2197,0.2683,0.336,0.4035,0.4592,0.4592,0.4929,0.5491,0.5491,0.5603,0.5935,0.6044,0.726,0.9251,0.8923,0.9919,1.1459,1.1021,1.0802,1.0692,1.0472,1.0363,1.0366,4.6807,4.6512,4.6001,4.5169,4.4358,4.36,4.2769,4.2325,4.2092,4.2092,4.2092,4.2092,4.2092,4.2092,4.2092,4.2092,4.1619,4.1254,4.1254,4.1814,4.2092,4.2092,4.2092,4.1594,4.0381,3.9021,3.7421,3.5615,3.4772,3.4397,3.4397,3.3484,3.2525,3.1536,3.1347,3.0812,3.0102,3.0464,3.108,3.1865,3.2747,3.3458,3.3979,3.4314,3.4937,3.5869,3.6646,3.8001,3.9755,4.1903,4.2919,4.3524,4.4841,4.4787,4.4191,4.4191,4.3926,4.3492,4.3174,4.2851,4.2301,4.11,4.0476,3.9612,3.7291,3.526,3.3032,2.9926,2.6992,2.4028,2.1114,1.8808,1.6319,1.3077,1.1153,0.0,0.0,0.5076,0.3836,0.332,0.2286,0.1664,0.1664,0.1677,0.1685,0.1685,0.1712,0.1729,0.1729,0.1758,0.1774,0.1774,0.1774,0.2115,0.2693,0.303,0.3363,0.4033,0.4369,0.4592,0.4931,0.5268,0.5491,0.5601,0.6596,0.7808,0.9133,0.9364,1.0249,1.124,1.0472,1.0257,1.0253,1.0036,1.0036,1.0036,4.6214,4.5841,4.5184,4.4358,4.3741,4.3061,4.2242,4.2092,4.2092,4.2092,4.2092,4.2092,4.2092,4.1912,4.1717,4.1717,4.076,4.0122,4.0122,4.073,4.1165,4.1437,4.1504,4.0567,3.8363,3.7861,3.6727,3.4979,3.4371,3.4063,3.4063,3.3411,3.2264,3.089,3.108,3.026,2.891,2.9818,3.08,3.1853,3.2476,3.3445,3.4397,3.4397,3.5332,3.6674,3.6971,3.8789,4.1224,4.2642,4.3703,4.4689,4.5728,4.5533,4.4903,4.4738,4.4054,4.3235,4.271,4.2221,4.138,3.9627,3.8824,3.776,3.5157,3.317,3.1089,2.8272,2.5436,2.2567,1.9571,1.72,1.4767,1.2098,0.0,0.0,0.0,0.4568,0.3192,0.298,0.2236,0.1704,0.1704,0.171,0.1714,0.1714,0.1743,0.176,0.176,0.1782,0.1907,0.2242,0.1907,0.202,0.2469,0.2469,0.2805,0.3363,0.381,0.4257,0.4704,0.5264,0.5601,0.5935,0.7368,0.8251,0.891,0.9585,1.0253,1.0692,1.0033,0.9816,0.9816,0.9706,0.9706,0.9706,4.4662,4.4662,4.4358,4.3506,4.3364,4.3061,4.2242,4.2092,4.2092,4.2092,4.2092,4.2092,4.2092,4.1254,4.0689,4.0689,3.9388,3.8556,3.8556,3.8123,3.8399,3.9332,3.9744,3.888,3.6811,3.6743,3.5605,3.3326,3.324,3.3154,3.3154,3.3154,3.2982,3.2896,3.2164,3.1725,3.1472,3.2127,3.2289,3.2389,3.37,3.4314,3.4397,3.4397,3.495,3.5978,3.733,3.8425,3.9797,4.3385,4.4171,4.4065,4.6175,4.6311,4.5566,4.4887,4.3715,4.2648,4.2585,4.1033,3.9414,3.9272,3.7699,3.588,3.4857,3.2805,3.0566,2.8538,2.5671,2.2408,1.865,1.6061,1.3527,1.0677,0.0,0.0,0.5413,0.4146,0.298,0.1917,0.1704,0.1704,0.1704,0.173,0.1746,0.1746,0.1774,0.1791,0.1791,0.1794,0.2353,0.3469,0.2353,0.1795,0.1907,0.1907,0.2132,0.2806,0.2806,0.3699,0.5371,0.559,0.6369,0.7482,0.7593,0.8146,0.892,0.8702,0.9151,0.9926,0.9816,0.9816,0.9816,0.9489,0.9379,0.9379,4.4434,4.4128,4.3476,4.2541,4.1986,4.1365,4.0446,4.0816,4.1156,4.1156,4.0843,4.0698,4.0698,3.955,3.8696,3.8696,3.7623,3.6983,3.6983,3.6784,3.711,3.817,3.7963,3.7179,3.5801,3.5455,3.451,3.3081,3.3081,3.3081,3.3081,3.3081,3.2797,3.2164,3.1913,3.1472,3.0847,3.1536,3.1965,3.2389,3.3373,3.4063,3.4397,3.4397,3.5492,3.7129,3.7686,3.9581,4.2047,4.3457,4.4407,4.5025,4.5859,4.5665,4.486,4.3685,4.2299,4.1001,4.0585,3.9838,3.8896,3.7472,3.6091,3.4489,3.2179,3.038,2.8745,2.7053,2.3359,2.0084,1.843,1.4983,1.1702,0.9704,0.0,0.6248,0.4388,0.3733,0.3076,0.187,0.1761,0.1761,0.1761,0.1771,0.1778,0.1778,0.1789,0.1795,0.1795,0.2465,0.3135,0.358,0.3135,0.2912,0.2912,0.213,0.2242,0.3249,0.3586,0.459,0.5929,0.6482,0.7038,0.7593,0.8039,0.8481,0.8923,0.904,0.9265,0.9489,0.9379,0.9268,0.9158,0.893,0.8819,0.893,4.2441,4.2166,4.1613,4.1173,4.0449,3.9726,3.9202,3.9432,3.9674,3.9674,3.934,3.9089,3.9089,3.7932,3.7178,3.7178,3.6074,3.5373,3.5373,3.5292,3.5772,3.7232,3.6588,3.5792,3.5031,3.458,3.3979,3.3081,3.3081,3.3081,3.3081,3.3154,3.2797,3.2152,3.2351,3.1813,3.0836,3.1801,3.2326,3.2401,3.3373,3.3979,3.4397,3.4397,3.5872,3.7957,3.8154,4.0295,4.3257,4.3681,4.4499,4.5405,4.5624,4.5207,4.4378,4.3153,4.1582,4.0024,3.9372,3.8472,3.7382,3.5867,3.468,3.3174,3.0461,2.8822,2.7327,2.5548,2.1669,1.8282,1.7435,1.3751,1.0558,0.9123,0.7919,0.6371,0.4472,0.3802,0.3135,0.1907,0.1795,0.1795,0.1795,0.1795,0.1795,0.1795,0.1795,0.1795,0.1795,0.2911,0.3804,0.4137,0.4137,0.436,0.4697,0.3135,0.28,0.358,0.4364,0.5369,0.6596,0.7041,0.7595,0.8149,0.8595,0.8927,0.9037,0.9154,0.9268,0.9158,0.8933,0.8823,0.8823,0.8927,0.8923,0.9034,3.8279,3.8401,3.8659,3.955,3.893,3.8468,3.8821,3.8117,3.7602,3.7602,3.7602,3.7588,3.7588,3.6651,3.6044,3.6044,3.4703,3.3884,3.3884,3.3382,3.4139,3.6441,3.5703,3.4946,3.441,3.4397,3.3992,3.3081,3.3081,3.3081,3.3081,3.3313,3.3398,3.3398,3.3907,3.33,3.2077,3.37,3.3615,3.2389,3.3882,3.4397,3.4397,3.441,3.5886,3.8028,3.8633,4.0401,4.2617,4.3991,4.451,4.4662,4.5405,4.5151,4.4441,4.3716,4.1893,3.9981,3.9302,3.6855,3.4624,3.4624,3.3467,3.1853,3.0124,2.8473,2.6597,2.4417,2.0945,1.7539,1.5335,1.2591,1.0237,0.9047,0.7934,0.6705,0.5584,0.4359,0.3135,0.1907,0.1795,0.1795,0.1795,0.1795,0.1795,0.1795,0.1795,0.1795,0.1795,0.3023,0.4137,0.5361,0.5361,0.5922,0.7043,0.4808,0.358,0.3694,0.4806,0.6033,0.7157,0.7485,0.8266,0.9382,0.9382,0.9382,0.9382,0.9051,0.894,0.883,0.8598,0.8484,0.8595,0.9467,0.9798,1.0017,3.7833,3.7874,3.7691,3.7263,3.7004,3.6603,3.6022,3.6332,3.6565,3.6565,3.6207,3.5968,3.5968,3.4775,3.3967,3.3967,3.3581,3.3319,3.3319,3.3169,3.3389,3.4126,3.3896,3.3649,3.3496,3.3496,3.3326,3.3081,3.3081,3.3081,3.3081,3.3313,3.3398,3.3398,3.3386,3.3116,3.2772,3.3386,3.3471,3.3116,3.4063,3.4397,3.445,3.4868,3.652,3.8661,3.9267,4.0972,4.3075,4.3491,4.363,4.3615,4.324,4.2932,4.252,4.1171,3.9875,3.8657,3.7576,3.5808,3.4234,3.3953,3.2203,3.0124,2.838,2.6999,2.5567,2.3393,1.9808,1.6558,1.5122,1.1946,0.9037,0.782,0.8045,0.7706,0.5695,0.5139,0.436,0.3246,0.2353,0.1795,0.1795,0.1795,0.1795,0.1795,0.2354,0.3136,0.4249,0.5252,0.6063,0.6814,0.6814,0.6971,0.7402,0.5832,0.5457,0.6252,0.6782,0.7514,0.867,0.8784,0.9131,0.9703,0.9474,0.9478,0.9692,0.9246,0.9089,0.9192,0.9525,0.9699,0.9809,1.0453,1.0672,1.0781,3.6108,3.6161,3.6075,3.5804,3.547,3.5069,3.4614,3.4725,3.4886,3.4886,3.459,3.4469,3.4469,3.3589,3.3081,3.3081,3.3154,3.324,3.3313,3.3313,3.3313,3.324,3.324,3.3154,3.3081,3.3081,3.3081,3.3081,3.2711,3.2711,3.324,3.3043,3.3215,3.3654,3.3556,3.3386,3.3215,3.3641,3.3641,3.3484,3.4147,3.4397,3.4546,3.5473,3.7111,3.901,3.9961,4.1587,4.3329,4.3329,4.3329,4.317,4.2237,4.199,4.1738,4.0407,3.9009,3.7732,3.6994,3.5076,3.3192,3.2521,3.105,2.9304,2.7558,2.6031,2.4375,2.2089,1.8904,1.6051,1.4393,1.1629,0.9258,0.8045,0.838,0.8266,0.6366,0.5695,0.5139,0.436,0.28,0.213,0.3135,0.28,0.2464,0.2462,0.3267,0.4296,0.587,0.6586,0.7095,0.7508,0.7973,0.8241,0.8326,0.7597,0.7327,0.7511,0.8052,0.8678,0.9381,0.9381,0.9497,0.961,0.9497,0.9497,0.9603,0.9394,0.9242,0.9114,0.9637,0.9687,0.9676,1.0598,1.0899,1.1008,3.3721,3.3822,3.4072,3.4886,3.4395,3.3994,3.4308,3.3654,3.3154,3.3154,3.3154,3.3154,3.3154,3.3068,3.2982,3.3081,3.3227,3.3471,3.3713,3.3713,3.3641,3.3398,3.3398,3.3313,3.3081,3.3081,3.3081,3.3081,3.2164,3.2339,3.3398,3.276,3.3018,3.4076,3.4314,3.4063,3.3569,3.4147,3.4063,3.3556,3.4147,3.4397,3.4546,3.6181,3.7648,3.9092,4.0588,4.2048,4.3329,4.3329,4.3329,4.317,4.2155,4.1908,4.1645,4.0689,3.8863,3.7098,3.7135,3.4675,3.1887,3.0787,3.0007,2.9061,2.7263,2.5315,2.3132,2.0735,1.8213,1.5677,1.3249,1.1533,1.0131,0.9047,0.894,0.8491,0.7376,0.6255,0.5584,0.5584,0.3469,0.3025,0.5148,0.4487,0.3818,0.392,0.4555,0.5637,0.7015,0.7225,0.7399,0.7758,0.8813,0.9408,0.9418,0.9557,0.8956,0.7758,0.8942,0.9418,0.9418,0.9418,0.9418,0.9418,0.9538,0.9535,0.9535,0.9637,0.9514,0.9268,0.946,0.9284,0.9154,1.0449,1.0932,1.1042,3.3232,3.3417,3.3576,3.3734,3.3734,3.3781,3.3823,3.3725,3.3556,3.3556,3.3398,3.3398,3.3556,3.2599,3.2164,3.2723,3.281,3.3043,3.3628,3.3713,3.3641,3.3398,3.3398,3.3313,3.3081,3.3081,3.3081,3.3081,3.3056,3.3056,3.3154,3.3556,3.3725,3.381,3.423,3.4314,3.423,3.4314,3.4314,3.423,3.4314,3.4397,3.4585,3.6599,3.7993,3.9162,4.1122,4.246,4.3329,4.3329,4.3329,4.2996,4.1365,4.0859,4.0603,3.8997,3.773,3.6695,3.6339,3.4749,3.2984,3.1381,2.9031,2.6651,2.507,2.3764,2.2089,1.9635,1.7068,1.4714,1.3141,1.0887,0.9154,0.8937,0.894,0.8826,0.8491,0.7487,0.6705,0.6705,0.5475,0.483,0.5461,0.5656,0.5815,0.6269,0.7116,0.7951,0.8752,0.8668,0.8734,0.9196,0.9439,0.9612,0.9724,0.9758,0.958,0.9202,0.955,0.9727,0.9727,0.9727,0.9727,0.9727,1.0801,1.104,1.0913,1.1841,1.2013,1.1758,1.1808,1.185,1.1828,1.2194,1.2228,1.2206,3.3081,3.3154,3.324,3.324,3.3398,3.3556,3.3398,3.3556,3.3628,3.3556,3.3556,3.3556,3.3713,3.3018,3.2673,3.2871,3.2525,3.2612,3.3288,3.3373,3.3386,3.3556,3.3484,3.3313,3.324,3.3154,3.3154,3.324,3.2785,3.2871,3.3569,3.3386,3.353,3.405,3.4314,3.4397,3.4397,3.4397,3.4397,3.4397,3.4397,3.4397,3.4682,3.7235,3.8435,3.9258,4.1689,4.2915,4.3329,4.3329,4.2996,4.2415,4.1029,4.0246,3.9651,3.8317,3.7121,3.6081,3.5794,3.4078,3.1973,3.0603,2.7944,2.5393,2.429,2.2376,2.0261,1.8715,1.6903,1.4973,1.294,1.1542,1.0245,0.9047,0.894,0.896,0.9032,0.8024,0.7483,0.8115,0.6633,0.5853,0.6481,0.7008,0.7516,0.8096,0.8395,0.8787,0.949,0.9202,0.9271,0.9707,0.971,0.9744,0.9822,0.9822,0.9785,0.971,0.9785,0.97,0.9579,0.97,0.97,0.9579,1.0906,1.1394,1.1386,1.249,1.268,1.2298,1.235,1.2276,1.2018,1.1828,1.1473,1.1143,3.324,3.324,3.324,3.3068,3.3313,3.3484,3.3154,3.3569,3.3725,3.3556,3.3725,3.3713,3.3628,3.3458,3.3116,3.2587,3.2239,3.2326,3.2846,3.3031,3.3215,3.3556,3.3386,3.3313,3.3398,3.324,3.324,3.3313,3.2426,3.2673,3.3992,3.3091,3.3262,3.4314,3.4397,3.4397,3.4397,3.4397,3.4397,3.4397,3.4397,3.4533,3.5063,3.7839,3.9078,3.9643,4.2311,4.3329,4.325,4.317,4.2578,4.1811,4.0689,3.9812,3.9046,3.7952,3.6734,3.5571,3.5475,3.3163,3.0673,2.9649,2.7192,2.4706,2.3971,2.125,1.8773,1.8034,1.6983,1.5371,1.2959,1.2302,1.1537,0.9346,0.9015,0.9055,0.9174,0.8388,0.8199,0.9248,0.7644,0.6832,0.7655,0.8263,0.8747,0.9339,0.8978,0.9045,0.9646,0.9395,0.9457,0.97,0.97,0.9819,1.0058,0.994,0.9943,1.0061,0.9822,0.9579,0.9457,0.9943,0.994,0.9822,1.1265,1.1868,1.1993,1.284,1.3071,1.256,1.2644,1.2233,1.1622,1.1213,1.0693,1.0405,3.3556,3.3823,3.3738,3.3129,3.3725,3.4063,3.3484,3.3894,3.4314,3.423,3.416,3.3907,3.3471,3.2351,3.1371,3.089,3.1689,3.2314,3.2401,3.3031,3.33,3.3116,3.3031,3.3129,3.3398,3.3398,3.3326,3.3154,3.33,3.3458,3.3484,3.3882,3.4147,3.416,3.4314,3.4397,3.4397,3.4397,3.4397,3.4397,3.4397,3.5186,3.6537,3.8266,3.9658,4.1055,4.2713,4.3329,4.317,4.2415,4.2073,4.1728,3.9899,3.9285,3.8854,3.7348,3.6238,3.5463,3.4775,3.3032,3.117,3.014,2.7094,2.3892,2.2259,2.0704,1.9083,1.7565,1.6345,1.4992,1.3291,1.2157,1.1024,0.9547,0.932,0.9327,0.9347,0.9231,0.9242,0.9378,0.9261,0.8978,0.85,0.8846,0.9156,0.9281,0.9297,0.9428,0.9791,0.9447,0.9339,0.9335,0.9335,0.9937,1.1137,1.0176,1.0304,1.139,1.0061,0.9457,0.9822,1.0906,1.139,1.1511,1.3655,1.4376,1.4267,1.524,1.5116,1.4381,1.4945,1.4099,1.2534,1.2573,1.2841,1.2975,3.2612,3.2698,3.2698,3.2351,3.2686,3.3031,3.3043,3.3471,3.381,3.3641,3.3641,3.3471,3.2846,3.1913,3.1205,3.0925,3.1448,3.1725,3.1536,3.2599,3.3129,3.3043,3.3288,3.3556,3.3823,3.3569,3.3398,3.324,3.3313,3.3484,3.3823,3.3979,3.4063,3.4243,3.4397,3.4397,3.4397,3.4397,3.4397,3.4397,3.4397,3.5322,3.6825,3.8375,3.9796,4.1252,4.2247,4.2578,4.2415,4.1547,4.0859,4.0246,3.9461,3.8881,3.8291,3.7083,3.6143,3.5271,3.3848,3.205,3.0328,2.9282,2.6073,2.3005,2.2027,2.0259,1.8405,1.7085,1.6464,1.544,1.3383,1.258,1.1667,0.9726,0.9381,0.9412,0.9496,0.9386,0.918,0.9145,0.921,0.9128,0.9001,0.9179,0.9335,0.9579,0.9457,0.9335,0.9457,0.9217,0.9098,0.9098,0.9217,0.9576,1.0176,1.0664,1.0785,1.0664,1.0539,1.0058,0.9339,0.9822,1.0425,1.1027,1.2697,1.378,1.4391,1.4992,1.5472,1.558,1.5219,1.45,1.3756,1.332,1.3068,1.2952]},{"header":{"parameterUnit":"m.s-1","parameterCategory":1,"la1":30.6,"la2":28.766,"lo1":-90.7593,"lo2":-88.6598,"dy":0.0162,"dx":0.0183,"nx":116,"ny":114,"refTime":"2023-05-15T12:00:00:Z","depth":0,"parameterNumber":3,"parameterNumberName":"V-component_of_WINDS"},"data":[0.0,0.0,0.0,0.0,0.0,0.0,0.0,0.0,0.0,0.0,0.0,0.0,0.0,0.0,0.0,0.0,0.0,0.0,0.0,0.0,0.0,0.0,0.0,0.0,0.0,0.0,0.0,0.0,0.0,0.0,0.0,0.0,0.0,0.0,0.0,0.0,0.0,0.0,0.0,0.0,0.0,0.0,0.0,0.0,0.0,0.0,0.0,0.0,0.0,0.0,0.0,0.0,0.0,0.0,0.0,0.0,0.0,0.0,0.0,0.0,0.0,0.0,0.0,0.0,0.0,0.0,0.0,0.0,0.0,0.0,0.0,0.0,0.0,0.0,0.0,0.0,0.0,0.0,0.0,0.0,0.0,0.0,0.0,0.0,0.0,0.0,0.0,0.0,0.0,0.0,0.0,0.0,0.0,0.0,0.0,0.0,0.0,0.0,0.0,0.0,0.0,0.0,0.0,0.0,0.0,0.0,0.0,0.0,0.0,0.0,0.0,0.0,0.0,0.0,0.0,0.0,0.0,0.0,0.0,0.0,0.0,0.0,0.0,0.0,0.0,0.0,0.0,0.0,0.0,0.0,0.0,0.0,0.0,0.0,0.0,0.0,0.0,0.0,0.0,0.0,0.0,0.0,0.0,0.0,0.0,0.0,0.0,0.0,0.0,0.0,0.0,0.0,0.0,0.0,0.0,0.0,0.0,0.0,0.0,0.0,0.0,0.0,0.0,0.0,0.0,0.0,0.0,0.0,0.0,0.0,0.0,0.0,0.0,0.0,0.0,0.0,0.0,0.0,0.0,0.0,0.0,0.0,0.0,0.0,0.0,0.0,0.0,0.0,0.0,0.0,0.0,0.0,0.0,0.0,0.0,0.0,0.0,0.0,0.0,0.0,0.0,0.0,0.0,0.0,0.0,0.0,0.0,0.0,0.0,0.0,0.0,0.0,0.0,0.0,0.0,0.0,0.0,0.0,0.0,0.0,0.0,0.0,0.0,0.0,0.0,0.0,0.0,0.0,0.0,0.0,0.0,0.0,0.0,0.0,0.0,0.0,0.0,0.0,0.0,0.0,0.0,0.0,0.0,0.0,0.0,0.0,0.0,0.0,0.0,0.0,0.0,0.0,0.0,0.0,0.0,0.0,0.0,0.0,0.0,0.0,0.0,0.0,0.0,0.0,0.0,0.0,0.0,0.0,0.0,0.0,0.0,0.0,0.0,0.0,0.0,0.0,0.0,0.0,0.0,0.0,0.0,0.0,0.0,0.0,0.0,0.0,0.0,0.0,0.0,0.0,0.0,0.0,0.0,0.0,0.0,0.0,0.0,0.0,0.0,0.0,0.0,0.0,0.0,0.0,0.0,0.0,0.0,0.0,0.0,0.0,0.0,0.0,0.0,0.0,0.0,0.0,0.0,0.0,0.0,0.0,0.0,0.0,0.0,0.0,0.0,0.0,0.0,0.0,0.0,0.0,0.0,0.0,0.0,0.0,0.0,0.0,0.0,0.0,0.0,0.0,0.0,0.0,0.0,0.0,0.0,0.0,0.0,0.0,0.0,0.0,0.0,0.0,0.0,0.0,0.0,0.0,0.0,0.0,0.0,0.0,0.0,0.0,0.0,0.0,0.0,0.0,0.0,0.0,0.0,0.0,0.0,0.0,0.0,0.0,0.0,0.0,0.0,0.0,0.0,0.0,0.0,0.0,0.0,0.0,0.0,0.0,0.0,0.0,0.0,0.0,0.0,0.0,0.0,0.0,0.0,0.0,0.0,0.0,0.0,0.0,0.0,0.0,0.0,0.0,0.0,0.0,0.0,0.0,0.0,0.0,0.0,0.0,0.0,0.0,0.0,0.0,0.0,0.0,0.0,0.0,0.0,0.0,0.0,0.0,0.0,0.0,0.0,0.0,0.0,0.0,0.0,0.0,0.0,0.0,0.0,0.0,0.0,0.0,0.0,0.0,0.0,0.0,0.0,0.0,0.0,0.0,0.0,0.0,0.0,0.0,0.0,0.0,0.0,0.0,0.0,0.0,0.0,0.0,0.0,0.0,0.0,0.0,0.0,0.0,0.0,0.0,0.0,0.0,0.0,0.0,0.0,0.0,0.0,0.0,0.0,0.0,0.0,0.0,0.0,0.0,0.0,0.0,0.0,0.0,0.0,0.0,0.0,0.0,0.0,0.0,0.0,0.0,0.0,0.0,0.0,0.0,0.0,0.0,0.0,0.0,0.0,0.0,0.0,0.0,0.0,0.0,0.0,0.0,0.0,0.0,0.0,0.0,0.0,0.0,0.0,0.0,0.0,0.0,0.0,0.0,0.0,0.0,0.0,0.0,0.0,0.0,0.0,0.0,0.0,0.0,0.0,0.0,0.0,0.0,0.0,0.0,0.0,0.0,0.0,0.0,0.0,0.0,0.0,0.0,0.0,0.0,0.0,0.0,0.0,0.0,0.0,0.0,0.0,0.0,0.0,0.0,0.0,0.0,0.0,0.0,0.0,0.0,0.0,0.0,0.0,0.0,0.0,0.0,0.0,0.0,0.0,0.0,0.0,0.0,0.0,0.0,0.0,0.0,0.0,0.0,0.0,0.0,0.0,0.0,0.0,0.0,0.0,0.0,0.0,0.0,0.0,0.0,0.0,0.0,0.0,0.0,0.0,0.0,0.0,0.0,0.0,0.0,0.0,0.0,0.0,0.0,0.0,0.0,0.0,0.0,0.0,0.0,0.0,0.0,0.0,0.0,0.0,0.0,0.0,0.0,0.0,0.0,0.0,0.0,0.0,0.0,0.0,0.0,0.0,0.0,0.0,0.0,0.0,0.0,0.0,0.0,0.0,0.0,0.0,0.0,0.0,0.0,0.0,0.0,0.0,0.0,0.0,0.0,0.0,0.0,0.0,0.0,0.0,0.0,0.0,0.0,0.0,0.0,0.0,0.0,0.0,0.0,0.0,0.0,0.0,0.0,0.0,0.0,0.0,0.0,0.0,0.0,0.0,0.0,0.0,0.0,0.0,0.0,0.0,0.0,0.0,0.0,0.0,0.0,0.0,0.0,0.0,0.0,0.0,0.0,0.0,0.0,0.0,0.0,0.0,0.0,0.0,0.0,0.0,0.0,0.0,0.0,0.0,0.0,0.0,0.0,0.0,0.0,0.0,0.0,0.0,0.0,0.0,0.0,0.0,0.0,0.0,0.0,0.0,0.0,0.0,0.0,0.0,0.0,0.0,0.0,0.0,0.0,0.0,0.0,0.0,0.0,0.0,0.0,0.0,0.0,0.0,0.0,0.0,0.0,0.0,0.0,0.0,0.0,0.0,0.0,0.0,0.0,0.0,0.0,0.0,0.0,0.0,0.0,0.0,0.0,0.0,0.0,0.0,0.0,0.0,0.0,0.0,0.0,0.0,0.0,0.0,0.0,0.0,0.0,0.0,0.0,0.0,0.0,0.0,0.0,0.0,0.0,0.0,0.0,0.0,0.0,0.0,0.0,0.0,0.0,0.0,0.0,0.0,0.0,0.0,0.0,0.0,0.0,0.0,0.0,0.0,0.0,0.0,0.0,0.0,0.0,0.0,0.0,0.0,0.0,0.0,0.0,0.0,0.0,0.0,0.0,0.0,0.0,0.0,0.0,0.0,0.0,0.0,0.0,0.0,0.0,0.0,0.0,0.0,0.0,0.0,0.0,0.0,0.0,0.0,0.0,0.0,0.0,0.0,0.0,0.0,0.0,0.0,0.0,0.0,0.0,0.0,0.0,0.0,0.0,0.0,0.0,0.0,0.0,0.0,0.0,0.0,0.0,0.0,0.0,0.0,0.0,0.0,0.0,0.0,0.0,0.0,0.0,0.0,0.0,0.0,0.0,0.0,0.0,0.0,0.0,0.0,0.0,0.0,0.0,0.0,0.0,0.0,0.0,0.0,0.0,0.0,0.0,0.0,0.0,0.0,0.0,0.0,0.0,0.0,0.0,0.0,0.0,0.0,0.0,0.0,0.0,0.0,0.0,0.0,0.0,0.0,0.0,0.0,0.0,0.0,0.0,0.0,0.0,0.0,0.0,0.0,0.0,0.0,0.0,0.0,0.0,0.0,0.0,0.0,0.0,0.0,0.0,0.0,0.0,0.0,0.0,0.0,0.0,0.0,0.0,0.0,0.0,0.0,0.0,0.0,0.0,0.0,0.0,0.0,0.0,0.0,0.0,0.0,0.0,0.0,0.0,0.0,0.0,0.0,0.0,0.0,0.0,0.0,0.0,0.0,0.0,0.0,0.0,0.0,0.0,0.0,0.0,0.0,0.0,0.0,0.0,0.0,0.0,0.0,0.0,0.0,0.0,0.0,0.0,0.0,0.0,0.0,0.0,0.0,0.0,0.0,0.0,0.0,0.0,0.0,0.0,0.0,0.0,0.0,0.0,0.0,0.0,0.0,0.0,0.0,0.0,0.0,0.0,0.0,0.0,0.0,0.0,0.0,0.0,0.0,0.0,0.0,0.0,0.0,0.0,0.0,0.0,0.0,0.0,0.0,0.0,0.0,0.0,0.0,0.0,0.0,0.0,0.0,0.0,0.0,0.0,0.0,0.0,0.0,0.0,0.0,0.0,0.0,0.0,0.0,0.0,0.0,0.0,0.0,0.0,0.0,0.0,0.0,0.0,0.0,0.0,0.0,0.0,0.0,0.0,0.0,0.0,0.0,0.0,0.0,0.0,0.0,0.0,0.0,0.0,0.0,0.0,0.0,0.0,0.0,0.0,0.0,0.0,0.0,0.0,0.0,0.0,0.0,0.0,0.0,0.0,0.0,0.0,0.0,0.0,0.0,0.0,0.0,0.0,0.0,0.0,0.0,0.0,0.0,0.0,0.0,0.0,0.0,0.0,0.0,0.0,0.0,0.0,0.0,0.0,0.0,0.0,0.0,0.0,0.0,0.0,0.0,0.0,0.0,0.0,0.0,0.0,0.0,0.0,0.0,0.0,0.0,0.0,0.0,0.0,0.0,0.0,0.0,0.0,0.0,0.0,0.0,0.0,0.0,0.0,0.0,0.0,0.0,0.0,0.0,0.0,0.0,0.0,0.0,0.0,0.0,0.0,0.0,0.0,0.0,0.0,0.0,0.0,0.0,0.0,0.0,0.0,0.0,0.0,0.0,0.0,0.0,0.0,0.0,0.0,0.0,0.0,0.0,0.0,0.0,0.0,0.0,0.0,0.0,0.0,0.0,0.0,0.0,0.0,0.0,0.0,0.0,0.0,0.0,0.0,0.0,0.0,0.0,0.0,0.0,0.0,0.0,0.0,0.0,0.0,0.0,0.0,0.0,0.0,0.0,0.0,0.0,0.0,0.0,0.0,0.0,0.0,0.0,0.0,0.0,0.0,0.0,0.0,0.0,0.0,0.0,0.0,0.0,0.0,0.0,0.0,0.0,0.0,0.0,0.0,0.0,0.0,0.0,0.0,0.0,0.0,0.0,0.0,0.0,0.0,0.0,0.0,0.0,0.0,0.0,0.0,0.0,0.0,0.0,0.0,0.0,0.0,0.0,0.0,0.0,0.0,0.0,0.0,0.0,0.0,0.0,0.0,0.0,0.0,0.0,0.0,0.0,0.0,0.0,0.0,0.0,0.0,0.0,0.0,0.0,0.0,0.0,0.0,0.0,0.0,0.0,0.0,0.0,0.0,0.0,0.0,0.0,0.0,0.0,0.0,0.0,0.0,0.0,0.0,0.0,0.0,0.0,0.0,0.0,0.0,0.0,0.0,0.0,0.0,0.0,0.0,0.0,0.0,0.0,0.0,0.0,0.0,0.0,0.0,0.0,0.0,0.0,0.0,0.0,0.0,0.0,0.0,0.0,0.0,0.0,0.0,0.0,0.0,0.0,0.0,0.0,0.0,0.0,0.0,0.0,0.0,0.0,0.0,0.0,0.0,0.0,0.0,0.0,0.0,0.0,0.0,0.0,0.0,0.0,0.0,0.0,0.0,0.0,0.0,0.0,0.0,0.0,0.0,0.0,0.0,0.0,0.0,0.0,0.0,0.0,0.0,0.0,0.0,0.0,0.0,0.0,0.0,0.0,0.0,0.0,0.0,0.0,0.0,0.0,0.0,0.0,0.0,0.0,0.0,0.0,0.0,0.0,0.0,-2.4863,0.0,0.0,0.0,0.0,0.0,0.0,0.0,0.0,0.0,0.0,0.0,0.0,0.0,0.0,0.0,0.0,0.0,0.0,0.0,0.0,0.0,0.0,0.0,0.0,0.0,0.0,0.0,0.0,0.0,0.0,0.0,0.0,0.0,0.0,0.0,0.0,0.0,0.0,0.0,0.0,0.0,0.0,0.0,0.0,0.0,0.0,0.0,0.0,0.0,0.0,0.0,0.0,0.0,0.0,0.0,0.0,0.0,0.0,0.0,0.0,0.0,0.0,0.0,0.0,0.0,0.0,0.0,0.0,0.0,0.0,0.0,0.0,0.0,0.0,0.0,0.0,0.0,0.0,0.0,0.0,0.0,0.0,0.0,0.0,0.0,0.0,0.0,0.0,0.0,0.0,0.0,0.0,0.0,0.0,0.0,0.0,0.0,0.0,0.0,0.0,0.0,0.0,0.0,0.0,0.0,0.0,0.0,0.0,0.0,0.0,0.0,0.0,0.0,0.0,0.0,0.0,-2.3723,0.0,0.0,0.0,0.0,0.0,0.0,0.0,0.0,0.0,0.0,0.0,0.0,0.0,0.0,0.0,0.0,0.0,0.0,0.0,0.0,0.0,0.0,0.0,0.0,0.0,0.0,0.0,0.0,0.0,0.0,0.0,0.0,0.0,0.0,0.0,0.0,0.0,0.0,0.0,0.0,0.0,0.0,0.0,0.0,0.0,0.0,0.0,0.0,0.0,0.0,0.0,0.0,0.0,0.0,0.0,0.0,0.0,0.0,0.0,0.0,0.0,0.0,0.0,0.0,0.0,0.0,0.0,0.0,0.0,0.0,0.0,0.0,0.0,0.0,0.0,0.0,0.0,0.0,0.0,0.0,0.0,0.0,0.0,0.0,0.0,0.0,0.0,0.0,0.0,0.0,0.0,0.0,0.0,0.0,0.0,0.0,0.0,0.0,0.0,0.0,0.0,0.0,0.0,0.0,0.0,0.0,0.0,0.0,0.0,0.0,-1.6431,-1.7031,-1.4579,-1.0116,-1.5137,-1.4819,-1.0755,0.0,0.0,0.0,0.0,0.0,0.0,0.0,0.0,0.0,0.0,0.0,0.0,0.0,0.0,0.0,0.0,0.0,0.0,0.0,0.0,0.0,0.0,0.0,0.0,0.0,0.0,0.0,0.0,0.0,0.0,0.0,0.0,0.0,0.0,0.0,0.0,0.0,0.0,0.0,0.9213,1.147,1.2707,1.2903,1.3524,0.0,0.0,0.0,0.0,0.0,0.0,0.0,0.0,0.0,0.0,0.0,0.0,0.0,0.0,0.0,0.0,0.0,0.0,0.0,0.0,0.0,0.0,0.0,0.0,0.0,0.0,0.0,0.0,0.0,0.0,0.0,0.0,0.0,0.0,0.0,0.0,0.0,0.0,0.0,0.0,0.0,0.0,0.0,0.8316,0.0694,0.0,0.0,0.0,0.0,0.0,0.0,0.0,0.0,0.0,0.0,0.0,0.0,0.0,0.0,-0.1422,-0.1466,-0.1404,-0.1404,-0.195,-0.2578,-0.3181,-0.3267,-0.2946,-0.2193,-0.3028,0.0,-1.0332,-0.5165,0.0,0.0,0.0,0.0,0.0,0.0,0.0,0.0,0.0,0.0,0.0,0.0,0.0,0.0,0.0,0.0,0.0,0.0,0.0,0.0,0.0,0.0,0.0,0.0,0.0,0.0,0.0,0.0,0.0,0.0,0.0,0.0,0.0,0.0,0.0,0.0,0.1534,0.6973,0.9948,1.0431,1.1361,1.2651,1.1196,1.5505,2.3942,2.5988,0.0,0.0,0.0,0.0,0.0,0.0,0.0,0.0,0.0,0.0,0.0,0.0,0.0,0.0,0.0,0.0,0.0,0.0,0.0,0.0,0.0,0.0,0.0,0.0,0.0,0.0,0.0,0.0,0.0,0.0,0.0,0.0,0.0,0.0,0.0,0.0,0.0,0.0,0.0,0.9076,0.1417,0.3834,0.4161,0.5143,0.0,0.0,0.0,0.0,0.0,0.0,0.0,0.0,0.0,-0.4025,-0.3413,-0.1794,0.0985,0.1076,0.0897,0.0628,0.0807,0.0632,-0.0091,-0.0548,-0.0643,-0.065,-0.065,-0.2081,-0.4255,-0.1688,-0.2443,-0.488,0.0,0.0,0.0,0.0,0.0,0.0,0.0,0.0,0.0,0.0,0.0,0.0,0.0,0.0,0.0,0.0,0.0,0.0,0.0,0.0,0.0,-0.8321,0.0,0.0,0.0,0.0,0.0,0.0,0.0,0.0,0.0,0.0,0.0,0.3203,0.7265,0.9571,1.0067,0.9427,1.0122,1.1791,1.0675,1.3474,1.8918,1.8959,1.9286,0.0,0.0,0.0,0.0,0.0,0.0,0.0,0.0,0.0,0.0,0.0,0.0,0.0,0.0,0.0,0.0,0.0,0.0,0.0,0.0,0.0,0.0,0.0,0.0,0.0,0.0,0.0,0.0,0.0,0.0,0.0,0.0,0.0,0.0,0.0,0.0,0.0,0.0,0.39,-0.0,0.5471,0.6606,0.7356,0.0,0.0,0.0,0.0,0.0,0.0,-0.4417,-0.5619,-0.4394,0.0089,-0.009,0.0271,0.1446,0.1455,0.1459,0.1459,0.1459,0.1194,0.0653,0.0093,-0.0094,-0.0095,-0.0095,0.0191,0.0666,0.0277,0.0456,0.0911,0.0638,0.0273,0.0,-0.0271,-0.018,-0.0179,0.0,0.0,0.0,0.0,0.0,0.0,0.0,0.0,0.0,0.0,0.0,0.0,0.0,0.0,-0.6515,-0.6354,-0.3479,-0.43,0.0,0.0,0.0,0.0,0.0,0.0,0.0,0.0,0.0,0.9117,0.9096,0.9169,0.9177,1.0001,1.0005,0.9469,1.309,1.4565,1.4429,1.4426,1.447,1.4986,0.0,0.0,0.0,0.0,0.0,0.0,0.0,0.0,0.0,0.0,0.0,0.0,0.0,0.0,0.0,0.0,0.0,0.0,0.0,0.0,0.0,0.0,0.0,0.0,0.0,0.0,0.0,0.0,0.0,0.0,0.0,0.0,0.0,0.0,0.0,0.0,0.0,0.0,0.0,0.113,0.2487,0.0,0.0,0.0,0.0,1.0667,0.4461,0.0689,0.1399,0.0526,0.0353,0.0896,0.0914,0.1108,0.1478,0.1507,0.1521,0.1521,0.1521,0.1522,0.1428,0.1428,0.143,0.1431,0.1431,0.1431,0.143,0.0666,0.076,0.1426,0.076,0.0376,-0.0,-0.1016,-0.073,0.009,0.0,0.0,0.0,0.0,0.0,0.0,0.0,0.0,0.0,0.0,0.0,0.0,0.0,-0.5797,-0.1049,-0.1049,0.0973,0.096,-0.2075,0.0,0.0,0.0,0.0,0.0,0.0,0.0,0.588,0.9271,0.9157,0.9528,1.0202,0.9819,1.026,1.1431,1.1492,1.1429,1.1339,1.329,1.4085,1.4266,1.6106,2.1543,0.0,0.0,0.0,0.0,0.0,0.0,0.0,0.0,0.0,0.0,0.0,0.0,0.0,0.0,0.0,0.0,0.0,0.0,0.0,0.0,0.0,0.0,0.0,0.0,0.0,0.0,0.0,0.0,0.0,0.0,0.0,0.0,0.0,0.0,0.0,0.0,0.0,0.8184,0.5289,0.0,0.0,0.3524,0.2951,0.6237,0.3873,0.2522,0.3285,0.2736,0.2019,0.1025,0.1219,0.1412,0.1604,0.1521,0.1526,0.1526,0.1526,0.1536,0.1555,0.1555,0.1566,0.1584,0.1584,0.1584,0.1584,0.1287,0.1268,0.1431,0.124,0.1044,0.0943,0.0566,0.047,0.056,0.0,0.0,0.0,0.0,0.0,0.0,0.0,0.0,0.0,0.0,0.0,-1.3149,-0.8625,-0.1658,0.268,0.268,0.3667,0.3666,0.2228,0.0,0.0,0.0,0.0,0.0,0.0,0.6481,0.796,0.9181,0.9246,0.9714,1.0404,0.9631,1.0078,1.156,1.0233,0.9569,0.9727,1.1716,1.2551,1.2697,1.3653,1.6395,2.0924,0.0,0.0,0.0,0.0,0.0,0.0,0.0,0.0,0.0,0.0,0.0,0.0,0.0,0.0,0.0,0.0,0.0,0.0,0.0,0.0,0.0,0.0,0.0,0.0,0.0,0.0,0.0,0.0,0.0,0.0,0.0,0.0,0.0,0.0,0.0,0.5389,0.9147,0.6159,0.3757,0.3853,0.3512,0.3522,0.424,0.4002,0.4137,0.4659,0.4378,0.356,0.2185,0.3151,0.3543,0.3263,0.2898,0.3001,0.3673,0.2233,0.1957,0.2668,0.1883,0.1598,0.1617,0.1617,0.1617,0.1617,0.1617,0.1593,0.1557,0.1557,0.1551,0.1445,0.1156,0.0767,0.0477,0.0,0.0,0.0,0.0,0.0,0.0,0.0,0.0,0.0,0.0,-1.7004,-0.9013,-0.3888,0.1235,0.43,0.43,0.43,0.331,0.0984,-0.3123,0.0,0.0,0.0,0.0,0.5566,0.9014,1.0316,0.9364,0.9543,0.9628,0.9628,0.9628,0.9628,0.9628,0.9628,0.9628,0.9628,0.9628,0.9669,0.9994,1.284,1.4698,1.6358,0.0,0.0,0.0,0.0,0.0,0.0,0.0,0.0,0.0,0.0,0.0,0.0,0.0,0.0,0.0,0.0,0.0,0.0,0.0,0.0,0.0,0.0,0.0,0.0,0.0,0.0,0.0,0.0,0.0,0.0,0.0,0.0,0.0,1.1994,1.4357,1.2151,0.2972,0.4476,0.5292,0.3135,0.5297,0.6474,0.5629,0.5733,0.5797,0.5803,0.5521,0.5047,0.4377,0.6681,0.7421,0.6429,0.5257,0.5795,0.797,0.3715,0.2818,0.4804,0.2618,0.1718,0.1617,0.1617,0.1617,0.1617,0.1617,0.1617,0.1617,0.1617,0.1598,0.1474,0.0393,0.0,0.0,0.0,0.0,0.0,0.0,0.0,0.0,0.0,0.0,0.0,0.0,-1.7881,-1.0409,-0.2946,0.1685,0.43,0.43,0.43,0.3848,0.2857,0.0,0.0,0.0,0.0,0.0,0.7302,0.9068,0.9801,0.9551,0.9604,0.9628,0.9628,0.9628,0.9628,0.9628,0.9628,0.9628,0.9628,0.9628,1.138,1.3866,1.1675,1.1901,1.3895,0.0,0.0,0.0,0.0,0.0,0.0,0.0,0.0,0.0,0.0,0.0,0.0,0.0,0.0,0.0,0.0,0.0,0.0,0.0,0.0,0.0,0.0,0.0,0.0,0.0,0.0,0.0,0.0,0.0,0.0,0.0,0.0,1.3068,0.7907,0.8688,0.8488,0.5082,0.5132,0.4887,0.3269,0.49,0.5865,0.5654,0.569,0.5744,0.5526,0.6308,0.6252,0.4956,0.5775,0.6179,0.6155,0.4309,0.4912,0.797,0.5202,0.4608,0.5897,0.4508,0.3516,0.2722,0.1919,0.1617,0.1617,0.1617,0.1617,0.1617,0.1617,0.141,0.1003,0.1103,0.0699,0.0,0.0,0.0,0.0,0.0,0.0,0.0,0.0,0.0,0.0,0.0,-1.7115,-1.0014,-0.1311,0.2407,0.43,0.43,0.3851,0.3221,0.2411,0.0,0.0,0.0,0.0,0.5874,0.8131,0.913,0.9628,0.9628,1.0015,1.0015,0.9628,1.0216,1.022,0.9628,0.9628,0.9628,0.9628,0.9628,1.1461,1.4223,1.0877,1.1328,1.4151,1.5613,1.8813,2.257,2.315,2.5308,2.7968,2.9106,0.0,0.0,0.0,0.0,0.0,0.0,0.0,0.0,0.0,0.0,0.0,0.0,0.0,0.0,0.0,0.0,0.0,0.0,0.0,0.0,0.0,0.0,0.0,0.0,1.2757,1.3371,0.7574,0.7222,0.7262,0.6157,0.4676,0.3852,0.418,0.461,0.5211,0.5966,0.6211,0.6176,0.6033,0.6732,0.6793,0.6009,0.6608,0.7128,0.7373,0.5237,0.5741,0.8564,0.5118,0.4816,0.7146,0.4612,0.3698,0.0,0.2373,0.1654,0.1654,0.1654,0.1647,0.0,0.0,0.0,0.0,0.0,-0.1413,-0.4649,0.0,0.0,0.0,0.0,0.0,0.0,0.0,0.0,0.0,0.0,0.0,-0.8591,0.0443,0.3042,0.421,0.43,0.3224,0.2061,0.0,0.0,0.0,-0.1091,0.3086,0.6299,0.823,0.913,0.9628,0.9628,1.0592,1.0592,0.9821,1.0904,1.0801,0.9616,0.9624,0.9628,0.9628,0.9727,1.1021,1.2634,1.0721,1.2299,1.5787,1.6177,1.7936,2.0569,2.1774,2.3426,2.5223,2.6634,0.0,0.0,0.0,0.0,0.0,0.0,0.0,0.0,0.0,0.0,0.0,0.0,0.0,0.0,0.0,0.0,0.0,0.0,0.0,0.0,0.0,0.0,0.0,0.0,0.9299,1.0413,0.943,0.8483,0.7527,0.6573,0.3715,0.277,0.5463,0.4673,0.482,0.6502,0.6816,0.6782,0.6377,0.0,0.0,0.0,0.0,0.8848,0.8884,0.7197,0.7287,0.915,0.4126,0.4021,0.8209,0.4771,0.3929,0.5073,0.2657,0.1705,0.1705,0.1705,0.169,0.1664,0.163,0.101,0.0,-0.0908,-0.5256,0.0,0.0,0.0,0.0,0.0,0.0,0.0,0.0,0.0,0.0,-2.1613,-1.5255,-0.8226,0.0444,0.2417,0.3494,0.4208,0.3403,0.2255,0.0,0.0,0.2157,0.1924,0.4968,0.6923,0.7434,0.8829,0.9628,0.9628,0.9821,1.0207,1.0881,1.031,0.9891,0.9645,0.9604,0.9628,0.9628,1.0806,1.2196,1.3494,1.2462,1.3556,1.5588,1.4027,1.4848,1.6849,1.6853,1.8073,1.9827,2.0847,2.3489,2.6203,2.5933,0.0,0.0,0.0,0.0,0.0,0.0,0.0,0.0,0.0,0.0,0.0,0.0,0.0,0.0,0.0,0.0,0.0,0.0,0.0,0.0,1.6976,1.4483,1.1716,1.0936,0.8818,0.7018,0.623,0.4953,0.4503,0.5487,0.5824,0.6083,0.6379,0.6708,0.5916,0.3779,0.5882,0.0,0.6777,0.6984,0.7194,0.7302,0.6923,0.7226,0.83,0.0,0.0,0.8252,1.1146,0.975,0.4788,0.2664,0.1707,0.1707,0.1707,0.1704,0.1587,0.1638,-0.2623,-0.8743,-0.8952,-0.7992,-0.7132,0.0,0.0,0.0,0.0,0.0,0.0,0.0,0.0,0.0,0.0,-1.8674,-1.2536,-0.3994,-0.1848,-0.0793,-0.0352,0.0266,0.0,0.0,0.1938,0.3399,0.3758,0.5691,0.6674,0.6639,0.8134,0.9031,0.9031,1.0113,1.0605,1.04,1.0918,1.0609,0.9579,0.9612,0.992,1.04,1.0605,1.198,1.3846,1.1965,1.3044,1.5612,1.4106,1.4478,1.5812,1.5665,1.6158,1.7202,1.8418,2.0283,2.2366,2.4127,2.2524,2.0178,0.0,0.0,0.0,0.0,0.0,0.0,0.0,0.0,0.0,0.0,0.0,0.0,0.0,0.0,1.565,0.0,0.0,1.8255,1.7547,1.4681,1.2208,1.1351,0.9209,0.7508,0.6747,0.4595,0.3737,0.5317,0.4749,0.4898,0.6315,0.5891,0.5378,0.478,0.6169,0.6948,0.6802,0.5605,0.5078,0.5224,0.5247,0.546,0.5858,0.2716,0.2388,0.4545,0.688,0.7442,0.6221,0.2732,0.1313,0.1203,-0.0,-0.0753,-0.107,-0.1983,-0.6228,-1.1775,-1.1527,-1.0395,-0.9067,0.0,0.0,0.0,0.0,0.0,0.0,0.0,0.0,0.0,0.0,-2.2805,-1.7719,-0.9542,-0.7289,-0.6205,0.0,0.0,0.0,-0.1588,0.1846,0.418,0.4849,0.5816,0.6237,0.6042,0.7537,0.8432,0.8432,1.031,1.0806,0.992,1.1423,1.1325,0.992,0.9723,1.0113,1.0886,1.0404,1.1668,1.3806,1.1668,1.2829,1.573,1.4873,1.5064,1.5832,1.5832,1.6015,1.6626,1.7834,1.8563,1.9212,2.0881,2.1892,2.2261,2.1227,2.059,0.0,0.0,0.0,0.0,0.0,0.0,0.0,0.0,0.0,1.6305,1.3959,1.8698,2.1477,1.5658,2.0179,2.2456,1.5431,1.3414,1.2355,1.1423,0.9458,0.7985,0.7311,0.4411,0.3003,0.4266,0.3058,0.3194,0.5346,0.4702,0.471,0.5913,0.6243,0.6506,0.6827,0.45,0.32,0.2909,0.2912,0.2914,0.2914,0.1457,0.0671,0.0667,-0.0894,0.0335,0.3781,0.0781,-0.0447,-0.067,-0.3417,-0.47,-0.4994,-0.6776,-0.9485,-1.2385,-1.2025,-1.2045,-1.2289,0.0,0.0,0.0,0.0,0.0,0.0,0.0,0.0,0.0,0.0,0.0,0.0,0.0,0.0,0.0,0.0,0.0,-0.1047,-0.1059,0.3052,0.5329,0.4944,0.5816,0.6237,0.6042,0.7537,0.8432,0.8432,0.9327,1.0207,1.0979,1.031,1.031,1.0979,1.0015,0.9628,0.992,1.1663,1.2533,1.3022,1.4472,1.5343,1.5737,1.5445,1.554,1.5832,1.5832,1.6936,1.8511,1.8656,1.9926,2.1203,2.0676,1.9898,2.0847,2.8506,0.0,2.7433,1.8734,1.4029,1.5157,3.0295,3.4014,3.284,0.0,0.0,3.0777,2.8247,2.6735,2.5136,2.2649,2.0771,1.8406,1.4912,1.3414,1.2412,1.1525,0.9127,0.7555,0.7574,0.6458,0.447,0.1268,0.2018,0.257,0.2286,0.2723,0.296,0.3117,0.434,0.5688,0.7075,0.4806,0.257,0.0448,0.0448,0.0448,0.0448,0.0224,0.0112,-0.0112,-0.7564,-1.0663,-0.9924,-0.6808,-0.545,-0.5673,-0.9732,-1.041,-0.9251,-1.1017,-1.2023,-1.2332,-1.2068,-1.2501,-1.3362,0.0,0.0,0.0,0.0,0.0,0.0,0.0,0.0,0.0,0.0,0.0,0.0,0.0,0.0,0.0,0.0,-0.7739,-0.3466,-0.2894,0.2461,0.5455,0.5135,0.5567,0.5778,0.5541,0.6539,0.7235,0.7736,0.8943,0.9636,0.9608,0.962,0.962,0.9608,0.962,0.9916,1.0596,1.0792,1.196,1.3607,1.3307,1.4178,1.573,1.4867,1.5337,1.6567,1.7252,1.8072,0.0,2.009,2.0541,2.0639,2.0051,2.0456,2.1469,2.2859,2.3164,0.0,1.6468,1.6146,1.9439,0.0,3.2071,3.3006,3.0017,3.1282,3.2219,2.9301,2.7475,2.5572,2.2793,2.0855,1.8692,0.0,1.3442,1.2381,1.2179,0.9753,0.77,0.6757,0.5878,0.4809,0.3342,0.2615,0.2748,0.3987,0.31,0.2789,0.3632,0.3293,0.3423,0.4503,0.2538,0.1038,0.0,0.0,0.0,0.0,0.0,-0.2773,-0.8141,-1.1574,-1.2908,-1.2253,-1.0596,-0.9835,-0.9926,-1.0982,-1.1749,-1.2337,-1.2559,-1.332,-1.4385,-1.356,-1.3979,-1.4949,0.0,0.0,0.0,0.0,0.0,0.0,0.0,0.0,0.0,0.0,0.0,0.0,0.0,0.0,0.0,0.0,-1.2512,-0.714,-0.5483,0.0893,0.484,0.5322,0.5333,0.534,0.5238,0.5741,0.6439,0.7238,0.8549,0.905,0.873,0.9331,0.9327,0.873,0.9327,1.0015,1.069,1.0207,1.1473,1.3709,1.2538,1.3601,1.5737,1.4956,1.5886,1.778,1.9314,1.8789,1.8152,2.2951,2.1123,1.7184,1.897,1.8706,1.7466,1.5564,1.5968,1.6967,1.6723,1.9089,0.0,2.6747,2.916,3.0308,2.954,3.0171,3.0259,2.7961,2.6532,2.4777,2.1867,2.0338,1.8548,1.5153,1.275,1.1285,1.1406,0.864,0.633,0.5237,0.438,0.3957,0.4205,0.2463,0.1916,0.3605,0.2489,0.2053,0.2656,0.1964,0.1511,0.1294,0.0706,0.0236,0.0,0.0,-0.1296,-0.3777,-0.3771,-0.7215,-1.3683,-1.3601,-1.3202,-1.2634,-1.259,-1.2613,-1.2562,-1.1935,-1.2974,-1.4661,-1.3932,-1.4967,-1.6666,-1.5843,-1.6037,-1.6826,0.0,0.0,0.0,0.0,0.0,0.0,0.0,0.0,0.0,0.0,0.0,0.0,0.0,0.0,0.0,-2.4582,-1.7411,-1.1623,-0.868,-0.1663,0.3245,0.5228,0.5138,0.5141,0.5238,0.5741,0.6439,0.7238,0.8035,0.8829,0.9529,0.9628,0.9628,0.9529,0.9628,0.9628,0.9723,1.069,1.1755,1.2829,1.3806,1.4867,1.5825,1.6298,1.7554,1.9314,2.1948,1.8835,1.5384,0.0,2.1628,1.0015,1.7308,1.2773,0.0,0.9379,1.3062,1.6992,2.2181,0.0,2.375,2.9142,2.8904,2.729,2.7313,2.7116,2.693,2.6883,2.5114,2.314,2.1304,1.9001,1.6536,1.3941,1.0997,0.8965,0.8358,0.4757,0.2295,0.2781,0.2011,0.1464,0.0,0.0688,-0.0344,-0.1494,-0.0233,-0.0118,-0.1648,0.0118,0.0235,-0.1768,0.0,0.0706,0.0,0.0,-0.4487,-1.3334,-1.3274,-1.3489,-1.3732,-1.3476,-1.3289,-1.3274,-1.3084,-1.3051,-1.315,-1.4044,-1.5015,-1.6036,-1.5833,-1.7068,-1.8986,-1.9058,-1.9088,-1.9088,0.0,0.0,0.0,0.0,0.0,0.0,0.0,0.0,0.0,0.0,0.0,0.0,0.0,0.0,0.0,0.0,0.0,-1.5721,-1.1915,-0.5679,-0.0783,0.2026,0.4167,0.5236,0.5141,0.5307,0.5741,0.6439,0.6639,0.6939,0.7238,0.7736,0.8035,0.8035,0.8531,0.913,0.9628,1.0015,1.1082,1.2727,1.3119,1.428,1.6008,1.7494,1.5953,1.3611,0.0,1.8777,1.5907,0.0,0.0,0.0,0.8623,0.7654,0.591,0.4472,0.3476,0.3973,0.9373,0.0,1.8377,2.3187,2.5134,2.5652,2.5084,2.5316,2.5473,2.4914,2.1224,1.694,1.3007,1.0699,0.7995,0.3741,0.4246,0.5229,0.5147,0.3711,0.2323,0.1337,0.0902,0.0,0.0,0.0,0.0,0.0466,-0.047,-0.0591,0.0477,-0.0359,-0.0841,-0.0728,-0.085,-0.1094,-0.1338,-0.0851,-0.4386,-1.1716,-1.6473,-1.8126,-1.6997,-1.6768,-1.6373,-1.58,-1.5614,-1.553,-1.5637,-1.6729,-1.7463,-1.7773,-1.9063,-2.0001,-2.0732,-2.1232,-2.1853,-2.2458,0.0,0.0,0.0,0.0,0.0,0.0,0.0,0.0,0.0,0.0,0.0,0.0,0.0,0.0,0.0,0.0,0.0,0.0,-1.8134,-1.1845,-0.6951,-0.3998,-0.099,0.0562,0.0669,0.0782,0.1485,0.2879,0.3887,0.4804,0.5729,0.6833,0.7335,0.7235,0.8035,0.873,0.9229,0.943,1.0694,1.2624,1.3527,1.5139,1.7335,2.0764,1.781,0.0,1.5921,1.4573,1.1219,0.0,0.815,0.2686,0.4146,0.3376,0.1477,-0.0853,0.01,0.2589,0.5824,1.332,2.0582,2.2251,2.3816,2.5094,2.5655,2.587,2.5337,2.2988,1.8625,1.312,0.6274,0.4298,0.2425,-0.1702,-0.0083,0.1808,0.2273,0.1101,-0.0,-0.0781,-0.0907,0.0,0.0,0.0,0.0,0.0356,-0.1075,-0.1203,0.0364,-0.1094,-0.1588,-0.074,-0.1605,-0.1977,-0.1977,-0.1606,-0.4687,-1.1516,-1.5941,-1.8105,-1.8418,-1.8125,-1.7749,-1.7171,-1.7122,-1.7049,-1.7151,-1.8256,-1.9092,-1.9945,-2.1124,-2.2386,-2.3445,-2.3502,-2.4135,-2.4805,0.0,0.0,0.0,0.0,0.0,0.0,0.0,0.0,0.0,0.0,0.0,0.0,0.0,0.0,0.0,0.0,0.0,0.0,-2.6745,-1.9865,-1.4838,-1.2538,-0.9834,-0.8143,-0.7749,-0.7412,-0.5893,-0.2912,-0.0294,0.2276,0.4798,0.6515,0.7232,0.7033,0.7932,0.8333,0.8432,0.9229,1.0774,1.286,1.5358,1.7576,2.0096,2.5928,2.2688,1.4731,1.2835,0.71,0.0,0.0,0.0,-0.3891,0.3845,0.008,-0.7082,-0.5865,0.2824,1.1926,1.1449,2.046,2.9214,2.5867,2.4777,2.5355,2.8382,2.8244,2.6073,2.084,1.6953,1.1324,0.0,0.0,-0.0684,-0.3026,-0.235,-0.1298,-0.0551,-0.3004,-0.4482,0.0,0.0,0.0,0.0,0.0,0.0,-0.1933,0.0,-0.1977,-0.1977,-0.1977,-0.1977,-0.1977,-0.1977,-0.1977,-0.1977,-0.1977,-0.5641,-1.2795,-1.2573,-1.447,-1.8137,-1.7787,-1.767,-1.767,-1.7787,-1.7892,-1.8093,-1.8878,-2.0625,-2.2618,-2.246,-2.4368,-2.7114,-2.6144,-2.6203,-2.6527,0.0,0.0,0.0,0.0,0.0,0.0,0.0,0.0,0.0,0.0,0.0,0.0,0.0,0.0,0.0,0.0,0.0,0.0,-2.9844,-2.5902,-2.235,-1.9393,-1.5358,-1.2859,-1.2171,-1.1304,-0.9785,-0.7618,-0.5045,-0.3008,-0.1474,0.1895,0.3715,0.4314,0.5922,0.6927,0.7624,0.9418,1.2764,1.6943,1.8472,2.2101,2.7076,3.0378,2.287,1.0817,1.2416,0.8285,0.0,0.0,0.0,0.0,0.0,-0.0064,-0.2489,-0.0807,0.511,1.1393,1.264,1.7926,2.3174,2.3543,2.2444,2.2466,2.6725,2.7767,2.5409,1.7099,1.2077,0.482,0.0,0.0,0.0,-1.3573,-0.8915,0.0,-0.4777,-0.4693,0.0,0.0,0.0,-0.3533,-0.3231,-0.3283,0.0,0.0,-0.2094,-0.1977,-0.1977,-0.1977,-0.1977,-0.1977,-0.1977,-0.1977,-0.1977,-0.1977,-0.5504,-1.2201,-1.3841,-1.6721,-2.0723,-2.1828,-2.2138,-2.1896,-2.2991,-2.431,-2.5774,-2.5377,-2.6533,-2.8645,-2.8584,-2.9279,-3.0264,-3.0637,-3.0997,-3.1331,0.0,0.0,0.0,0.0,0.0,0.0,0.0,0.0,0.0,0.0,0.0,0.0,0.0,0.0,0.0,0.0,0.0,0.0,0.0,-3.1672,-2.9154,-2.7368,-2.3631,-2.1336,-2.091,-1.9043,-1.7129,-1.5071,-1.1268,-0.7919,-0.4935,-0.1918,0.0485,0.2254,0.3722,0.5676,0.8129,0.9686,1.4049,0.0,0.0,2.591,3.1129,3.4827,2.5518,1.0892,1.3684,1.0862,0.0,0.0,0.0,0.5675,0.3143,0.1765,0.1541,0.389,0.0,1.2562,1.4897,1.7991,2.1016,2.2599,2.1626,2.086,2.287,2.328,2.0143,0.9239,0.3592,0.0,0.0,0.0,0.0,0.0,0.0,0.0,-0.9432,-0.8577,-0.7224,0.0,-0.4312,0.0,-0.3612,-0.3547,-0.3332,0.0,-0.2591,-0.2346,-0.1977,-0.2099,-0.2099,-0.1977,-0.1977,-0.1977,-0.1977,-0.1977,-0.5728,-1.2926,-1.2082,-1.587,-2.3519,-2.2061,-2.2503,-2.4378,0.0,-2.6163,-2.7226,-2.6751,-2.8219,-3.0648,-3.0684,-3.1582,-3.3135,-3.3493,-3.372,-3.3766,0.0,0.0,0.0,0.0,0.0,0.0,0.0,0.0,0.0,0.0,0.0,0.0,0.0,0.0,0.0,0.0,0.0,0.0,0.0,0.0,0.0,-3.5044,-3.2475,-3.0907,-3.0692,-2.8147,-2.5654,-2.3222,-1.8197,-1.3155,-0.8065,-0.5466,-0.2682,0.0,0.1421,0.426,0.7966,0.8999,1.4179,2.2069,2.4492,2.8687,3.4097,0.0,0.0,0.0,1.425,0.0,0.0,0.0,1.1578,0.5791,0.5624,0.5555,0.605,0.864,1.1817,1.5119,1.7676,1.9521,2.1194,2.2754,2.1916,2.0281,1.8869,1.7809,1.3374,0.0129,0.0,-1.1261,-2.1904,-2.3727,-2.3907,-2.4823,0.0,-1.8686,-1.482,-1.3789,-1.1362,-0.6155,-0.546,-0.4966,-0.3986,-0.3674,-0.3579,-0.3455,-0.3209,-0.2839,-0.2099,-0.2097,-0.1973,-0.1977,-0.1977,-0.1977,-0.1977,-0.1977,-0.5839,-1.3213,-0.8929,-1.2903,-2.4005,-2.0288,-2.0874,-2.4971,0.0,0.0,-2.6516,-2.6336,-2.8143,-3.1012,-3.0729,-3.2525,-3.5095,-3.5095,-3.5083,-3.5032,0.0,0.0,0.0,0.0,0.0,0.0,0.0,0.0,0.0,0.0,-4.0859,-4.0681,0.0,0.0,0.0,0.0,0.0,0.0,0.0,0.0,0.0,0.0,-3.727,-3.5882,-3.4881,0.0,0.0,0.0,0.0,-2.0377,-1.6137,-0.978,-0.6338,-0.5371,-0.0846,0.1612,0.2557,0.4426,1.1161,2.0626,2.1966,2.9199,3.9297,0.0,0.0,0.0,0.0,0.0,0.0,1.4281,1.767,1.8646,1.3796,1.2936,1.3794,1.4311,1.6775,1.9493,2.005,2.0864,2.218,2.4311,2.3236,2.1176,1.9655,1.7675,0.0,0.0,-0.8166,-1.2703,-2.4923,-2.4932,-2.4054,-2.6928,0.0,0.0,0.0,0.0,-1.4832,0.0,0.0,0.0,0.0,0.0,0.0,0.0,0.0,0.0,-0.2468,-0.0615,-0.0369,-0.1976,-0.1977,-0.1977,-0.1977,-0.1977,-0.4164,-0.8456,-0.7514,-0.9649,-1.4585,-1.8805,-2.0981,-2.1911,0.0,0.0,-3.1603,-2.9891,-3.1342,-3.4294,-3.2619,-3.3128,-3.4667,-3.4667,-3.6019,-3.7701,0.0,0.0,0.0,0.0,0.0,0.0,0.0,-4.0823,-4.0942,-4.1025,-4.0959,-4.0857,-4.0721,-4.0524,0.0,0.0,0.0,0.0,0.0,0.0,0.0,0.0,0.0,0.0,0.0,0.0,0.0,0.0,0.0,0.0,0.0,0.0,0.0,0.0,0.0,0.0,0.0,0.3284,0.87,0.0,0.0,0.0,0.0,0.0,0.0,0.0,0.0,0.0,0.0,1.6015,1.8833,1.6609,1.4384,1.4657,1.5745,1.6168,1.8637,2.1309,2.1309,2.1882,2.294,2.4655,2.3709,2.0664,1.4295,0.0,0.0,0.0,-1.5153,-1.822,-2.5815,-2.6308,0.0,0.0,0.0,0.0,0.0,0.0,0.0,0.0,0.0,0.0,0.0,0.0,0.0,0.0,0.0,0.0,-0.259,-0.1478,-0.1232,-0.1977,-0.1977,-0.1977,-0.1977,-0.1977,-0.4039,-0.8073,-0.5722,-0.7856,-1.4139,-1.4467,-1.5943,-1.8459,0.0,0.0,-2.4312,-2.5702,-2.7989,-3.0656,-3.2073,-3.3719,-3.5301,-3.5301,-3.6137,-3.709,0.0,0.0,0.0,0.0,0.0,0.0,0.0,-4.0739,-4.09,-4.0977,-4.0976,-4.0906,-4.0789,-4.0662,-4.0496,0.0,0.0,0.0,0.0,0.0,0.0,0.0,0.0,0.0,0.0,0.0,0.0,0.0,0.0,0.0,0.0,0.0,0.0,0.0,0.0,0.0,0.0,0.0,0.0,0.0,0.0,0.0,0.0,0.0,0.0,0.0,0.0,0.0,0.0,0.0,1.4594,1.0547,1.0451,1.3516,1.735,1.843,2.0642,2.2689,2.2524,2.3275,2.4265,2.5207,2.4656,2.0977,0.9487,0.5112,0.0,0.0,-2.1492,-2.3349,-2.5994,0.0,-2.8017,0.0,-2.9866,-2.823,0.0,0.0,0.0,0.0,0.0,0.0,0.0,0.0,0.0,0.0,0.0,0.0,0.0,-0.1971,-0.2345,-0.1977,-0.1977,-0.1977,-0.1977,-0.1977,-0.3795,-0.7469,-0.3796,-0.5825,-1.2906,-1.0044,-1.0851,-1.4505,0.0,0.0,0.0,-1.9982,-2.2429,-2.4192,-2.7915,-3.0364,-3.1852,-3.2827,-3.3478,-3.3971,0.0,0.0,0.0,0.0,0.0,0.0,0.0,-4.079,-4.0829,-4.09,-4.0854,-4.0866,-4.0963,-4.0916,-4.0769,0.0,0.0,0.0,0.0,0.0,0.0,0.0,0.0,0.0,0.0,0.0,0.0,0.0,0.0,0.0,0.0,0.0,0.0,0.0,0.0,0.0,0.0,0.0,0.0,0.0,0.0,0.0,0.0,0.0,0.0,0.0,0.0,0.0,0.0,0.0,0.0,0.6761,0.2014,1.0214,2.211,2.4534,0.0,0.0,2.4467,2.5557,2.6873,2.7129,2.7447,2.4179,1.0525,0.0,0.0,-1.8121,-2.295,-2.4688,-2.6197,0.0,0.0,0.0,0.0,-2.9185,-2.7915,0.0,0.0,0.0,0.0,0.0,0.0,0.0,0.0,0.0,0.0,0.0,0.0,0.0245,-0.2345,-0.1977,-0.1977,-0.1977,-0.1977,-0.1977,-0.2221,-0.2586,-0.2221,-0.2465,-0.3435,-0.7238,-0.9216,-0.9912,0.0,0.0,0.0,-1.6445,-1.6774,-1.6976,-1.7428,-1.7641,-1.8401,-2.2626,-2.5367,-2.7535,0.0,0.0,0.0,0.0,0.0,0.0,-4.0607,-4.0713,-4.081,-4.09,-4.0868,-4.0849,-4.0819,-4.0873,-4.0865,-4.0739,0.0,0.0,0.0,0.0,0.0,0.0,0.0,0.0,0.0,0.0,0.0,0.0,0.0,0.0,0.0,0.0,0.0,0.0,0.0,0.0,0.0,0.0,0.0,0.0,0.0,0.0,0.0,0.0,0.0,0.0,0.0,0.0,0.0,0.0,0.0,0.0,0.554,0.8911,0.0,0.0,2.3698,2.8761,2.6701,2.701,2.8011,2.8145,2.976,2.6965,1.0474,0.0,0.1462,-1.7289,-2.2274,-2.3692,-2.4796,-2.5693,0.0,0.0,0.0,0.0,-2.5363,-2.4508,-2.0978,0.0,0.0,0.0,0.0,0.0,0.0,0.0,0.0,0.0,0.0,0.5749,0.2287,0.2998,0.6282,0.6521,0.3362,0.3242,0.4236,0.5992,0.06,0.371,1.3727,0.1039,0.0116,0.0,0.0,0.0,0.0,-0.5382,-0.8565,-1.1712,-1.0936,-1.2917,-1.6217,-1.8155,-1.932,-2.0223,0.0,0.0,0.0,0.0,0.0,-4.053,-4.0574,-4.0713,-4.081,-4.0848,-4.0868,-4.0842,-4.0766,-4.0831,-4.0877,-4.0919,-4.0679,0.0,0.0,0.0,0.0,0.0,0.0,0.0,0.0,0.0,0.0,0.0,0.0,0.0,0.0,0.0,0.0,0.0,0.0,0.0,0.0,0.0,0.0,0.0,0.0,0.0,0.0,0.0,0.0,0.0,0.0,0.0,0.0,0.0,0.0,0.0,0.0,0.3212,0.3516,0.0,1.9638,2.6613,2.5095,2.6564,2.8474,2.8483,2.8677,2.4776,0.0,0.0,0.0,-1.7323,-2.1645,-2.2687,-2.3788,-2.4821,-2.5576,-2.5887,-2.6933,-2.6471,-2.2962,-2.3477,-2.1098,0.0,0.0,0.0,0.0,0.0,0.0,0.0,0.0,0.0,0.0,0.0,0.9272,0.9112,1.3891,1.4565,1.0811,1.1726,1.3193,1.5314,0.8994,1.261,2.4445,1.175,1.1709,0.0,0.0,0.0,0.0,0.857,0.4819,0.0981,0.0959,-0.161,-0.5746,-0.9811,-1.1317,-1.1798,0.0,0.0,0.0,0.0,0.0,0.0,-4.0778,-4.079,-4.079,-4.079,-4.079,-4.0843,-4.0885,-4.0837,-4.0861,-4.0996,-4.0698,0.0,0.0,0.0,0.0,0.0,0.0,0.0,0.0,0.0,0.0,0.0,0.0,0.0,0.0,0.0,0.0,0.0,0.0,0.0,0.0,0.0,0.0,0.0,0.0,0.0,0.0,0.0,0.0,0.0,0.0,0.0,0.0,0.0,0.0,0.0,0.0,-0.8734,0.1121,0.8703,1.3557,1.6811,1.8444,2.3586,2.839,2.8066,2.3153,1.6013,0.0,0.0,-0.8657,-1.8737,-2.1548,-2.2369,-2.3419,-2.4479,-2.5215,-2.5664,-2.6532,-2.6041,-2.2692,-2.3068,0.0,0.0,0.0,0.0,0.0,0.0,0.0,0.0,0.0,0.0,0.0,0.0,1.8321,1.554,1.8608,2.0182,2.0174,2.3189,2.4718,2.4794,2.4707,2.4707,2.4871,2.4707,0.0,0.0,0.0,0.0,0.0,2.4697,2.4589,2.4233,2.1142,1.992,1.8153,0.4613,-0.0338,-0.1808,0.0,0.0,0.0,0.0,0.0,0.0,0.0,-4.0759,-4.0746,-4.079,-4.0868,-4.0931,-4.097,-4.0943,-4.0977,-4.1054,-4.0717,0.0,0.0,0.0,0.0,0.0,0.0,0.0,0.0,0.0,0.0,0.0,0.0,0.0,0.0,0.0,0.0,0.0,0.0,0.0,0.0,0.0,0.0,0.0,0.0,0.0,0.0,0.0,0.0,0.0,0.0,0.0,0.0,0.0,0.0,0.0,0.0,0.0,0.0,-0.8042,0.2853,0.0,1.1741,1.4168,1.697,1.6492,1.595,1.2508,0.0946,-0.2391,-0.6325,-1.8249,-2.0903,-2.1422,-2.2405,-2.3709,-2.4832,-2.5454,-2.62,-2.5685,0.0,0.0,0.0,0.0,0.0,0.0,0.0,0.0,0.0,0.0,0.0,0.0,0.0,0.0,2.4622,2.1433,2.8161,3.0004,2.635,2.9364,3.1986,3.3969,2.7833,3.1357,4.2791,0.0,0.0,0.0,0.0,0.0,0.0,3.0885,2.7272,2.203,2.509,2.2449,1.6578,1.221,0.8025,0.4072,0.0,0.0,0.0,0.0,0.0,0.0,0.0,-4.0746,-4.0713,-4.079,-4.0868,-4.0919,-4.0919,-4.0919,-4.0958,-4.1016,-4.0797,0.0,0.0,0.0,0.0,0.0,0.0,0.0,0.0,0.0,0.0,0.0,0.0,0.0,0.0,0.0,0.0,0.0,0.0,0.0,0.0,0.0,0.0,0.0,0.0,0.0,0.9641,0.0,0.0,0.0,0.0,0.0,0.0,0.0,0.0,0.0,0.0,0.0,0.0,0.0,-0.7478,0.2364,0.3551,0.6604,0.9376,0.9047,0.7888,0.0,0.0,-0.6759,-1.0019,-1.813,-2.0409,-2.1002,-2.1337,-2.3109,-2.4694,-2.5143,-2.6109,-2.5595,-2.2377,0.0,0.0,0.0,0.0,0.0,0.0,0.0,0.0,0.0,0.0,0.0,0.0,0.0,2.9302,2.9282,3.5697,3.8048,3.5899,3.8944,4.1484,4.3297,3.7694,4.0844,5.1307,0.0,0.0,0.0,0.0,0.0,0.0,4.0486,3.7228,3.2303,3.3666,3.0742,2.5229,2.062,1.5205,0.982,0.0,0.0,0.0,0.0,0.0,0.0,0.0,-4.0746,-4.0713,-4.079,-4.079,-4.081,-4.081,-4.081,-4.0842,-4.0916,0.0,0.0,0.0,0.0,0.0,0.0,0.0,0.0,0.0,0.0,0.0,-4.0394,-4.0257,-4.0123,-3.998,0.0,0.0,0.0,0.0,0.0,0.0,0.0,0.0,0.0,0.0,0.0,0.0,0.0,0.0,0.0,0.0,0.0,0.0,0.0,0.0,0.0,0.0,0.0,0.0,0.0,0.0,0.0,0.0,0.0208,0.4391,0.4315,0.0,0.0,0.0,-1.3008,0.0,-1.8464,-1.997,-2.0949,-2.039,-2.2621,-2.456,-2.4811,-2.5248,-2.4445,-2.126,0.0,0.0,0.0,0.0,0.0,0.0,0.0,0.0,0.0,0.0,0.0,0.0,0.0,0.0,0.0,4.0988,4.3992,4.7091,5.0167,5.169,5.169,5.169,5.169,5.169,0.0,0.0,0.0,0.0,0.0,0.0,5.1449,5.1155,5.0167,4.4462,4.2046,4.0473,2.9264,2.1372,1.5429,0.0,0.0,0.0,0.0,0.0,0.0,0.0,0.0,0.0,0.0,-4.0829,-4.09,-4.0958,-4.0958,-4.0983,0.0,0.0,0.0,0.0,0.0,0.0,0.0,0.0,0.0,0.0,0.0,0.0,-4.0543,-4.0169,-3.9988,-3.9984,-3.9655,0.0,0.0,0.0,0.0,0.0,0.0,0.0,0.0,0.0,0.0,0.0,0.0,0.0,0.0,-0.9198,-1.0062,0.0,0.0,0.0,0.0,0.0,0.0,0.0,0.0,-1.6676,-1.6023,-1.4163,0.0,-0.7378,-0.8161,-1.0215,-1.2372,0.0,0.0,0.0,0.0,0.0,-1.9984,-2.0526,-2.1311,-2.2731,-2.5149,-1.6893,-1.0513,-1.174,0.0,0.0,0.0,0.0,0.0,0.0,0.0,0.0,0.0,0.0,0.0,0.0,0.0,0.0,0.0,4.2122,4.3992,4.7091,5.0167,5.169,5.169,5.169,5.169,5.169,0.0,0.0,0.0,0.0,0.0,0.0,4.8778,4.5912,4.1081,4.0128,3.8061,3.5129,3.225,2.7471,2.1595,0.0,0.0,0.0,0.0,0.0,0.0,0.0,0.0,0.0,0.0,0.0,0.0,0.0,0.0,0.0,0.0,0.0,0.0,0.0,0.0,0.0,0.0,0.0,0.0,0.0,0.0,0.0,0.0,0.0,-3.9965,0.0,0.0,0.0,0.0,0.0,0.0,0.0,0.0,0.0,0.0,0.0,0.0,0.0,0.0,0.0,0.0,-0.9261,-0.9813,0.0,-1.2995,-1.3375,-1.3375,0.0,0.0,0.0,0.0,-1.6096,-1.6878,-1.6979,-1.5481,-1.4094,-1.4715,-1.5164,-1.5712,-1.6337,-1.737,0.0,0.0,0.0,-1.9933,-1.9423,-1.7946,-1.6378,-1.5043,-0.8131,-0.2198,0.0,0.0,0.0,0.0,0.0,0.0,0.0,0.0,0.0,0.0,0.0,0.0,0.0,0.0,0.0,0.0,4.2485,4.4671,4.9166,5.0893,5.169,5.169,5.169,5.169,5.169,0.0,0.0,0.0,0.0,0.0,4.7524,4.6926,4.4449,4.0982,3.9913,3.802,3.5744,3.4314,2.9874,2.3653,0.0,0.0,0.0,0.0,0.0,0.0,0.0,0.0,0.0,0.0,0.0,0.0,0.0,0.0,0.0,0.0,0.0,0.0,0.0,0.0,0.0,0.0,0.0,0.0,0.0,0.0,0.0,0.0,0.0,0.0,0.0,0.0,-3.5412,0.0,0.0,0.0,0.0,0.0,0.0,0.0,0.0,0.0,0.0,0.0,0.0,0.0,0.0,0.0,0.0,-1.2882,-1.278,-1.2012,-1.4874,0.0,0.0,0.0,0.0,0.0,-1.6588,-1.5853,-1.537,-1.6857,-1.7044,-1.6864,-1.7109,-1.7464,-1.7792,0.0,0.0,0.0,-1.6834,-1.2945,0.0,0.0,0.0,0.0,0.0,0.0,0.0,0.0,0.0,0.0,0.0,0.0,0.0,0.0,0.0,0.0,0.0,0.0,0.0,0.0,4.2485,4.5484,5.1622,5.169,5.169,5.169,5.169,5.169,5.169,5.169,0.0,0.0,0.0,0.0,4.7358,4.5186,4.3882,4.3182,4.0621,3.9078,3.802,3.5338,3.0738,2.4906,0.0,0.0,0.0,0.0,0.0,0.0,0.0,0.0,0.0,0.0,0.0,0.0,0.0,0.0,0.0,0.0,0.0,0.0,0.0,0.0,0.0,0.0,0.0,-4.0948,-4.096,-4.081,0.0,0.0,0.0,0.0,-3.9821,-3.9653,-3.6635,-3.1036,0.0,0.0,0.0,0.0,0.0,0.0,0.0,0.0,0.0,0.0,0.0,0.0,0.0,0.0,0.0,-1.2276,-1.2769,-1.2496,-1.6142,0.0,0.0,0.0,0.0,0.0,-1.5038,-0.9892,-0.6809,-1.5021,-1.5906,-1.5102,-1.6429,0.0,-1.7138,0.0,0.0,0.0,0.0,-0.6041,0.0,0.0,0.0,0.0,0.0,0.0,0.0,0.0,0.0,0.0,0.0,0.0,0.0,0.0,0.0,0.0,0.0,0.0,0.0,0.0,0.0,4.5484,5.1622,5.169,5.169,5.169,5.169,5.169,5.169,5.169,5.169,0.0,0.0,0.0,4.4172,4.2494,3.9957,3.6998,3.7193,3.6357,3.5029,3.4545,3.3319,3.0338,0.0,0.0,0.0,0.0,0.0,0.0,0.0,0.0,0.0,0.0,0.0,0.0,0.0,0.0,0.0,0.0,0.0,0.0,0.0,0.0,0.0,0.0,-4.107,-4.0992,-4.089,-4.0801,0.0,0.0,0.0,-3.9922,-3.9738,-3.6838,-3.4268,-3.1572,0.0,-1.387,-1.0452,0.0,0.0,0.0,0.0,0.0,0.0,0.0,0.0,0.0,0.0,0.0,0.0,0.0,-1.0835,-1.0654,-1.3143,0.0,0.0,0.0,0.0,0.0,-1.514,-0.7656,-0.1786,-0.8826,-0.6045,-0.1619,-0.1923,0.0,0.0,0.0,0.0,0.0,0.0,0.0,0.0,0.0,0.0,0.0,0.0,0.0,0.0,0.0,0.0,0.0,0.0,0.0,0.0,0.0,0.0,0.0,0.0,0.0,0.0,0.0,0.0,0.0,5.1622,5.169,5.169,5.169,5.169,5.169,5.169,5.169,5.169,0.0,0.0,4.491,4.334,3.9704,3.7195,3.5667,3.5953,3.5463,3.4009,3.036,2.6797,2.2502,0.0,0.0,0.0,0.0,0.0,0.0,0.0,0.0,0.0,0.0,0.0,0.0,0.0,0.0,0.0,0.0,0.0,0.0,0.0,0.0,-4.1108,-4.1108,-4.1108,-4.1013,-4.0846,-4.0759,-4.0617,-4.045,-4.0082,-3.9738,-3.9373,-3.4726,-3.2285,-3.1317,0.0,-1.4021,-1.5839,-0.891,-0.562,-0.4608,0.0,0.0,0.0,0.0,0.0,0.0,0.0,0.0,0.0,0.0,0.0,0.0,0.0,0.0,0.0,-1.3573,-1.493,-1.6015,-1.5223,-0.706,0.057,-0.2481,0.412,0.0,0.0,0.0,0.0,0.0,0.0,0.0,0.0,0.0,0.0,0.0,0.0,0.0,0.0,0.0,0.0,0.0,0.0,0.0,0.0,0.0,0.0,0.0,0.0,0.0,0.0,0.0,0.0,0.0,0.0,0.0,4.5387,4.5446,4.7571,5.169,5.169,5.169,5.169,5.169,5.169,5.1449,4.673,4.4299,4.3251,3.8553,3.6288,3.5571,3.5571,3.4739,3.2784,2.6085,1.9859,1.3886,0.0,0.0,0.0,0.0,0.0,0.0,0.0,0.0,0.0,0.0,0.0,0.0,0.0,0.0,0.0,0.0,0.0,0.0,0.0,0.0,-4.1108,-4.1108,-4.1108,-4.107,-4.0987,-4.0866,-4.0637,-4.0315,-4.0229,-3.9596,-3.8446,-3.5501,-3.3161,-3.127,-2.7744,-2.2872,-1.7281,-1.7758,-0.9876,0.2889,0.3299,0.0,0.0,0.0,0.0,0.0,0.0,0.0,0.0,0.0,0.0,0.0,0.0,0.0,-1.3121,-1.5298,-1.6089,-1.5865,-1.4374,-0.7462,-0.0188,0.1849,0.9906,0.0,0.7457,0.6293,0.0,0.3619,0.0,0.0,0.0,0.0,0.0,0.0,0.0,0.0,0.0,0.0,0.0,0.0,0.0,0.0,0.0,0.0,0.0,0.0,0.0,0.0,0.0,0.0,0.0,0.0,0.0,0.0,2.6892,2.6785,3.5164,5.169,5.169,5.169,5.169,5.169,5.169,5.1554,4.8963,4.6258,4.3414,4.0929,3.8145,3.5571,3.5571,3.3766,3.03,2.3651,1.754,1.1475,0.0,0.0,0.0,0.0,0.0,0.0,0.0,0.0,0.0,0.0,0.0,0.0,0.0,0.0,0.0,0.0,0.0,0.0,0.0,0.0,-4.1108,-4.1108,-4.1108,-4.107,-4.0994,-4.0743,-4.0507,-4.0296,-3.9463,-3.8785,-3.8127,-3.4272,-3.2129,-3.1217,-2.7885,-2.3502,-1.8568,-1.8995,-1.4488,-0.6946,-0.6391,-0.6236,0.0,0.0,0.0,0.0,0.0,0.0,0.0,0.0,-0.8195,-1.0066,-1.1132,-1.2496,-1.3992,-1.5544,-1.5396,-1.4466,-1.3713,-0.3149,0.7923,0.8834,2.0924,0.0,0.0,1.3933,1.2697,1.0782,1.4521,0.0,0.0,0.0,0.0,0.0,0.0,0.0,0.0,0.0,0.0,0.0,0.0,0.0,0.0,0.0,0.0,0.0,0.0,0.0,0.0,0.0,0.0,0.0,0.0,0.0,0.0,2.489,2.8286,3.511,4.0671,4.3391,4.3535,4.9133,5.169,5.1536,4.8751,4.5747,4.2741,3.9938,3.6975,3.3773,3.0093,2.7948,2.5752,1.5827,1.0774,0.7655,0.0,0.0,0.0,0.0,0.0,0.0,0.0,0.0,0.0,0.0,0.0,0.0,0.0,0.0,0.0,0.0,0.0,0.0,0.0,0.0,-4.1099,-4.1111,-4.1108,-4.1078,-4.1022,-4.0585,-4.0294,-4.0216,-3.9115,-3.8409,-3.7953,-3.487,-3.2788,-3.1479,-2.8887,-2.4813,0.0,-1.9966,-1.7833,-1.4435,-1.2624,-1.2047,0.0,0.0,0.0,0.0,0.0,0.0,0.0,0.0,-0.8301,-1.056,-1.0956,-1.2078,-1.3739,-1.5212,-1.33,-1.0805,-1.1315,-0.0467,1.0748,0.9593,0.0,0.0,1.8439,1.8866,2.049,1.8145,2.2226,0.0,0.0,0.0,0.0,0.0,0.0,0.0,0.0,0.0,0.0,0.0,0.0,0.0,0.0,0.0,0.0,0.0,0.0,0.0,0.0,0.0,0.0,0.0,0.0,0.0,0.0,1.6395,1.6441,1.6529,2.5576,3.1341,3.4295,4.0436,4.4666,4.6969,4.4832,4.3119,4.1729,3.9791,3.6303,3.1691,2.697,2.3965,2.1106,1.1045,0.5932,0.2839,0.0,0.0,0.0,0.0,0.0,0.0,0.0,0.0,0.0,0.0,0.0,0.0,0.0,0.0,0.0,0.0,0.0,0.0,0.0,-4.1094,-4.1091,-4.1091,-4.1111,-4.1108,-4.1108,-4.0394,-4.0013,-3.9986,-3.9335,-3.8635,-3.7888,-3.7868,-3.5712,-3.1917,-3.2047,-2.825,-2.178,-2.159,-1.9718,-1.6535,-1.3245,-1.219,-1.2261,0.0,0.0,0.0,0.0,0.0,0.0,0.0,-0.7882,-0.9453,-1.1021,-1.1555,-1.2034,-1.437,-0.9959,-0.4832,-0.6912,-0.0389,0.6171,0.0,0.0,0.0,0.7276,1.9127,2.8823,2.516,0.0,0.0,0.0,0.0,0.0,0.0,0.0,0.0,0.0,0.0,0.0,0.0,0.0,0.0,0.0,0.0,0.0,0.0,0.0,0.0,0.0,0.0,0.0,0.0,0.0,0.0,0.0,-0.2015,-0.2116,-0.1994,0.6876,1.5937,2.4892,2.4881,2.9302,3.6983,3.7063,3.8318,4.0455,4.1006,3.6711,2.9538,2.7157,2.2656,1.6773,1.0791,0.4069,-0.2974,0.0,0.0,0.0,0.0,0.0,0.0,0.0,0.0,0.0,0.0,0.0,0.0,0.0,0.0,0.0,0.0,0.0,0.0,0.0,-4.1064,-4.1093,-4.1108,-4.109,-4.1077,-4.1031,-4.0868,-4.0523,-4.0064,-3.8794,-3.8329,-3.8631,-3.6251,-3.3969,-3.1864,0.0,-2.7451,-2.2853,-2.1581,-1.9653,-1.7274,-1.4981,-1.4034,-1.3759,0.0,0.0,0.0,0.0,0.0,0.0,0.0,0.0,0.0,-1.3057,-1.4015,-1.5075,-1.6011,-1.3137,-0.9021,-0.5929,0.1031,0.0,0.0,0.0,0.0,0.0,1.7741,0.0,0.0,0.0,0.0,0.0,0.0,0.0,0.0,0.0,0.0,0.0,0.0,0.0,0.0,0.0,0.0,0.0,0.0,0.0,0.0,0.0,0.0,0.0,0.0,0.0,0.0,0.0,0.0,0.0,0.0,-1.577,-1.8213,-1.551,-0.3819,1.5745,2.2072,2.6302,2.89,3.4617,3.5139,3.2164,3.3909,3.3486,3.0787,2.1833,1.741,1.4993,0.4929,-0.17,-0.6377,0.0,0.0,0.0,0.0,0.0,0.0,0.0,0.0,0.0,0.0,0.0,0.0,0.0,0.0,0.0,0.0,0.0,0.0,0.0,0.0,-4.1091,-4.1108,-4.1045,-4.1047,-4.1114,-4.1377,-4.1391,-4.1137,-3.9435,-3.8736,-3.8903,-3.6605,-3.455,-3.2613,-3.0877,-2.8138,-2.4735,-2.2301,-2.0604,-1.9322,-1.6591,-1.5461,-1.5259,0.0,0.0,0.0,0.0,0.0,0.0,0.0,0.0,0.0,-1.4947,-1.5431,-1.5476,-1.2546,-0.875,-0.4329,0.0997,0.7508,0.0,0.0,0.0,0.0,0.0,0.0,0.0,0.0,0.0,0.0,0.0,0.0,0.0,0.0,0.0,0.0,0.0,0.0,0.0,0.0,0.0,0.0,0.0,0.0,0.0,0.0,0.0,0.0,0.0,0.0,0.0,0.0,0.0,0.0,0.0,0.0,0.0,-2.5068,-2.5123,-1.7371,-0.2788,0.5804,1.3163,1.9635,2.6648,2.781,2.4786,2.4987,2.482,2.378,1.6636,1.2632,0.9767,0.119,-0.5061,-1.0,0.0,0.0,0.0,0.0,0.0,0.0,0.0,0.0,0.0,0.0,0.0,0.0,0.0,0.0,0.0,0.0,0.0,0.0,0.0,0.0,-4.1071,-4.106,-4.1008,-4.1131,-4.1434,-4.1936,-4.2366,-4.2746,-4.081,-3.9569,-3.8995,-3.8172,-3.6415,-3.3854,-3.2205,-2.9894,-2.7025,-2.3725,-2.2356,-2.1971,-1.808,-1.6664,-1.6614,-1.3993,0.0,0.0,0.0,0.0,0.0,0.0,0.0,0.0,-1.6452,-1.6343,-1.4594,-0.7214,-0.1135,0.4501,1.0199,0.0,0.0,0.0,0.0,0.0,0.0,0.0,0.0,0.0,0.0,0.0,0.0,0.0,0.0,0.0,0.0,0.0,0.0,0.0,0.0,0.0,0.0,0.0,0.0,0.0,0.0,0.0,0.0,0.0,0.0,0.0,0.0,0.0,0.0,0.0,0.0,0.0,0.0,0.0,-2.7088,-2.688,-2.5973,-1.8083,-0.5786,0.9622,1.4267,1.7349,1.8947,1.6085,1.4028,1.2502,1.1603,0.7975,0.2826,-0.1279,-0.7145,-1.3737,0.0,0.0,0.0,0.0,0.0,0.0,0.0,0.0,0.0,0.0,0.0,0.0,0.0,0.0,0.0,0.0,0.0,0.0,0.0,0.0,-4.0916,-4.0876,-4.1296,-4.1851,-4.2554,-4.2773,-4.2911,-4.2922,-4.0796,-3.9738,-3.9734,-3.7979,-3.598,-3.3869,-3.2989,-3.0572,-2.7105,-2.5661,-2.3609,-2.123,-2.0,-1.8824,-1.7662,-1.5806,-1.5497,0.0,0.0,0.0,0.0,0.0,0.0,0.0,-1.8037,-1.9051,-1.9426,-1.4653,-0.9603,-0.372,0.4455,0.9288,0.0,0.0,0.0,0.0,0.0,0.0,0.0,0.0,0.0,0.0,0.0,0.0,0.0,0.0,0.0,0.0,0.0,0.0,0.0,0.0,0.0,0.0,0.0,0.0,0.0,0.0,0.0,0.0,0.0,0.0,0.0,0.0,0.0,0.0,-3.3025,-3.4651,-3.7201,0.0,-4.2427,-4.0209,-3.4298,-2.623,-1.3874,0.122,0.0173,0.6863,1.8391,1.5493,1.4355,1.373,0.657,0.3174,0.1452,-0.648,-1.281,-1.7828,0.0,0.0,0.0,0.0,0.0,0.0,0.0,0.0,0.0,0.0,0.0,0.0,0.0,0.0,0.0,0.0,0.0,0.0,0.0,0.0,0.0,-4.1168,-4.2223,-4.2983,-4.3369,-4.3555,-4.3634,-4.3662,-4.1829,0.0,0.0,0.0,-3.6597,-3.4743,-3.2258,-3.0072,-2.8047,-2.5859,-2.3937,-2.2277,-2.1176,-2.03,-1.9475,-1.7479,-1.7145,-1.7659,-1.6453,0.0,0.0,0.0,0.0,0.0,0.0,0.0,-2.0063,-1.4936,-1.0651,-0.5468,0.4241,0.0,0.0,1.1618,0.0,0.0,0.0,0.0,0.0,0.0,0.0,0.0,0.0,0.0,0.0,0.0,0.0,0.0,0.0,0.0,0.0,0.0,0.0,0.0,0.0,0.0,0.0,0.0,0.0,0.0,0.0,0.0,0.0,0.0,0.0,0.0,-3.6747,-3.8696,-4.1412,-4.5053,-4.7083,-4.6255,-4.2445,-3.0707,-2.0689,-1.2434,-1.0139,-0.6596,-0.203,0.1877,0.1423,-0.1952,-0.4973,-0.5797,-0.6016,-1.2886,-1.6842,-1.9132,0.0,0.0,0.0,0.0,0.0,0.0,0.0,0.0,0.0,0.0,0.0,0.0,0.0,0.0,0.0,0.0,0.0,0.0,0.0,0.0,0.0,0.0,-4.3254,-4.4018,-4.4122,-4.4173,-4.4279,-4.4383,-4.3084,0.0,0.0,0.0,0.0,-3.5578,-3.1877,-2.9995,-2.9315,-2.6293,-2.4607,-2.379,-2.2138,-2.1373,-2.1125,-1.9082,-1.8386,-1.8478,-1.8287,-1.8484,-1.8738,-1.8154,0.0,0.0,0.0,0.0,-2.0325,-1.4395,-1.076,-0.65,0.3478,0.0,0.7212,0.7882,0.814,0.0,0.0,0.0,0.0,0.0,0.0,0.0,0.0,0.0,0.0,0.0,0.0,0.0,0.0,0.0,0.0,0.0,0.0,0.0,0.0,0.0,0.0,0.0,0.0,0.0,0.0,0.0,0.0,0.0,0.0,-3.1014,-3.7274,-3.9108,-4.1671,-4.4953,-4.7197,-4.8568,-4.8712,-3.5773,-2.8829,-2.671,-2.0126,-2.018,-2.4183,-1.4905,-1.4588,-1.9594,-1.7545,-1.5651,-1.4596,-1.9258,-2.05,-2.0468,0.0,0.0,0.0,0.0,0.0,0.0,0.0,0.0,0.0,0.0,0.0,0.0,0.0,0.0,0.0,0.0,0.0,0.0,-4.0813,0.0,0.0,-4.3437,-4.3694,-4.4167,-4.4912,-4.4447,-4.425,-4.4318,0.0,0.0,0.0,0.0,0.0,-3.4986,0.0,-3.2681,-3.016,-2.9961,-2.7885,-2.4605,-2.3889,-2.2606,-2.0974,-2.05,-1.9897,-1.9406,-1.9406,-2.0588,-2.1862,-1.9994,-2.1314,0.0,0.0,0.0,0.0,-2.1105,-1.7999,-1.4148,0.0,0.0,0.5309,0.0,0.5018,0.3682,0.0,0.0,0.0,0.0,0.0,0.0,0.0,0.0,0.0,0.0,0.0,0.0,0.0,0.0,0.0,0.0,0.0,0.0,0.0,0.0,0.0,0.0,0.0,0.0,0.0,0.0,-2.5635,-2.842,-3.1896,0.0,-3.949,-4.1466,-4.321,-4.4751,-4.7772,-4.938,-4.9628,-4.7892,-4.2904,-3.5568,-3.4041,-3.0161,-2.4819,-2.3413,-2.1649,-2.0153,-2.4069,-2.2658,-1.9051,-2.3994,-2.5664,-2.571,0.0,0.0,0.0,0.0,0.0,0.0,0.0,0.0,0.0,0.0,0.0,0.0,0.0,0.0,0.0,-4.0994,-4.0967,-4.1057,-4.1296,-4.2371,-4.3216,-4.3719,-4.4212,-4.4653,-4.5084,-4.4503,-4.425,-4.4346,0.0,0.0,0.0,-3.9987,-3.8199,0.0,0.0,0.0,0.0,-2.9745,-2.8259,-2.5497,-1.7017,-1.4444,-1.4555,-0.4005,-0.5052,-1.2107,-1.0919,0.0,0.0,-2.1183,-2.2274,-2.3764,-2.3484,0.0,0.0,0.0,-2.2896,-1.8374,-0.9224,-0.2763,0.1819,0.0,0.3572,0.268,0.0,0.0,0.0,0.0,0.0,0.0,0.0,0.0,0.0,0.0,0.0,0.0,0.0,0.0,0.0,0.0,0.0,0.0,0.0,0.0,0.0,0.0,0.0,0.0,0.0,-2.4412,-2.749,-3.0413,-3.311,0.0,-3.984,-4.1889,-4.4194,-4.6862,-4.8905,-4.9983,-5.0078,-5.0305,-4.801,-4.3616,-3.8958,-3.7299,-3.7464,-3.1212,-2.9727,-3.1434,-3.1668,-2.9376,-2.6166,-2.7942,-2.8756,-2.9172,0.0,0.0,0.0,0.0,0.0,0.0,0.0,0.0,0.0,0.0,0.0,0.0,0.0,0.0,0.0,0.0,-4.1095,-4.1535,-4.2281,-4.3423,-4.4029,-4.4028,-4.4616,-4.4967,-4.5103,-4.4495,-4.4221,0.0,0.0,0.0,-4.1665,-4.0981,-3.9613,0.0,-3.4916,-3.2806,0.0,0.0,0.0,0.0,-1.2908,-0.8971,-0.9818,0.6728,0.611,-0.3251,-0.0808,0.0,0.0,0.0,0.0,-2.4562,-2.466,-2.5751,0.0,0.0,0.0,0.0,0.0,0.0,-0.2996,-0.0277,0.1159,0.1341,0.0,0.0,0.0,0.0,0.0,0.0,0.0,0.0,0.0,0.0,0.0,0.0,0.0,0.0,0.0,0.0,0.0,0.0,0.0,0.0,0.0,0.0,0.0,0.0,-2.3111,-2.5998,-2.9003,-3.1967,-3.4323,-3.7414,-4.1199,-4.3196,-4.5688,-4.8595,-4.9693,-5.0287,-5.0412,-5.0563,-5.0164,-4.9077,-4.307,-4.3552,-4.7918,-3.9382,-3.8073,-4.1083,-3.84,-3.5225,-3.2197,-3.1612,-3.1487,-3.1636,0.0,0.0,0.0,0.0,0.0,0.0,0.0,0.0,0.0,0.0,0.0,0.0,-4.0994,-4.0945,-4.0903,-4.0896,-4.1652,-4.2676,-4.3987,-4.3982,-4.4192,-4.48,-4.4751,0.0,-4.5084,-4.4383,-4.4151,0.0,0.0,0.0,-4.2336,-4.1984,-4.0884,-3.9237,-3.789,-3.6151,-3.4095,0.0,0.0,0.0,0.0,-1.1881,-1.0467,0.007,0.0,0.0,0.0,0.0,0.0,0.0,0.0,-2.7694,-2.7494,-2.76,0.0,0.0,0.0,0.0,0.0,-1.5057,0.0,-0.6383,-0.3804,0.0,0.0,0.0,0.0,0.0,0.0,0.0,0.0,0.0,0.0,0.0,0.0,0.0,0.0,0.0,0.0,0.0,0.0,0.0,0.0,0.0,0.0,0.0,0.0,0.0,-2.2894,-2.7056,-3.0338,-3.2396,-3.6656,-4.0786,-4.478,-4.6811,-4.818,-4.8884,-4.9631,-5.0288,-5.0793,-5.1103,-5.0984,-5.0465,-4.9479,-4.9279,-4.9547,-4.8594,-4.6391,-4.3589,-4.3068,-3.9663,-3.5085,-3.5208,-3.4084,-3.2887,0.0,0.0,0.0,0.0,0.0,0.0,0.0,0.0,0.0,0.0,0.0,0.0,0.0,-4.0889,-4.1069,-4.1616,-4.2984,-4.3944,-4.4251,-4.4633,-4.4914,-4.5084,-4.4919,-4.4895,-4.5014,-4.4648,-4.4412,0.0,0.0,-4.3175,-4.3266,-4.2591,-4.1772,-4.0724,-3.902,-3.7017,-3.4857,-3.3438,0.0,0.0,0.0,0.0,0.0,0.0,0.0,0.0,0.0,0.0,0.0,0.0,-1.2531,-1.6513,-2.527,-2.8351,0.0,0.0,0.0,0.0,0.0,0.0,0.0,-1.2867,-0.9868,0.0,0.0,0.0,0.0,0.0,0.0,0.0,0.0,0.0,0.0,0.0,0.0,0.0,0.0,0.0,0.0,0.0,0.0,0.0,0.0,0.0,0.0,0.0,0.0,0.0,-2.4856,-2.8321,-3.1589,-3.4365,-3.7502,-4.1148,-4.537,-4.7529,-4.8915,-4.9551,-4.9568,-4.9817,-5.0236,-5.0392,-5.0364,-5.0244,-5.0614,-5.0389,-4.9738,-4.929,-4.7727,-4.5551,-4.5093,-4.2435,-3.8762,-3.7956,-3.7325,-3.6803,0.0,0.0,0.0,0.0,0.0,0.0,0.0,0.0,0.0,0.0,0.0,0.0,0.0,0.0,-4.1673,-4.2826,-4.4008,-4.4697,-4.4729,-4.5203,-4.5381,-4.5213,-4.4995,-4.4924,-4.4991,-4.4384,-4.4149,0.0,0.0,0.0,0.0,-4.3194,-4.2589,-4.1884,-4.0602,-3.8623,0.0,0.0,0.0,-3.1428,0.0,0.0,-0.0158,0.0,0.0,0.0,0.0,0.0,0.0,0.0,-0.8579,-1.2054,-2.304,0.0,0.0,0.0,0.0,0.0,-3.1659,0.0,0.0,0.0,0.0,0.0,0.0,0.0,0.0,0.0,0.0,0.0,0.0,0.0,0.0,0.0,0.0,0.0,0.0,0.0,0.0,0.0,0.0,0.0,0.0,0.0,0.0,0.0,0.0,0.0,-2.6131,-2.8791,-3.2155,-3.6519,-3.9318,-4.2171,-4.53,-4.7074,-4.8277,-4.8899,-4.8914,-4.9026,-4.9313,-4.9476,-4.957,-4.9601,-5.0223,-5.0433,-5.03,-4.9817,-4.8952,-4.7832,-4.6545,-4.4694,-4.2493,-4.0544,-3.9856,-3.9753,0.0,0.0,0.0,0.0,0.0,0.0,0.0,0.0,0.0,0.0,0.0,0.0,0.0,0.0,0.0,-4.4446,-4.462,-4.4911,-4.5555,-4.5596,-4.5475,-4.5235,-4.5023,-4.4934,-4.4991,-4.3587,-4.3338,0.0,0.0,0.0,0.0,0.0,-4.344,-4.2623,-4.2776,-4.1174,-3.8367,0.0,-3.6075,-3.3468,0.0,-0.9355,-0.0699,0.0,0.0,0.0,2.1659,1.4289,0.0,0.4934,-0.3999,-1.5152,0.0,0.0,0.0,0.0,0.0,0.0,0.0,0.0,0.0,0.0,0.0,0.0,0.0,0.0,0.0,0.0,0.0,0.0,0.0,0.0,0.0,0.0,0.0,0.0,0.0,0.0,0.0,0.0,0.0,0.0,0.0,0.0,0.0,0.0,0.0,-2.4539,-2.6644,-2.8482,-3.2354,-3.8638,-4.2056,-4.4192,-4.4885,-4.5737,-4.6378,-4.693,-4.7568,-4.794,-4.8097,-4.8497,-4.8663,-4.8665,-4.8697,-4.9707,-5.1288,-5.0771,-5.0577,-5.0319,-4.7644,-4.6549,-4.6097,-4.2948,-4.1724,-4.1518,0.0,0.0,0.0,0.0,0.0,0.0,0.0,0.0,0.0,0.0,0.0,0.0,0.0,-4.3052,-4.4078,-4.4562,-4.5123,-4.5554,-4.5718,-4.5661,-4.5563,-4.5493,-4.526,-4.5129,-4.5148,-4.4716,-4.4499,-4.4595,0.0,0.0,0.0,0.0,0.0,0.0,-4.3524,-4.2946,-4.1497,-3.9502,0.0,0.0,-2.1104,-1.3768,0.0,0.0,0.0,0.0,0.0,1.6263,0.0,0.0,0.202,0.1312,0.0,0.0,0.0,0.0,0.0,0.0,-4.0536,0.0,0.0,0.0,0.0,0.0,0.0,0.0,0.0,0.0,0.0,0.0,0.0,0.0,0.0,0.0,0.0,0.0,0.0,0.0,0.0,0.0,0.0,0.0,0.0,0.0,0.0,0.0,0.0,-2.5982,-2.7698,-3.233,-3.6552,-4.0105,-4.2748,-4.4471,-4.5267,-4.6205,-4.6986,-4.7562,-4.7338,-4.741,-4.7674,-4.7835,-4.7907,-4.7948,-4.8572,-4.9107,-4.9531,-4.9664,-5.0071,-5.0484,-4.9335,-4.79,-4.6445,-4.5971,-4.4798,-4.3306,0.0,0.0,0.0,0.0,0.0,0.0,0.0,0.0,0.0,0.0,0.0,0.0,0.0,0.0,-4.4775,-4.5065,-4.5529,-4.58,-4.58,-4.5723,-4.5661,-4.5596,-4.54,-4.5258,-4.5192,-4.4672,-4.448,-4.4659,0.0,0.0,0.0,0.0,0.0,0.0,0.0,0.0,0.0,0.0,0.0,0.0,-2.7585,0.0,0.0,-0.0591,0.4886,0.0,0.0,0.0,0.9454,-0.0891,-0.2029,0.0,0.0,0.0,0.0,0.0,0.0,0.0,-4.225,-4.3229,0.0,0.0,0.0,0.0,0.0,-2.391,0.0,0.0,0.0,0.0,0.0,0.0,0.0,0.0,0.0,0.0,0.0,0.0,0.0,0.0,0.0,0.0,0.0,0.0,0.0,0.0,-2.4979,-2.6956,-2.9616,-3.4884,-3.8611,-4.0366,-4.2454,-4.4002,-4.4964,-4.5541,-4.6221,-4.6879,-4.6593,-4.6611,-4.6912,-4.7015,-4.7033,-4.7044,-4.759,-4.8002,-4.8337,-4.8905,-4.9625,-5.0341,-5.0155,-4.9251,-4.8004,-4.7554,-4.6729,-4.5631,0.0,0.0,0.0,0.0,0.0,0.0,0.0,0.0,0.0,0.0,0.0,0.0,0.0,0.0,0.0,-4.5783,-4.5794,-4.58,-4.5819,-4.58,-4.5757,-4.5629,-4.5493,-4.5361,-4.5235,-4.4156,-4.3957,-4.4659,0.0,0.0,0.0,0.0,0.0,0.0,0.0,0.0,0.0,0.0,0.0,-4.1895,-3.543,-2.6632,0.0,0.0,-0.3205,0.0,-0.4984,-0.2262,0.421,-0.4876,-1.0778,0.0,0.0,0.0,0.0,0.0,-3.9361,0.0,0.0,-4.3462,0.0,0.0,0.0,0.0,-3.4458,-2.8195,0.0,0.0,0.0,0.0,0.0,0.0,0.0,0.0,0.0,0.0,0.0,0.0,0.0,0.0,0.0,0.0,0.0,0.0,-2.1257,-2.3826,-2.5532,-2.8168,-3.2151,-3.6472,-3.9244,-4.0158,-4.18,-4.3206,-4.4398,-4.4452,-4.4853,-4.5611,-4.5707,-4.5866,-4.6123,-4.6237,-4.6278,-4.6209,-4.6268,-4.6749,-4.7506,-4.833,-4.9179,-5.0006,-5.0428,-5.047,-5.0092,-4.8317,-4.7951,-4.794,-4.1108,0.0,0.0,0.0,0.0,0.0,0.0,0.0,0.0,0.0,0.0,0.0,0.0,0.0,-4.5823,-4.6027,-4.5886,-4.5838,-4.5949,-4.5858,-4.58,-4.5752,-4.5629,-4.5493,-4.5361,-4.5088,-4.496,-4.4991,0.0,0.0,0.0,0.0,0.0,0.0,0.0,0.0,0.0,0.0,0.0,-4.1894,-3.2527,0.0,-2.0748,-1.1569,-0.7405,-0.6536,-0.7097,-0.6743,-0.5766,0.0,-0.9159,-1.6359,0.0,0.0,0.0,0.0,0.0,0.0,0.0,0.0,0.0,0.0,0.0,0.0,-3.963,-3.7239,0.0,0.0,0.0,0.0,0.0,0.0,0.0,0.0,0.0,0.0,0.0,0.0,0.0,0.0,0.0,0.0,0.0,0.0,-2.1505,-2.5346,-2.8778,-3.1985,-3.4982,-3.7488,-3.981,-4.2011,-4.2627,-4.341,-4.4398,-4.4834,-4.522,-4.561,-4.5893,-4.6083,-4.6177,-4.6257,-4.6289,-4.6286,-4.63,-4.6377,-4.6534,-4.7459,-4.8554,-4.9777,-5.0755,-5.1087,-5.0865,-4.9757,-4.8885,-4.817,-4.1099,0.0,0.0,0.0,0.0,0.0,0.0,0.0,0.0,0.0,0.0,0.0,0.0,0.0,0.0,-4.5893,-4.5802,-4.582,0.0,-4.5896,-4.5849,-4.5854,-4.5744,-4.5596,-4.5364,-4.5322,-4.522,-4.5057,0.0,0.0,0.0,0.0,0.0,0.0,0.0,0.0,0.0,0.0,-4.5813,-4.0532,-3.3187,0.0,-2.3429,-1.5256,-1.2709,-1.3357,-1.2577,-1.268,-1.2495,-0.7437,-0.939,0.0,0.0,-2.0322,-2.5488,0.0,-3.745,-3.8763,0.0,0.0,0.0,-4.4392,0.0,0.0,0.0,-3.9407,-3.7312,0.0,0.0,0.0,0.0,0.0,0.0,0.0,0.0,0.0,0.0,0.0,0.0,0.0,0.0,0.0,0.0,0.0,-2.3604,-2.8635,-3.2041,-3.4871,-3.7214,-3.9462,-4.1357,-4.2739,-4.3376,-4.4063,-4.4792,-4.5184,-4.5494,-4.5803,-4.5966,-4.6096,-4.6203,-4.6239,-4.6269,-4.6308,-4.6305,-4.6277,-4.632,-4.7366,-4.785,-4.8119,-4.9809,-5.0654,-5.0856,-5.008,-4.9169,-4.8263,-4.1129,0.0,0.0,0.0,0.0,0.0,0.0,0.0,0.0,-4.5004,0.0,0.0,0.0,0.0,0.0,0.0,-4.4845,-4.5016,0.0,0.0,0.0,-4.5857,-4.5811,-4.5645,-4.5394,-4.5391,-4.5306,-4.5143,0.0,0.0,0.0,0.0,0.0,0.0,0.0,0.0,0.0,0.0,0.0,-3.8502,0.0,-2.9812,-2.3945,-1.8784,-1.6567,-1.6374,-1.7002,-1.7528,-1.7239,-1.3054,0.0,-1.4801,-2.083,-2.103,0.0,0.0,0.0,0.0,0.0,0.0,0.0,0.0,0.0,-4.4502,0.0,0.0,0.0,-3.2573,0.0,0.0,0.0,0.0,0.0,0.0,0.0,0.0,0.0,0.0,0.0,0.0,0.0,0.0,0.0,0.0,-2.6986,-3.1527,-3.4826,-3.7319,-3.8902,-4.1288,-4.2812,-4.3259,-4.4005,-4.4675,-4.5244,-4.5418,-4.5668,-4.6007,-4.5991,-4.6057,-4.6175,-4.619,-4.623,-4.6289,-4.6289,-4.6297,-4.6343,-4.7276,-4.7201,-4.6757,-4.9048,-5.022,-5.0534,-4.9778,-4.8987,-4.8307,-4.1191,-4.1191,0.0,0.0,0.0,0.0,0.0,0.0,-4.5004,-4.5865,-4.4997,0.0,0.0,0.0,0.0,0.0,0.0,0.0,-4.3771,0.0,0.0,-4.5657,-4.5722,-4.569,-4.5655,-4.5718,-4.5705,-4.5607,0.0,0.0,0.0,0.0,0.0,0.0,-4.5151,0.0,0.0,0.0,-4.1523,0.0,-3.5341,-2.9263,0.0,-1.814,-1.5605,-1.3557,-1.5583,-1.8074,-2.0005,0.0,-2.152,-2.4979,0.0,-2.0183,0.0,0.0,0.0,0.0,0.0,0.0,0.0,0.0,-4.3846,0.0,0.0,0.0,-4.3405,-4.1356,0.0,0.0,0.0,0.0,0.0,0.0,0.0,0.0,0.0,0.0,0.0,0.0,0.0,0.0,0.0,0.0,0.0,-3.1897,-3.6458,-3.9427,-3.9764,-4.1552,-4.3084,-4.4215,-4.4325,-4.4754,-4.5454,-4.549,-4.5668,-4.6007,-4.6002,-4.6042,-4.6111,-4.6179,-4.6191,-4.6211,-4.6269,-4.6269,-4.621,-4.6351,-4.6782,-4.7623,-5.0199,-5.0855,-5.0201,-4.8934,-4.838,-4.8309,-4.1191,-4.1582,0.0,0.0,0.0,-4.3372,-4.4202,-4.5007,-4.5638,-4.5932,0.0,0.0,0.0,0.0,0.0,0.0,0.0,-4.205,0.0,0.0,0.0,0.0,0.0,0.0,0.0,-4.5679,-4.6056,-4.6449,-4.6709,0.0,0.0,0.0,0.0,0.0,-4.4183,0.0,-4.3535,0.0,0.0,0.0,0.0,0.0,0.0,-2.0327,-1.8622,-1.7698,-1.9265,-2.0389,-2.1087,0.0,-2.1063,0.0,0.0,0.0,0.0,0.0,0.0,0.0,0.0,0.0,0.0,0.0,0.0,0.0,0.0,0.0,-4.449,0.0,0.0,0.0,0.0,0.0,0.0,0.0,0.0,0.0,0.0,0.0,0.0,0.0,0.0,0.0,0.0,0.0,0.0,0.0,0.0,-4.084,-4.1439,-4.2722,-4.3743,-4.4371,-4.47,-4.5061,-4.549,-4.561,-4.5742,-4.5877,-4.5969,-4.6046,-4.6104,-4.6124,-4.6172,-4.6269,-4.625,-4.625,-4.6308,-4.6889,-4.6947,-4.6989,-5.0076,-5.0894,-5.0228,-4.9653,-4.8968,-4.8307,-4.1472,0.0,0.0,0.0,0.0,0.0,-4.4982,-4.5553,0.0,0.0,0.0,0.0,-4.458,-4.3341,0.0,0.0,0.0,-4.0795,0.0,0.0,-4.2837,0.0,0.0,0.0,0.0,0.0,-4.6225,-4.717,0.0,0.0,0.0,0.0,0.0,0.0,0.0,-4.2279,-4.0847,0.0,0.0,-3.3537,-3.4896,-3.1227,-2.4613,-2.2274,-2.17,-2.2316,-2.2719,-2.2824,-2.2784,-2.2883,-2.1796,0.0,-2.0836,0.0,0.0,0.0,0.0,0.0,-3.9569,0.0,0.0,0.0,0.0,0.0,0.0,0.0,0.0,0.0,0.0,0.0,0.0,0.0,0.0,0.0,0.0,0.0,0.0,0.0,0.0,0.0,0.0,0.0,0.0,0.0,0.0,0.0,0.0,0.0,-4.2392,-4.3523,-4.4196,-4.4266,-4.4925,-4.5381,-4.5594,-4.5723,-4.5819,-4.5858,-4.5949,-4.6048,-4.6092,-4.6112,-4.6162,-4.6238,-4.6218,-4.6354,-4.666,-4.7118,-4.7098,-4.6978,-4.8957,-4.9952,-5.0302,-5.0307,-4.9458,-4.828,-4.2179,-4.2227,0.0,0.0,0.0,0.0,0.0,0.0,0.0,0.0,0.0,0.0,0.0,0.0,0.0,0.0,0.0,-3.7292,-3.8824,0.0,-4.035,0.0,0.0,-4.39,0.0,0.0,0.0,0.0,0.0,0.0,0.0,0.0,0.0,0.0,0.0,-4.3412,-4.1749,-4.0107,-3.6418,-3.1722,-3.2536,-2.9283,-2.398,0.0,-2.3952,-2.5392,-2.4393,0.0,0.0,-2.4078,-2.6917,0.0,0.0,0.0,0.0,0.0,0.0,0.0,0.0,0.0,0.0,0.0,0.0,0.0,0.0,0.0,-4.0657,0.0,0.0,0.0,0.0,0.0,-3.8307,-3.8875,0.0,0.0,0.0,0.0,0.0,0.0,0.0,0.0,0.0,0.0,0.0,0.0,0.0,0.0,-4.1885,-4.3446,-4.4228,-4.394,-4.4939,-4.5594,-4.58,-4.58,-4.5858,-4.5988,-4.6007,-4.6038,-4.6111,-4.6162,-4.6156,-4.6112,-4.617,-4.6675,-4.7382,-4.6455,-4.7038,-4.8365,-4.665,-4.7764,-5.0317,-5.0298,-4.9464,-4.8295,0.0,0.0,0.0,0.0,0.0,0.0,0.0,-4.5142,0.0,0.0,0.0,0.0,0.0,0.0,-3.8944,0.0,0.0,-3.693,-3.7963,-3.8469,0.0,0.0,0.0,-4.281,0.0,0.0,0.0,0.0,0.0,0.0,0.0,0.0,0.0,0.0,0.0,-4.2959,0.0,0.0,0.0,0.0,0.0,-2.7697,-2.5089,0.0,0.0,-2.4688,-2.4786,-2.5392,0.0,-2.6679,-2.6928,-2.6651,-2.469,-2.4204,-2.4824,-2.741,-2.8524,0.0,0.0,0.0,-3.2405,-3.352,0.0,0.0,0.0,0.0,0.0,0.0,0.0,0.0,0.0,0.0,-3.9003,-3.9561,-4.062,0.0,0.0,0.0,0.0,0.0,0.0,0.0,0.0,0.0,0.0,0.0,0.0,0.0,0.0,-4.2923,-4.3342,-4.4076,-4.4435,-4.4996,-4.578,-4.58,-4.5858,-4.6007,-4.6044,-4.6095,-4.6166,-4.6183,-4.6197,-4.6162,-4.6143,-4.6603,-4.7349,-4.7184,-4.7781,-4.8829,-4.907,-4.9796,-5.0656,-5.0391,-4.945,-4.8314,-4.3708,0.0,0.0,0.0,0.0,0.0,0.0,0.0,0.0,0.0,-4.1899,0.0,-4.048,0.0,-3.8471,0.0,-3.6776,-3.6212,-3.6723,-3.7173,0.0,-3.7231,-3.9462,0.0,0.0,0.0,0.0,0.0,0.0,-4.8766,0.0,0.0,0.0,0.0,0.0,0.0,0.0,0.0,-3.3729,0.0,0.0,-2.763,0.0,0.0,-2.5925,0.0,0.0,-2.5895,-2.6235,-2.7545,-2.667,-2.5199,-2.6203,-2.4652,-2.3232,-2.7195,-2.7742,-2.7736,-3.0993,-3.029,0.0,0.0,-2.9673,0.0,0.0,0.0,0.0,0.0,0.0,0.0,0.0,0.0,-3.7713,-3.8735,-4.0441,-4.2109,0.0,-4.4073,0.0,0.0,0.0,0.0,0.0,0.0,0.0,0.0,0.0,0.0,0.0,0.0,-4.2947,-4.3758,-4.4171,-4.4866,-4.5858,-4.5858,-4.5949,-4.6065,-4.6111,-4.6173,-4.623,-4.6234,-4.621,-4.6185,-4.6422,-4.6883,-4.7468,-4.7816,-4.8671,-4.9869,-5.061,-5.0911,-5.0853,-5.0463,-4.9435,-4.8319,0.0,0.0,0.0,0.0,-4.5151,0.0,0.0,0.0,-4.2702,0.0,-4.1168,-4.0233,-4.0004,-3.833,-3.7186,-3.7186,-3.5932,0.0,-3.5186,-3.5784,0.0,0.0,-3.6415,-3.73,-3.7734,0.0,0.0,0.0,0.0,0.0,0.0,0.0,0.0,0.0,-4.9899,0.0,-3.9833,-3.8985,-3.4854,-2.8884,-2.9194,-2.9071,-2.8806,-2.9498,0.0,-2.5984,-2.6688,-2.6804,-2.6692,-2.6785,-2.6381,-2.5834,-2.5508,-2.5363,-2.5336,-2.5678,-2.5946,-2.6113,-2.6113,-2.5746,-2.6073,-2.8832,0.0,0.0,0.0,0.0,-2.9453,0.0,0.0,0.0,0.0,0.0,0.0,-3.6572,-3.9206,-4.1837,-4.4053,0.0,0.0,0.0,0.0,0.0,0.0,0.0,0.0,0.0,0.0,0.0,0.0,0.0,0.0,-4.3022,-4.4066,-4.507,-4.5988,-4.6007,-4.6065,-4.6195,-4.6201,-4.624,-4.6308,-4.6308,-4.6256,-4.6215,-4.6984,-4.7487,-4.7831,-4.8241,-4.9591,-5.1331,-5.1022,-5.0899,-5.0854,-5.0459,-4.9456,-4.8288,-4.375,-4.4357,-4.4707,0.0,-4.477,-4.4638,0.0,0.0,0.0,0.0,-3.9123,-3.8254,-3.815,-3.7636,-3.7248,-3.7248,-3.5732,0.0,0.0,0.0,0.0,-3.4184,-3.5409,-3.5998,-3.5732,-3.8235,0.0,-4.3204,0.0,0.0,-4.833,0.0,0.0,0.0,0.0,0.0,-3.9399,-3.8405,-3.4768,-2.9642,-2.9607,-2.9128,0.0,0.0,-2.9006,-2.7881,-2.7945,-2.7631,-2.7359,-2.8804,-2.8028,-2.6637,-2.801,-2.7203,-2.5716,-2.5675,-2.5711,-2.5722,-2.554,-2.5359,-2.5104,-2.4691,-2.5069,-2.5799,0.0,0.0,0.0,0.0,0.0,0.0,0.0,0.0,0.0,-3.6326,-4.0355,-4.3547,0.0,0.0,0.0,0.0,0.0,0.0,0.0,0.0,0.0,0.0,0.0,0.0,0.0,0.0,0.0,-4.3264,-4.3576,-4.4413,-4.5838,-4.5949,-4.6053,-4.6132,-4.6177,-4.624,-4.6308,-4.6308,-4.66,-4.7157,-4.7367,-4.8135,-4.9219,-4.8643,-4.944,-5.1022,-5.0945,-5.0908,-5.0851,-5.0446,-4.9453,-4.8292,-4.403,0.0,0.0,-4.3967,0.0,0.0,-4.3006,0.0,0.0,-3.9537,-3.8236,0.0,-3.7436,-3.6709,-3.6285,-3.6142,-3.5215,0.0,0.0,0.0,0.0,-3.4149,-3.4285,-3.4448,-3.4572,-3.6297,0.0,-4.0911,0.0,0.0,-4.6889,0.0,0.0,0.0,0.0,-4.4729,0.0,-3.76,-3.4052,-3.047,-3.0797,0.0,0.0,-3.0944,-3.0395,-2.9385,-2.9601,-2.898,-2.8081,-2.9176,-2.8354,-2.7108,-2.8409,-2.7627,-2.6173,-2.6338,-2.5602,-2.4778,-2.46,-2.4471,-2.4049,-2.3066,-2.3607,-2.4265,-2.405,-2.4745,-2.5489,0.0,0.0,0.0,0.0,0.0,0.0,0.0,0.0,0.0,0.0,0.0,0.0,0.0,0.0,0.0,0.0,0.0,0.0,0.0,0.0,0.0,0.0,0.0,0.0,-4.3294,-4.3414,-4.4233,-4.591,-4.6046,-4.6113,-4.6195,-4.6229,-4.627,-4.6308,-4.6699,-4.7109,-4.7539,-4.828,-4.8987,-4.9634,-4.9524,-5.0039,-5.089,-5.0902,-5.0893,-5.0832,-5.0188,-4.9627,-4.9078,0.0,0.0,0.0,0.0,0.0,0.0,0.0,-4.0803,0.0,-3.9161,0.0,-3.7189,-3.7258,-3.6071,-3.5185,-3.496,0.0,-3.443,-3.4112,-3.4133,-3.418,-3.4246,-3.3282,-3.3193,-3.405,-3.4601,0.0,0.0,0.0,0.0,0.0,0.0,0.0,0.0,0.0,0.0,0.0,-3.6445,-3.3192,0.0,-3.2403,-3.2626,-3.2413,-3.3056,-3.2239,-3.0878,-3.1524,-3.0543,-2.891,-2.891,-2.8269,-2.7558,-2.7958,-2.7462,-2.6743,-2.7065,-2.5726,-2.4087,-2.3938,-2.3516,-2.3184,-2.3008,-2.296,-2.2824,-2.2366,-2.2375,-2.2473,-2.2454,-2.2921,0.0,0.0,0.0,0.0,0.0,0.0,0.0,0.0,0.0,0.0,0.0,0.0,0.0,0.0,0.0,0.0,0.0,0.0,0.0,0.0,0.0,0.0,0.0,-4.3421,0.0,-4.6065,0.0,-4.6222,-4.6262,-4.6267,-4.6326,-4.6462,-4.7224,-4.7653,-4.7906,-4.9347,-4.9848,-4.969,-5.0574,-5.0925,-5.089,-5.0759,-5.0722,-5.062,-4.9801,-4.9833,-5.0118,0.0,0.0,0.0,0.0,0.0,-4.0908,-4.0067,-3.8659,-3.77,-3.7617,-3.6816,0.0,-3.7056,-3.6807,-3.6459,-3.6289,-3.5623,0.0,0.0,0.0,0.0,-3.2816,-3.304,-3.3322,-3.3707,-3.4094,-3.554,0.0,0.0,0.0,0.0,0.0,0.0,0.0,0.0,0.0,-3.8595,-3.4844,0.0,-3.3093,-3.3688,-3.4025,-3.4204,-3.423,-3.3966,-3.3615,-3.3056,-3.1625,-2.9897,-2.9897,-2.9268,-2.8434,-2.8533,-2.7964,-2.7139,-2.6857,-2.6474,-2.587,-2.4559,-2.3965,-2.3454,-2.2553,-2.2122,-2.1952,-2.1863,-2.2394,-2.3008,-2.2999,-2.3647,-2.4423,-2.5136,0.0,0.0,0.0,0.0,0.0,0.0,0.0,0.0,0.0,0.0,0.0,0.0,0.0,0.0,0.0,0.0,0.0,0.0,0.0,0.0,0.0,0.0,0.0,0.0,0.0,0.0,-4.6147,-4.6135,-4.6482,-4.7132,-4.7288,-4.8133,-4.9497,-4.98,-5.0256,-5.0816,-5.1057,-5.1061,-5.0816,-5.0047,-4.975,-4.973,-4.9562,-4.9843,-5.0109,0.0,0.0,0.0,0.0,0.0,0.0,0.0,-3.7195,0.0,-3.7116,-3.6773,-3.6739,-3.7357,-3.7074,-3.6768,-3.6935,-3.6383,-3.565,-3.4549,-3.4664,-3.4389,-3.3649,-3.3161,0.0,-3.3872,-3.3373,-3.4355,-3.7001,0.0,0.0,0.0,0.0,0.0,0.0,0.0,-4.1024,0.0,0.0,0.0,-3.4251,-3.5004,-3.5103,-3.4799,-3.4564,-3.4397,-3.4314,-3.3411,-3.2525,-3.1625,-3.108,-3.026,-2.9452,-2.9452,-2.8806,-2.7945,-2.7721,-2.6827,-2.5565,-2.4306,-2.4034,-2.3751,-2.1886,-2.1789,-2.1961,-2.175,-2.1686,-2.1943,-2.2921,-2.3454,-2.4522,-2.7036,-3.0626,0.0,0.0,0.0,0.0,0.0,0.0,0.0,0.0,0.0,0.0,0.0,0.0,0.0,0.0,0.0,0.0,0.0,0.0,0.0,0.0,0.0,0.0,0.0,0.0,0.0,-4.6104,-4.6096,-4.653,-4.7323,-4.7757,-4.8681,-4.9936,-5.0382,-5.0765,-5.1099,-5.1061,-5.0993,-5.0871,-5.0411,-4.9943,-4.9505,-4.9508,-4.9665,-4.983,0.0,-4.282,0.0,0.0,-3.9968,0.0,0.0,-3.6462,-3.6249,-3.6892,-3.6887,-3.7056,-3.7668,-3.7195,-3.6915,-3.716,-3.7002,-3.6532,-3.5614,-3.5424,-3.5175,-3.469,-3.3495,-3.3282,-3.4312,-3.3143,-3.3764,0.0,0.0,0.0,0.0,0.0,0.0,0.0,0.0,0.0,0.0,0.0,-3.6916,-3.5297,-3.6217,-3.6149,-3.544,-3.5032,-3.4786,-3.4538,-3.3654,-3.324,-3.2982,-3.1901,-3.0991,-3.017,-2.9715,-2.9084,-2.8351,-2.8351,-2.7056,-2.5366,-2.4296,-2.4382,-2.4073,-2.1696,-2.1587,-2.1943,-2.1355,-2.0852,-2.106,-2.2482,-2.3577,-2.5187,-2.8487,-3.185,0.0,0.0,0.0,0.0,0.0,0.0,0.0,0.0,0.0,0.0,0.0,0.0,0.0,0.0,0.0,0.0,0.0,0.0,0.0,0.0,0.0,0.0,-4.6061,0.0,-4.6123,0.0,-4.6239,-4.6748,-4.7564,-4.8439,-4.9308,-5.0155,-5.0848,-5.1119,-5.1061,-5.0945,-5.0902,-5.0914,-5.0897,-5.0316,-4.9516,-4.9495,-4.9493,-4.9551,0.0,0.0,0.0,0.0,0.0,0.0,0.0,-3.6841,-3.6593,-3.6661,-3.6634,-3.6837,-3.7449,-3.7446,-3.7389,-3.7201,-3.7201,-3.6718,-3.5579,-3.5547,-3.5148,-3.4283,-3.427,-3.4402,-3.4759,-3.4109,-3.4675,0.0,0.0,0.0,0.0,0.0,0.0,0.0,0.0,0.0,0.0,-3.7823,-3.7055,-3.6771,-3.7234,-3.7352,-3.7056,-3.678,-3.6201,-3.5386,-3.4538,-3.3738,-3.2982,-3.1901,-3.0991,-2.9897,-2.8175,-2.7536,-2.7441,-2.7441,-2.7326,-2.6904,-2.5828,-2.5312,-2.4592,-2.2435,-2.1414,-2.0805,-1.9784,-2.0606,-2.1606,-2.1784,-2.5009,-2.7726,-2.7325,-3.0942,-3.3845,0.0,0.0,0.0,0.0,0.0,0.0,0.0,0.0,0.0,0.0,0.0,0.0,0.0,0.0,0.0,0.0,0.0,0.0,0.0,0.0,-4.4317,-4.5988,-4.6028,0.0,-4.6027,-4.6689,-4.7463,-4.8333,-4.9204,-5.0055,-5.0793,-5.0906,-5.0925,-5.0925,-5.0925,-5.089,-5.0899,-5.0905,-5.0317,-4.9515,-4.9504,-4.9512,-4.9511,0.0,0.0,0.0,0.0,0.0,0.0,0.0,-3.596,-3.6406,-3.6751,-3.7026,-3.7308,-3.7831,-3.7898,-3.7946,-3.8046,-3.7883,-3.7471,-3.6671,-3.5865,-3.525,-3.4857,-3.3795,-3.3604,-3.4494,-3.39,-3.419,0.0,0.0,0.0,0.0,0.0,0.0,0.0,0.0,-3.9093,-3.8918,-3.8212,-3.7813,-3.769,-3.8161,-3.7962,-3.7429,-3.7014,-3.636,-3.5453,-3.4703,-3.3458,-3.2077,-3.108,-3.089,-3.0722,-2.8724,-2.8175,-2.7987,-2.7441,-2.687,-2.6284,-2.579,-2.5566,-2.5073,-2.3363,-2.2766,-2.2312,-2.1401,-2.1173,-2.1436,-2.2353,-2.5975,-2.9312,-3.0235,-3.2455,-3.464,0.0,0.0,0.0,0.0,0.0,0.0,0.0,0.0,0.0,0.0,0.0,0.0,0.0,0.0,0.0,0.0,0.0,0.0,-4.3474,0.0,-4.4861,-4.6037,-4.6034,-4.5957,-4.5877,-4.6709,-4.756,-4.843,-4.9301,-5.0152,-5.0906,-5.0906,-5.0906,-5.0906,-5.0906,-5.0906,-5.0893,-5.0894,-5.0325,-4.9484,-4.9504,-4.9484,-4.9557,-3.7093,0.0,-3.6228,0.0,-3.5718,-3.5562,-3.4876,-3.5364,-3.6044,-3.6817,-3.6928,-3.7294,-3.8113,-3.7949,-3.8033,-3.8562,-3.8304,-3.8041,-3.7762,-3.6314,-3.54,-3.546,-3.3731,0.0,-3.4126,-3.3849,-3.404,-3.4873,-3.6648,0.0,0.0,0.0,0.0,0.0,-3.9234,-3.9016,-3.8918,-3.8762,-3.8602,-3.8501,-3.8708,-3.8412,-3.781,-3.7169,-3.636,-3.5453,-3.4703,-3.336,-3.1889,-3.0621,-3.0621,-3.0812,-2.8899,-2.8269,-2.8081,-2.7146,-2.6284,-2.5596,-2.5294,-2.5197,-2.5023,-2.4031,-2.3662,-2.3404,-2.2723,-2.2097,-2.2153,-2.3907,-2.7392,-3.0634,-3.2386,-3.4138,-3.5889,0.0,0.0,0.0,0.0,0.0,0.0,0.0,0.0,-4.0742,-4.0785,0.0,0.0,0.0,0.0,0.0,0.0,0.0,0.0,0.0,0.0,0.0,0.0,0.0,-4.6048,-4.622,-4.7091,-4.7947,-4.8817,-4.9668,-5.0364,-5.0906,-5.0906,-5.0906,-5.0906,-5.0906,-5.0906,-5.0893,-5.0856,-5.041,-4.9825,-4.9752,-4.9758,-4.9808,-3.6291,-3.6074,-3.5668,-3.4693,-3.4919,-3.529,-3.5302,-3.5388,-3.5729,-3.6766,-3.6105,-3.6339,-3.8395,-3.7691,-3.7402,-3.8512,-3.8304,-3.8304,-3.8589,-3.661,-3.5546,0.0,0.0,-3.3721,-3.3721,-3.4152,-3.4481,-3.4825,0.0,0.0,-3.5828,0.0,0.0,-3.8307,-3.8611,-3.8978,-3.9409,-3.9409,-3.925,-3.9104,-3.887,-3.8649,-3.8366,-3.7323,-3.636,-3.5453,-3.4703,-3.3823,-3.281,-3.089,-3.017,-2.9897,-2.7893,-2.7357,-2.7061,-2.5984,-2.5693,-2.5499,-2.4393,-2.4088,-2.4088,-2.4088,-2.3874,-2.3469,-2.296,-2.3303,-2.4381,-2.6554,-2.9338,-3.173,-3.2541,-3.5337,-3.7409,-3.6998,0.0,0.0,0.0,0.0,0.0,0.0,-4.0595,-4.0846,-4.0987,0.0,0.0,0.0,0.0,0.0,0.0,0.0,0.0,-4.4831,-4.4772,0.0,-4.6089,-4.5958,-4.6319,-4.719,-4.8,-4.8836,-4.9707,-5.0519,-5.0906,-5.0906,-5.0906,-5.0906,-5.0906,-5.0906,-5.0906,-5.0893,-5.0759,-5.0653,-5.0552,-5.0368,-5.029,-5.0298,-3.3692,-3.3947,-3.404,-3.3728,-3.4537,-3.4872,-3.4035,-3.5519,-3.6628,-3.6056,-3.5436,-3.5534,-3.6883,0.0,-3.6068,0.0,-3.6977,-3.6977,0.0,-3.5754,-3.4832,-3.4536,-3.41,-3.3759,-3.3746,-3.3933,-3.4183,-3.4494,0.0,0.0,0.0,-3.7706,-3.8169,-3.8354,-3.8907,-3.9286,-3.9424,-3.9424,-3.9337,-3.9265,-3.8943,-3.8782,-3.8649,-3.8037,-3.6908,-3.5548,-3.5305,-3.383,-3.1901,-3.0621,-2.9715,-2.8991,-2.7715,-2.7262,-2.7061,-2.5984,-2.5187,-2.4492,-2.4187,-2.4088,-2.4285,-2.4992,-2.5091,-2.5073,-2.5391,-2.553,-2.6428,-2.902,-3.0598,-3.216,-3.4434,-3.6369,-3.7923,-3.8868,0.0,0.0,0.0,0.0,0.0,0.0,0.0,-4.2635,0.0,-4.2767,0.0,0.0,0.0,0.0,0.0,0.0,0.0,0.0,-4.5409,0.0,-4.6098,-4.6609,-4.6984,-4.723,-4.8623,-4.9717,-5.0538,-5.079,-5.0906,-5.0906,-5.0906,-5.0906,-5.0906,-5.0906,-5.0805,-5.07,-5.0701,-5.0622,-5.0524,-5.0363,-5.0298,-5.0288,-3.2803,-3.3212,-3.3479,-3.3279,-3.4076,-3.4414,-3.3364,-3.4872,-3.6036,-3.5667,-3.5174,-3.5162,-3.6225,-3.5522,0.0,-3.6225,-3.6709,0.0,-3.6909,-3.5559,-3.4619,-3.427,-3.4066,-3.3736,-3.342,0.0,0.0,-3.4397,-3.4788,-3.5574,-3.683,-3.7829,-3.8294,-3.8383,-3.909,-3.9424,-3.9424,-3.9424,-3.9337,-3.9265,-3.8943,-3.8708,-3.8649,-3.7947,-3.683,-3.5534,-3.5237,-3.383,-3.1989,-3.108,-3.0079,-2.9084,-2.8081,-2.7536,-2.7061,-2.5984,-2.4894,-2.3989,-2.3601,-2.3203,-2.3203,-2.4698,-2.5089,-2.546,-2.6827,-2.7305,-2.8128,-3.056,-3.196,-3.3471,-3.5821,-3.7322,-3.8657,-4.0033,0.0,0.0,0.0,0.0,0.0,0.0,0.0,0.0,0.0,-4.364,0.0,0.0,0.0,0.0,0.0,0.0,0.0,-4.5479,-4.5884,0.0,-4.6583,-4.7067,-4.759,-4.8186,-4.9575,-5.0482,-5.0941,-5.0941,-5.0921,-5.0906,-5.0906,-5.0906,-5.089,-5.0805,-5.0736,-5.0663,-5.0567,-5.0523,-5.0466,-5.0336,-5.0313,-5.0302,-3.3239,-3.3647,0.0,0.0,-3.3711,0.0,-3.3346,-3.3808,-3.4581,-3.5571,-3.5174,-3.5259,-3.6225,-3.5451,-3.5259,-3.6225,0.0,0.0,0.0,-3.5953,-3.4872,-3.4775,-3.4282,0.0,-3.3143,-3.454,-3.4953,-3.4314,-3.5264,-3.5669,-3.5749,-3.7414,-3.8202,-3.8202,-3.9046,-3.9424,-3.9424,-3.9424,-3.9337,-3.9177,-3.887,-3.8723,-3.8441,-3.74,-3.6439,-3.5548,-3.4786,-3.3894,-3.2982,-3.1901,-3.089,-2.9988,-2.8899,-2.7998,-2.7061,-2.5984,-2.4894,-2.389,-2.292,-2.192,-2.1615,-2.3692,-2.4285,-2.4946,-2.7532,-2.8586,-2.9528,-3.1332,-3.341,-3.5265,-3.6599,-3.8173,-3.9577,-4.0617,-4.1306,-4.1974,-4.2677,0.0,0.0,0.0,0.0,0.0,0.0,-4.3879,-4.4214,0.0,0.0,0.0,0.0,0.0,-4.533,-4.6264,-4.6222,-4.6586,-4.7396,-4.7446,-4.8281,-4.9911,-5.0707,-5.1067,-5.1005,-5.1005,-5.0971,-5.0906,-5.0906,-5.089,-5.0874,-5.07,-5.0663,-5.072,-5.0418,-5.0371,-5.0457,-5.0348,-5.0302,-5.0302,0.0,0.0,-3.3372,-3.3261,-3.4412,-3.5066,-3.3993,-3.5713,-3.6964,-3.6225,-3.6023,-3.6036,-3.632,-3.6131,-3.6036,-3.632,-3.6521,-3.6722,-3.6722,-3.6225,-3.5642,-3.4872,-3.5424,-3.5469,-3.4805,-3.4816,-3.4324,-3.3335,-3.491,-3.5669,-3.5749,-3.7414,-3.8202,-3.8202,-3.9046,-3.9424,-3.9424,-3.9424,-3.9568,-3.9711,-3.909,-3.8929,-3.9075,-3.8188,-3.7323,-3.6439,-3.5628,-3.4772,-3.3713,-3.1335,-3.0351,-2.9897,-2.8175,-2.7441,-2.7061,-2.5984,-2.4894,-2.4088,-2.3791,-2.3502,-2.3701,-2.4992,-2.5974,-2.6991,-2.8611,-2.9281,-3.0212,-3.2731,-3.4408,-3.5795,-3.7172,-3.8745,-4.0231,-4.1407,-4.2286,-4.3212,-4.4359,0.0,0.0,0.0,-4.5404,-4.5527,-4.5672,-4.5675,-4.5746,0.0,0.0,0.0,0.0,0.0,-4.668,-4.6303,-4.685,-4.7249,-4.7396,-4.8651,-4.9787,-5.0785,-5.0985,-5.1089,-5.1087,-5.1087,-5.1039,-5.0971,-5.0971,-5.0858,-5.0682,-5.0738,-5.0527,-5.0206,-5.0374,-5.0348,-5.0207,-5.0278,-5.0302,-5.0302,-3.2822,-3.2952,-3.3247,-3.3522,-3.4385,-3.486,-3.4385,-3.6011,-3.707,-3.6414,-3.6722,-3.7015,-3.7015,-3.7015,-3.7015,-3.7015,-3.7015,-3.7015,-3.7015,-3.6615,-3.6036,-3.5547,-3.6023,-3.6056,-3.5374,-3.5378,-3.4815,-3.3602,-3.5386,-3.6281,-3.6281,-3.7933,-3.8943,-3.9277,-3.9737,-4.0076,-4.0339,-4.0216,-4.0076,-3.9879,-3.9292,-3.9002,-3.8782,-3.8352,-3.74,-3.6281,-3.5775,-3.4841,-3.3471,-3.1512,-3.0531,-2.9897,-2.8445,-2.7631,-2.7156,-2.6572,-2.5684,-2.4786,-2.4786,-2.4492,-2.4473,-2.5925,-2.7105,-2.8451,-3.0455,-3.1366,-3.2356,-3.455,-3.6043,-3.7333,-3.8427,-3.9563,-4.0799,-4.2332,-4.3122,-4.3895,-4.495,-4.5507,0.0,-4.5889,-4.6013,-4.6144,-4.6296,-4.63,-4.627,-4.6246,0.0,0.0,-4.6833,-4.7634,-4.7725,-4.6924,-4.7665,-4.8268,-4.8633,-4.9865,-5.0713,-5.1159,-5.1159,-5.1134,-5.1108,-5.1108,-5.1081,-5.1053,-5.0956,-5.0786,-5.0606,-5.0567,-5.0399,-5.0149,-5.0259,-5.0278,-5.0207,-5.0278,-5.0302,-5.0302,-3.2946,-3.2946,-3.3135,-3.3796,-3.3993,-3.4288,-3.4969,-3.5846,-3.6521,-3.6521,-3.7307,-3.79,-3.79,-3.79,-3.79,-3.79,-3.79,-3.79,-3.79,-3.7015,-3.6521,-3.6521,-3.6521,-3.6281,-3.5789,-3.6158,-3.5792,-3.4786,-3.6346,-3.7127,-3.7127,-3.8708,-3.9753,-4.0355,-4.0478,-4.0805,-4.1276,-4.1008,-4.0531,-3.9905,-3.9436,-3.8855,-3.8352,-3.8202,-3.7309,-3.5949,-3.5695,-3.4664,-3.3313,-3.1974,-3.0871,-3.0,-2.8894,-2.7957,-2.7262,-2.7262,-2.6668,-2.5984,-2.5984,-2.5373,-2.5237,-2.6938,-2.8111,-2.9601,-3.229,-3.3541,-3.4635,-3.6509,-3.7928,-3.9153,-4.0037,-4.0703,-4.1603,-4.3222,-4.3751,-4.4248,-4.5101,0.0,-4.5835,-4.591,-4.6049,-4.6176,-4.6296,-4.6417,-4.6495,-4.6495,-4.7295,0.0,0.0,-4.8545,-4.8681,-4.7998,-4.8645,-4.941,-5.0282,-5.0914,-5.121,-5.1194,-5.1194,-5.1183,-5.1127,-5.1127,-5.1102,-5.1081,-5.0921,-5.075,-5.0567,-5.0421,-5.0306,-5.0255,-5.0158,-5.0207,-5.0302,-5.0302,-5.0302,-5.0325,-3.1924,-3.1823,-3.2117,-3.3101,-3.408,-3.4969,-3.5928,-3.7015,-3.7611,-3.7611,-3.7808,-3.79,-3.79,-3.79,-3.79,-3.79,-3.79,-3.79,-3.79,-3.7703,-3.7611,-3.7611,-3.7611,-3.7572,-3.7468,-3.7276,-3.6946,-3.6489,-3.7539,-3.8037,-3.8037,-3.8958,-3.9481,-3.9625,-4.0216,-4.0424,-4.0261,-4.0285,-4.027,-4.006,-3.909,-3.8738,-3.887,-3.8427,-3.8037,-3.763,-3.6108,-3.5453,-3.4786,-3.1866,-3.0606,-2.9966,-2.8445,-2.7658,-2.7262,-2.7262,-2.7167,-2.7061,-2.7061,-2.7505,-2.8049,-2.833,-2.9257,-3.0508,-3.2475,-3.3541,-3.4884,-3.763,-3.933,-4.0588,-4.1437,-4.2281,-4.303,-4.3788,-4.4156,-4.4653,0.0,0.0,-4.5939,-4.6049,-4.6181,-4.6273,-4.63,-4.6963,-4.7393,-4.7393,-4.8154,-4.8603,-4.8603,-4.9423,-4.9833,-4.9716,-4.9829,-5.0323,-5.1199,-5.1257,-5.1267,-5.1201,-5.1201,-5.1189,-5.1171,-5.1171,-5.1159,-5.1102,-5.1069,-5.0851,-5.0527,-5.0606,-5.044,-5.0133,-5.0231,-5.0278,-5.0302,-5.0348,-5.0371,-5.039,-3.1721,-3.2117,-3.2812,-3.3883,-3.4969,-3.5941,-3.7015,-3.7611,-3.79,-3.79,-3.79,-3.79,-3.79,-3.79,-3.79,-3.79,-3.8304,-3.8639,-3.8639,-3.8148,-3.79,-3.79,-3.79,-3.7781,-3.7656,-3.7192,-3.6934,-3.688,-3.7782,-3.8202,-3.8202,-3.9031,-3.9809,-4.0547,-4.0668,-4.1075,-4.1623,-4.1358,-4.0873,-4.0239,-3.955,-3.9002,-3.8575,-3.8277,-3.763,-3.666,-3.5855,-3.4822,-3.3507,-3.1433,-3.0473,-2.9913,-2.8705,-2.7986,-2.7614,-2.7614,-2.7448,-2.7441,-2.7904,-2.8362,-2.9073,-3.0551,-3.134,-3.2364,-3.4927,-3.6354,-3.7665,-3.9713,-4.1367,-4.2686,-4.3289,-4.4043,-4.4837,-4.5604,-4.6011,0.0,0.0,-4.7306,-4.7423,-4.7482,-4.7582,-4.7647,-4.7647,-4.8017,-4.8252,-4.8252,-4.9032,-4.9501,-4.9501,-5.034,-5.0809,-5.0809,-5.0809,-5.0991,-5.1394,-5.1375,-5.1316,-5.1248,-5.122,-5.1201,-5.1208,-5.1194,-5.1171,-5.1139,-5.0961,-5.0731,-5.0509,-5.0526,-5.0374,-5.0182,-5.0348,-5.0412,-5.0393,-5.0457,-5.0457,-5.0457,-3.251,-3.3001,-3.3895,-3.4969,-3.5738,-3.6615,-3.7703,-3.79,-3.79,-3.79,-3.79,-3.79,-3.79,-3.807,-3.8226,-3.8226,-3.8849,-3.9256,-3.9256,-3.8483,-3.8219,-3.8472,-3.8198,-3.783,-3.7535,-3.7044,-3.7049,-3.751,-3.8173,-3.8501,-3.8501,-3.9119,-4.0021,-4.0992,-4.0873,-4.1459,-4.2459,-4.1803,-4.106,-4.0224,-3.9748,-3.8987,-3.8202,-3.8202,-3.7232,-3.5883,-3.5858,-3.4621,-3.2791,-3.1553,-3.0886,-3.0285,-2.9132,-2.8452,-2.8059,-2.7955,-2.7796,-2.7809,-2.8538,-2.9154,-3.0203,-3.2377,-3.3305,-3.4449,-3.721,-3.8837,-4.0152,-4.1523,-4.3182,-4.453,-4.5011,-4.5698,-4.648,-4.7205,0.0,0.0,0.0,-4.8555,-4.8704,-4.8717,-4.8777,-4.8798,-4.8798,-4.8974,-4.9091,-4.9091,-4.9911,-5.0399,-5.0399,-5.1043,-5.139,-5.1357,-5.139,-5.1406,-5.1405,-5.1405,-5.1369,-5.1316,-5.1265,-5.123,-5.119,-5.1156,-5.1139,-5.1102,-5.0816,-5.0661,-5.0529,-5.0485,-5.0393,-5.0302,-5.0438,-5.05,-5.05,-5.0521,-5.0521,-5.0521,-3.4581,-3.4581,-3.4969,-3.6023,-3.6225,-3.6615,-3.7703,-3.79,-3.79,-3.79,-3.79,-3.79,-3.79,-3.8639,-3.9121,-3.9121,-3.9388,-3.9578,-3.9578,-3.8964,-3.9075,-4.0376,-3.9056,-3.8208,-3.7788,-3.7718,-3.8182,-3.9192,-3.9265,-3.9337,-3.9337,-3.9337,-3.9481,-3.9553,-4.0076,-4.0424,-4.0646,-4.003,-3.9874,-3.9819,-3.8767,-3.8277,-3.8202,-3.8202,-3.7644,-3.6772,-3.6525,-3.5831,-3.4748,-3.2842,-3.1945,-3.1287,-2.9701,-2.8938,-2.8473,-2.8048,-2.8254,-2.8631,-2.8724,-3.0641,-3.2635,-3.2807,-3.4545,-3.6512,-3.7544,-3.9095,-4.0747,-4.231,-4.4018,-4.5439,-4.616,-4.6979,-4.7567,-4.7666,0.0,0.0,-4.8448,-4.8612,-4.8717,-4.879,-4.8798,-4.8798,-4.8798,-4.954,-5.0008,-5.0008,-5.0809,-5.1297,-5.1297,-5.1375,-5.1333,-5.1211,-5.1333,-5.1394,-5.139,-5.139,-5.1401,-5.1388,-5.1388,-5.1292,-5.1105,-5.1042,-5.0951,-5.0819,-5.0803,-5.0717,-5.0587,-5.0644,-5.0605,-5.0478,-5.05,-5.05,-5.05,-5.0582,-5.0603,-5.0603,-3.4872,-3.5259,-3.5998,-3.698,-3.7638,-3.8405,-3.9401,-3.9073,-3.8715,-3.8715,-3.8421,-3.8118,-3.8118,-3.8528,-3.8865,-3.8865,-3.9473,-3.9834,-3.9834,-3.9619,-3.9449,-3.9354,-3.8463,-3.8165,-3.856,-3.8188,-3.8495,-3.9424,-3.9424,-3.9424,-3.9424,-3.9424,-3.961,-4.0076,-4.0301,-4.0646,-4.1122,-4.0547,-4.0185,-3.9819,-3.9075,-3.8501,-3.8202,-3.8202,-3.7565,-3.6646,-3.6552,-3.5639,-3.4354,-3.3648,-3.301,-3.2563,-3.1962,-3.1385,-3.0831,-3.0024,-3.0732,-3.1747,-3.1424,-3.2117,-3.3221,-3.4791,-3.6249,-3.7803,-3.9738,-4.1056,-4.2217,-4.3505,-4.5354,-4.6747,-4.7088,-4.8255,-4.9214,-4.9348,0.0,-4.9982,-5.016,-5.0232,-5.0297,-5.0395,-5.0418,-5.0418,-5.0418,-5.0711,-5.0906,-5.0906,-5.1219,-5.1394,-5.1394,-5.1327,-5.1252,-5.1203,-5.1252,-5.1284,-5.1284,-5.1362,-5.1357,-5.1284,-5.1281,-5.1181,-5.1043,-5.0956,-5.0883,-5.0803,-5.0754,-5.0682,-5.0606,-5.0625,-5.0604,-5.0582,-5.0603,-5.0623,-5.0643,-5.0644,-5.0664,-5.0644,-3.6408,-3.6816,-3.7469,-3.7894,-3.8722,-3.9381,-3.9546,-3.9261,-3.8988,-3.8988,-3.8659,-3.8413,-3.8413,-3.8768,-3.9007,-3.9007,-3.9714,-4.0158,-4.0158,-3.9891,-3.9382,-3.8387,-3.822,-3.8382,-3.8735,-3.8405,-3.8575,-3.9424,-3.9424,-3.9424,-3.9424,-3.9337,-3.961,-4.006,-3.995,-4.0355,-4.1107,-4.0339,-3.992,-3.9834,-3.9075,-3.8575,-3.8202,-3.8202,-3.7473,-3.6495,-3.6685,-3.5807,-3.4408,-3.4281,-3.3991,-3.3598,-3.33,-3.2845,-3.2391,-3.2077,-3.278,-3.3733,-3.3627,-3.4037,-3.4859,-3.6498,-3.7681,-3.9013,-4.1166,-4.233,-4.331,-4.4473,-4.6206,-4.7627,-4.7902,-4.9168,-5.021,-5.0451,-5.0713,-5.097,-5.1113,-5.1167,-5.1252,-5.139,-5.1394,-5.1394,-5.1394,-5.1394,-5.1394,-5.1394,-5.1394,-5.1394,-5.1394,-5.1265,-5.1187,-5.1141,-5.1141,-5.1123,-5.1113,-5.1252,-5.1291,-5.1203,-5.1162,-5.1086,-5.0961,-5.0902,-5.0822,-5.0736,-5.0682,-5.0625,-5.0606,-5.0624,-5.0623,-5.0643,-5.0664,-5.0683,-5.0683,-5.0625,-5.0606,-5.0586,-3.9466,-3.9592,-3.934,-3.8528,-3.91,-3.9145,-3.7653,-3.8117,-3.8599,-3.8599,-3.8599,-3.8585,-3.8585,-3.9476,-4.0031,-4.0031,-4.0275,-4.0382,-4.0382,-3.9783,-3.8928,-3.7901,-3.8624,-3.8812,-3.8217,-3.8202,-3.859,-3.9424,-3.9424,-3.9424,-3.9424,-3.9177,-3.9104,-3.9104,-3.8664,-3.9162,-4.0146,-3.8767,-3.8841,-3.9819,-3.8634,-3.8202,-3.8202,-3.8217,-3.7487,-3.6563,-3.7145,-3.6537,-3.5444,-3.4992,-3.4775,-3.4581,-3.3598,-3.2955,-3.2734,-3.3696,-3.3924,-3.3996,-3.4925,-3.6534,-3.7785,-3.7785,-3.884,-4.0224,-4.1462,-4.2613,-4.3831,-4.4971,-4.6496,-4.7864,-4.8636,-4.9578,-5.0317,-5.0663,-5.081,-5.0928,-5.0984,-5.1103,-5.1252,-5.139,-5.1394,-5.1394,-5.1394,-5.1394,-5.1394,-5.1394,-5.1394,-5.1394,-5.1394,-5.1258,-5.1141,-5.1008,-5.1008,-5.0985,-5.0921,-5.1102,-5.1203,-5.1215,-5.1083,-5.0972,-5.0925,-5.0839,-5.0757,-5.0622,-5.0622,-5.0622,-5.0622,-5.0682,-5.0702,-5.0721,-5.0702,-5.0701,-5.0682,-5.0467,-5.0404,-5.0361,-3.8837,-3.8879,-3.903,-3.9439,-3.9682,-3.9945,-4.0182,-3.9823,-3.9556,-3.9556,-3.9169,-3.891,-3.891,-3.9305,-3.9595,-3.9595,-3.9667,-3.9709,-3.9709,-3.9529,-3.9266,-3.8913,-3.9166,-3.9224,-3.9046,-3.9046,-3.9192,-3.9424,-3.9424,-3.9424,-3.9424,-3.9177,-3.9104,-3.9104,-3.909,-3.9292,-3.958,-3.909,-3.9017,-3.9292,-3.8501,-3.8202,-3.826,-3.8725,-3.815,-3.7172,-3.7754,-3.7216,-3.6144,-3.6011,-3.5966,-3.5953,-3.6282,-3.6344,-3.6316,-3.6908,-3.7511,-3.7822,-3.7249,-3.8232,-3.9209,-3.8546,-3.9768,-4.1462,-4.2675,-4.363,-4.4507,-4.5665,-4.6949,-4.8088,-4.8702,-4.9758,-5.0606,-5.0808,-5.0793,-5.0805,-5.0972,-5.1031,-5.1123,-5.1245,-5.1333,-5.1394,-5.1394,-5.1394,-5.1394,-5.1394,-5.1352,-5.1271,-5.1132,-5.1039,-5.1224,-5.176,-5.176,-5.2074,-5.2666,-5.2195,-5.1921,-5.1851,-5.2395,-5.263,-5.2512,-5.2493,-5.2453,-5.2351,-5.2392,-5.2412,-5.2293,-5.1778,-5.1548,-5.1471,-5.0774,-5.0483,-5.0462,-5.0252,-5.0206,-5.0183,-3.9233,-3.9291,-3.9369,-3.959,-3.9916,-4.0165,-4.0172,-3.9946,-3.978,-3.978,-3.9442,-3.9132,-3.9132,-3.9327,-3.9424,-3.9424,-3.9337,-3.9265,-3.9177,-3.9177,-3.9177,-3.9265,-3.9265,-3.9337,-3.9424,-3.9424,-3.9424,-3.9424,-3.9681,-3.9681,-3.9265,-3.9379,-3.9235,-3.8885,-3.8943,-3.909,-3.9235,-3.887,-3.887,-3.9031,-3.8427,-3.8202,-3.8199,-3.8543,-3.8095,-3.7344,-3.7591,-3.7118,-3.6358,-3.6358,-3.6358,-3.6546,-3.7533,-3.7808,-3.7912,-3.8512,-3.9351,-3.9935,-3.9155,-3.9821,-4.0625,-4.034,-4.1018,-4.2045,-4.3257,-4.4192,-4.5127,-4.631,-4.7384,-4.8322,-4.8984,-4.9873,-5.0566,-5.0793,-5.0758,-5.0757,-5.0932,-5.0972,-5.1031,-5.1123,-5.1291,-5.1362,-5.1252,-5.1291,-5.1308,-5.1249,-5.1576,-5.1697,-5.1522,-5.177,-5.2136,-5.2592,-5.2563,-5.2778,-5.3319,-5.321,-5.2972,-5.2611,-5.3084,-5.3282,-5.3203,-5.3203,-5.3182,-5.3142,-5.3182,-5.3182,-5.3103,-5.2605,-5.2414,-5.2357,-5.1369,-5.1022,-5.0964,-5.0402,-5.0197,-5.0174,-4.0187,-4.0307,-4.007,-3.9259,-3.9742,-3.9802,-3.8439,-3.8885,-3.9337,-3.9337,-3.9337,-3.9337,-3.9337,-3.9409,-3.9481,-3.9424,-3.925,-3.9017,-3.8782,-3.8782,-3.887,-3.9104,-3.9104,-3.9177,-3.9424,-3.9424,-3.9424,-3.9424,-4.0076,-3.9935,-3.9104,-3.9565,-3.9349,-3.8516,-3.8277,-3.8501,-3.8958,-3.8427,-3.8501,-3.8943,-3.8427,-3.8202,-3.8199,-3.7961,-3.7648,-3.7259,-3.7029,-3.6713,-3.6358,-3.6358,-3.6358,-3.6546,-3.7625,-3.79,-3.816,-3.9121,-4.0069,-4.0842,-4.0703,-4.1324,-4.2124,-4.2766,-4.2459,-4.2285,-4.342,-4.4517,-4.5645,-4.6847,-4.7758,-4.8609,-4.9447,-4.9955,-5.0358,-5.0663,-5.0702,-5.074,-5.0874,-5.0945,-5.0984,-5.0984,-5.1211,-5.1297,-5.1128,-5.1288,-5.1382,-5.1237,-5.2067,-5.253,-5.2403,-5.3085,-5.3494,-5.3503,-5.3379,-5.3356,-5.3414,-5.4203,-5.4246,-5.3503,-5.3437,-5.3414,-5.3414,-5.3414,-5.3414,-5.3414,-5.3413,-5.3393,-5.3393,-5.3296,-5.3278,-5.3242,-5.2315,-5.199,-5.1914,-5.0792,-5.035,-5.0326,-3.9604,-3.9473,-3.9312,-3.9151,-3.9151,-3.9033,-3.8738,-3.8797,-3.8943,-3.8943,-3.9104,-3.9104,-3.8943,-3.9722,-4.0076,-3.9696,-3.9625,-3.9379,-3.8855,-3.8782,-3.887,-3.9104,-3.9104,-3.9177,-3.9424,-3.9424,-3.9424,-3.9424,-3.9394,-3.9394,-3.9337,-3.8943,-3.8797,-3.8723,-3.8352,-3.8277,-3.8352,-3.8277,-3.8277,-3.8352,-3.8277,-3.8202,-3.8243,-3.8399,-3.7993,-3.7327,-3.7516,-3.7073,-3.6358,-3.6358,-3.6358,-3.6722,-3.8405,-3.8944,-3.921,-4.0916,-4.1903,-4.24,-4.1804,-4.2531,-4.3376,-4.359,-4.407,-4.4574,-4.4766,-4.5407,-4.631,-4.7403,-4.82,-4.8888,-4.9476,-5.014,-5.0624,-5.0683,-5.0702,-5.0702,-5.074,-5.0858,-5.0928,-5.0928,-5.1016,-5.1336,-5.196,-5.2705,-5.31,-5.297,-5.3158,-5.3198,-5.3013,-5.3224,-5.3629,-5.4226,-5.4223,-5.4511,-5.5145,-5.5338,-5.5032,-5.4264,-5.4858,-5.5164,-5.5164,-5.5164,-5.5164,-5.5164,-5.4925,-5.4877,-5.4863,-5.397,-5.3632,-5.3588,-5.2717,-5.2367,-5.2272,-5.1285,-5.0935,-5.084,-3.9424,-3.9337,-3.9265,-3.9265,-3.9104,-3.8943,-3.9104,-3.8943,-3.8855,-3.8943,-3.8943,-3.8943,-3.8782,-3.9349,-3.9636,-3.9523,-3.9809,-3.9737,-3.9147,-3.9075,-3.909,-3.8943,-3.9031,-3.9177,-3.9265,-3.9337,-3.9337,-3.9265,-3.9595,-3.9523,-3.8958,-3.909,-3.8914,-3.8486,-3.8277,-3.8202,-3.8202,-3.8202,-3.8202,-3.8202,-3.8202,-3.8202,-3.8182,-3.8056,-3.777,-3.7254,-3.7209,-3.6815,-3.6358,-3.6358,-3.6722,-3.7361,-3.8765,-3.9549,-4.0173,-4.1633,-4.2703,-4.3382,-4.3037,-4.3815,-4.4824,-4.5158,-4.5824,-4.6285,-4.5925,-4.6389,-4.716,-4.7816,-4.8403,-4.8973,-4.9589,-4.9993,-5.0355,-5.0663,-5.0702,-5.0818,-5.1221,-5.1389,-5.1609,-5.1968,-5.2138,-5.2389,-5.2787,-5.3232,-5.3478,-5.3374,-5.3762,-5.3957,-5.3818,-5.4264,-5.4669,-5.5049,-5.5068,-5.5261,-5.5703,-5.5703,-5.5491,-5.5068,-5.5491,-5.5724,-5.5745,-5.5724,-5.5724,-5.5745,-5.5461,-5.5383,-5.5345,-5.4645,-5.4381,-5.4349,-5.3495,-5.3172,-5.311,-5.2272,-5.1751,-5.1324,-3.9265,-3.9265,-3.9265,-3.9409,-3.9177,-3.9031,-3.9337,-3.8958,-3.8797,-3.8943,-3.8797,-3.8782,-3.8855,-3.9002,-3.9292,-3.9707,-3.999,-3.992,-3.9493,-3.9364,-3.9235,-3.8943,-3.909,-3.9177,-3.9104,-3.9265,-3.9265,-3.9177,-3.9864,-3.9636,-3.859,-3.9262,-3.9118,-3.8277,-3.8202,-3.8202,-3.8202,-3.8202,-3.8202,-3.8202,-3.8202,-3.8185,-3.8098,-3.7511,-3.7246,-3.713,-3.6619,-3.6358,-3.6452,-3.6546,-3.7176,-3.7978,-3.9121,-3.9986,-4.0788,-4.1966,-4.301,-4.3927,-4.4004,-4.5022,-4.6123,-4.6764,-4.7336,-4.7713,-4.73,-4.7729,-4.8275,-4.8556,-4.8975,-4.9504,-5.0109,-5.0274,-5.0475,-5.1046,-5.1125,-5.1356,-5.2029,-5.2221,-5.2508,-5.3127,-5.3539,-5.3708,-5.3616,-5.3684,-5.3706,-5.3646,-5.4381,-5.4786,-5.4703,-5.54,-5.5766,-5.5724,-5.5724,-5.5684,-5.5621,-5.5662,-5.5682,-5.564,-5.5703,-5.5745,-5.5766,-5.5682,-5.5662,-5.5703,-5.5369,-5.5243,-5.5236,-5.5066,-5.4971,-5.495,-5.4229,-5.4063,-5.4098,-5.3326,-5.2556,-5.1718,-3.8943,-3.8738,-3.8811,-3.9307,-3.8797,-3.8501,-3.9031,-3.8649,-3.8277,-3.8352,-3.8441,-3.8664,-3.9017,-3.995,-4.0699,-4.0992,-4.0378,-3.9905,-3.9834,-3.9364,-3.9162,-3.9292,-3.9364,-3.9307,-3.9104,-3.9104,-3.9192,-3.9337,-3.9162,-3.9002,-3.9031,-3.8634,-3.8427,-3.8441,-3.8277,-3.8202,-3.8202,-3.8202,-3.8202,-3.8202,-3.8202,-3.8064,-3.7835,-3.744,-3.7144,-3.6804,-3.6481,-3.6358,-3.6546,-3.7361,-3.7717,-3.8069,-3.9899,-4.0504,-4.0944,-4.24,-4.3379,-4.3989,-4.451,-4.5674,-4.6871,-4.7539,-4.8379,-4.9258,-4.9995,-4.9983,-5.0039,-5.0654,-5.1061,-5.1434,-5.1859,-5.2137,-5.2428,-5.2796,-5.2856,-5.2895,-5.301,-5.3031,-5.3088,-5.3183,-5.3897,-5.4381,-5.4438,-5.5075,-5.546,-5.5459,-5.5555,-5.5593,-5.553,-5.5708,-5.5806,-5.5787,-5.5787,-5.5643,-5.5356,-5.558,-5.5596,-5.5364,-5.564,-5.5766,-5.5703,-5.5461,-5.5364,-5.5339,-5.4769,-5.4604,-5.4673,-5.4491,-5.4505,-5.4623,-5.435,-5.4515,-5.4836,-5.3925,-5.2978,-5.204,-3.9737,-3.9666,-3.9666,-3.995,-3.9651,-3.9364,-3.9379,-3.9017,-3.8723,-3.887,-3.887,-3.9017,-3.9493,-4.0301,-4.0851,-4.1039,-4.0615,-4.0424,-4.0547,-3.9722,-3.9307,-3.9379,-3.9147,-3.8943,-3.8738,-3.8958,-3.9104,-3.9265,-3.9177,-3.9031,-3.8738,-3.8575,-3.8501,-3.8366,-3.8202,-3.8202,-3.8202,-3.8202,-3.8202,-3.8202,-3.8202,-3.8045,-3.7802,-3.7383,-3.711,-3.6818,-3.7049,-3.7176,-3.7361,-3.8238,-3.8944,-3.9549,-4.0332,-4.0972,-4.1604,-4.2659,-4.3457,-4.4143,-4.5122,-4.6416,-4.7605,-4.8256,-4.9556,-5.0773,-5.1269,-5.1762,-5.1974,-5.1436,-5.1433,-5.1709,-5.2218,-5.2398,-5.2628,-5.3121,-5.3203,-5.3376,-5.3857,-5.3916,-5.4129,-5.465,-5.5035,-5.5287,-5.5268,-5.5595,-5.5787,-5.5745,-5.5766,-5.5787,-5.5766,-5.5826,-5.5865,-5.5865,-5.5826,-5.5726,-5.558,-5.5508,-5.5485,-5.5508,-5.5512,-5.5621,-5.5806,-5.5703,-5.5573,-5.5437,-5.4998,-5.4758,-5.4661,-5.4519,-5.4405,-5.4334,-5.4416,-5.4591,-5.4663,-5.3926,-5.3405,-5.293]}]]